[[{"header":{"parameterUnit":"m.s-1","parameterCategory":1,"la1":31.0,"la2":29.5877,"lo1":-88.7671,"lo2":-86.6584,"dy":0.0162,"dx":0.0185,"nx":115,"ny":88,"refTime":"2023-07-19T18:00:00:Z","depth":0,"parameterNumber":2,"parameterNumberName":"U-component_of_WINDS"},"data":[0.0,0.0,0.0,0.0,0.0,0.0,0.0,0.0,0.0,0.0,0.0,0.0,0.0,0.0,0.0,0.0,0.0,0.0,0.0,0.0,0.0,0.0,0.0,0.0,0.0,0.0,0.0,0.0,0.0,0.0,0.0,0.0,0.0,0.0,0.0,0.0,0.0,0.0,0.0,0.0,0.0,0.0,0.0,0.0,0.0,0.0,0.0,0.0,0.0,0.0,0.0,0.0,0.0,0.0,0.0,0.0,0.0,0.0,0.0,0.0,0.0,0.0,0.0,0.0,0.0,0.0,0.0,0.0,0.0,0.0,0.0,0.0,0.0,0.0,0.0,0.0,0.0,0.0,0.0,0.0,0.0,0.0,0.0,0.0,0.0,0.0,0.0,0.0,0.0,0.0,0.0,0.0,0.0,0.0,0.0,0.0,0.0,0.0,0.0,0.0,0.0,0.0,0.0,0.0,0.0,0.0,0.0,0.0,0.0,0.0,0.0,0.0,0.0,0.0,0.0,0.0,0.0,0.0,0.0,0.0,0.0,0.0,0.0,0.0,0.0,0.0,0.0,0.0,0.0,0.0,0.0,0.0,0.0,0.0,0.0,0.0,0.0,0.0,0.0,0.0,0.0,0.0,0.0,0.0,0.0,0.0,0.0,0.0,0.0,0.0,0.0,0.0,0.0,0.0,0.0,0.0,0.0,0.0,0.0,0.0,0.0,0.0,0.0,0.0,0.0,0.0,0.0,0.0,0.0,0.0,0.0,0.0,0.0,0.0,0.0,0.0,0.0,0.0,0.0,0.0,0.0,0.0,0.0,0.0,0.0,0.0,0.0,0.0,0.0,0.0,0.0,0.0,0.0,0.0,0.0,0.0,0.0,0.0,0.0,0.0,0.0,0.0,0.0,0.0,0.0,0.0,0.0,0.0,0.0,0.0,0.0,0.0,0.0,0.0,0.0,0.0,0.0,0.0,0.0,0.0,0.0,0.0,0.0,0.0,0.0,0.0,0.0,0.0,0.0,0.0,0.0,0.0,0.0,0.0,0.0,0.0,0.0,0.0,0.0,0.0,0.0,0.0,0.0,0.0,0.0,0.0,0.0,0.0,0.0,0.0,0.0,0.0,0.0,0.0,0.0,0.0,0.0,0.0,0.0,0.0,0.0,0.0,0.0,0.0,0.0,0.0,0.0,0.0,0.0,0.0,0.0,0.0,0.0,0.0,0.0,0.0,0.0,0.0,0.0,0.0,0.0,0.0,0.0,0.0,0.0,0.0,0.0,0.0,0.0,0.0,0.0,0.0,0.0,0.0,0.0,0.0,0.0,0.0,0.0,0.0,0.0,0.0,0.0,0.0,0.0,0.0,0.0,0.0,0.0,0.0,0.0,0.0,0.0,0.0,0.0,0.0,0.0,0.0,0.0,0.0,0.0,0.0,0.0,0.0,0.0,0.0,0.0,0.0,0.0,0.0,0.0,0.0,0.0,0.0,0.0,0.0,0.0,0.0,0.0,0.0,0.0,0.0,0.0,0.0,0.0,0.0,0.0,0.0,0.0,0.0,0.0,0.0,0.0,0.0,0.0,0.0,0.0,0.0,0.0,0.0,0.0,0.0,0.0,0.0,0.0,0.0,0.0,0.0,0.0,0.0,0.0,0.0,0.0,0.0,0.0,0.0,0.0,0.0,0.0,0.0,0.0,0.0,0.0,0.0,0.0,0.0,0.0,0.0,0.0,0.0,0.0,0.0,0.0,0.0,0.0,0.0,0.0,0.0,0.0,0.0,0.0,0.0,0.0,0.0,0.0,0.0,0.0,0.0,0.0,0.0,0.0,0.0,0.0,0.0,0.0,0.0,0.0,0.0,0.0,0.0,0.0,0.0,0.0,0.0,0.0,0.0,0.0,0.0,0.0,0.0,0.0,0.0,0.0,0.0,0.0,0.0,0.0,0.0,0.0,0.0,0.0,0.0,0.0,0.0,0.0,0.0,0.0,0.0,0.0,0.0,0.0,0.0,0.0,0.0,0.0,0.0,0.0,0.0,0.0,0.0,0.0,0.0,0.0,0.0,0.0,0.0,0.0,0.0,0.0,0.0,0.0,0.0,0.0,0.0,0.0,0.0,0.0,0.0,0.0,0.0,0.0,0.0,0.0,0.0,0.0,0.0,0.0,0.0,0.0,0.0,0.0,0.0,0.0,0.0,0.0,0.0,0.0,0.0,0.0,0.0,0.0,0.0,0.0,0.0,0.0,0.0,0.0,0.0,0.0,0.0,0.0,0.0,0.0,0.0,0.0,0.0,0.0,0.0,0.0,0.0,0.0,0.0,0.0,0.0,0.0,0.0,0.0,0.0,0.0,0.0,0.0,0.0,0.0,0.0,0.0,0.0,0.0,0.0,0.0,0.0,0.0,0.0,0.0,0.0,0.0,0.0,0.0,0.0,0.0,0.0,0.0,0.0,0.0,0.0,0.0,0.0,0.0,0.0,0.0,0.0,0.0,0.0,0.0,0.0,0.0,0.0,0.0,0.0,0.0,0.0,0.0,0.0,0.0,0.0,0.0,0.0,0.0,0.0,0.0,0.0,0.0,0.0,0.0,0.0,0.0,0.0,0.0,0.0,0.0,0.0,0.0,0.0,0.0,0.0,0.0,0.0,0.0,0.0,0.0,0.0,0.0,0.0,0.0,0.0,0.0,0.0,0.0,0.0,0.0,0.0,0.0,0.0,0.0,0.0,0.0,0.0,0.0,0.0,0.0,0.0,0.0,0.0,0.0,0.0,0.0,0.0,0.0,0.0,0.0,0.0,0.0,0.0,0.0,0.0,0.0,0.0,0.0,0.0,0.0,0.0,0.0,0.0,0.0,0.0,0.0,0.0,0.0,0.0,0.0,0.0,0.0,0.0,0.0,0.0,0.0,0.0,0.0,0.0,0.0,0.0,0.0,0.0,0.0,0.0,0.0,0.0,0.0,0.0,0.0,0.0,0.0,0.0,0.0,0.0,0.0,0.0,0.0,0.0,0.0,0.0,0.0,0.0,0.0,0.0,0.0,0.0,0.0,0.0,0.0,0.0,0.0,0.0,0.0,0.0,0.0,0.0,0.0,0.0,0.0,0.0,0.0,0.0,0.0,0.0,0.0,0.0,0.0,0.0,0.0,0.0,0.0,0.0,0.0,0.0,0.0,0.0,0.0,0.0,0.0,0.0,0.0,0.0,0.0,0.0,0.0,0.0,0.0,0.0,0.0,0.0,0.0,0.0,0.0,0.0,0.0,0.0,0.0,0.0,0.0,0.0,0.0,0.0,0.0,0.0,0.0,0.0,0.0,0.0,0.0,0.0,0.0,0.0,0.0,0.0,0.0,0.0,0.0,0.0,0.0,0.0,0.0,0.0,0.0,0.0,0.0,0.0,0.0,0.0,0.0,0.0,0.0,0.0,0.0,0.0,0.0,0.0,0.0,0.0,0.0,0.0,0.0,0.0,0.0,0.0,0.0,0.0,0.0,0.0,0.0,0.0,0.0,0.0,0.0,0.0,0.0,0.0,0.0,0.0,0.0,0.0,0.0,0.0,0.0,0.0,0.0,0.0,0.0,0.0,0.0,0.0,0.0,0.0,0.0,0.0,0.0,0.0,0.0,0.0,0.0,0.0,0.0,0.0,0.0,0.0,0.0,0.0,0.0,0.0,0.0,0.0,0.0,0.0,0.0,0.0,0.0,0.0,0.0,0.0,0.0,0.0,0.0,0.0,0.0,0.0,0.0,0.0,0.0,0.0,0.0,0.0,0.0,0.0,0.0,0.0,0.0,0.0,0.0,0.0,0.0,0.0,0.0,0.0,0.0,0.0,0.0,0.0,0.0,0.0,0.0,0.0,0.0,0.0,0.0,0.0,0.0,0.0,0.0,0.0,0.0,0.0,0.0,0.0,0.0,0.0,0.0,0.0,0.0,0.0,0.0,0.0,0.0,0.0,0.0,0.0,0.0,0.0,0.0,0.0,0.0,0.0,0.0,0.0,0.0,0.0,0.0,0.0,0.0,0.0,0.0,0.0,0.0,0.0,0.0,0.0,0.0,0.0,0.0,0.0,0.0,0.0,0.0,0.0,0.0,0.0,0.0,0.0,0.0,0.0,0.0,0.0,0.0,0.0,0.0,0.0,0.0,0.0,0.0,0.0,0.0,0.0,0.0,0.0,0.0,0.0,0.0,0.0,0.0,0.0,0.0,0.0,0.0,0.0,0.0,0.0,0.0,0.0,0.0,0.0,0.0,0.0,0.0,0.0,0.0,0.0,0.0,0.0,-3.0611,0.0,0.0,0.0,0.0,0.0,0.0,0.0,0.0,0.0,0.0,0.0,0.0,0.0,0.0,0.0,0.0,0.0,0.0,0.0,0.0,0.0,0.0,0.0,0.0,0.0,0.0,0.0,0.0,0.0,0.0,0.0,0.0,0.0,0.0,0.0,0.0,0.0,0.0,0.0,0.0,0.0,0.0,0.0,0.0,0.0,0.0,0.0,0.0,0.0,0.0,0.0,0.0,0.0,0.0,0.0,0.0,0.0,0.0,0.0,0.0,0.0,0.0,0.0,0.0,0.0,0.0,0.0,0.0,0.0,0.0,0.0,0.0,0.0,0.0,0.0,0.0,0.0,0.0,0.0,0.0,0.0,0.0,0.0,0.0,0.0,0.0,0.0,0.0,0.0,0.0,0.0,0.0,0.0,0.0,0.0,0.0,0.0,0.0,0.0,0.0,0.0,0.0,0.0,0.0,0.0,0.0,0.0,0.0,0.0,0.0,-3.1328,-3.2207,-3.1387,-3.1024,-3.1295,0.0,0.0,0.0,0.0,0.0,0.0,0.0,0.0,0.0,0.0,0.0,0.0,0.0,0.0,0.0,0.0,0.0,0.0,0.0,0.0,0.0,0.0,0.0,0.0,0.0,0.0,0.0,0.0,0.0,0.0,0.0,0.0,0.0,0.0,0.0,0.0,0.0,0.0,0.0,0.0,0.0,0.0,0.0,0.0,0.0,0.0,0.0,0.0,0.0,0.0,0.0,0.0,0.0,0.0,0.0,0.0,0.0,0.0,0.0,0.0,0.0,0.0,0.0,0.0,0.0,0.0,0.0,0.0,0.0,0.0,0.0,0.0,0.0,0.0,0.0,0.0,0.0,0.0,0.0,0.0,0.0,0.0,0.0,0.0,0.0,0.0,0.0,0.0,0.0,0.0,0.0,0.0,0.0,0.0,0.0,0.0,0.0,0.0,0.0,0.0,0.0,0.0,0.0,0.0,0.0,0.0,0.0,0.0,0.0,0.0,0.0,0.0,-3.2539,-3.2001,-3.1882,0.0,0.0,0.0,0.0,0.0,0.0,0.0,0.0,0.0,0.0,0.0,0.0,0.0,0.0,0.0,0.0,0.0,0.0,0.0,0.0,0.0,0.0,0.0,0.0,0.0,0.0,0.0,0.0,0.0,0.0,0.0,0.0,0.0,0.0,0.0,0.0,0.0,0.0,0.0,0.0,0.0,0.0,0.0,0.0,0.0,0.0,0.0,0.0,0.0,0.0,0.0,0.0,0.0,0.0,0.0,0.0,0.0,0.0,0.0,0.0,0.0,0.0,0.0,0.0,0.0,0.0,0.0,0.0,0.0,0.0,0.0,0.0,0.0,0.0,0.0,0.0,0.0,0.0,0.0,0.0,0.0,0.0,0.0,0.0,0.0,0.0,0.0,0.0,0.0,0.0,0.0,0.0,0.0,0.0,0.0,0.0,0.0,0.0,0.0,0.0,0.0,0.0,0.0,0.0,0.0,0.0,0.0,0.0,0.0,0.0,-3.1699,-3.3359,-3.4766,0.0,-3.208,0.0,0.0,0.0,0.0,0.0,0.0,0.0,0.0,0.0,0.0,0.0,0.0,0.0,0.0,0.0,0.0,0.0,0.0,0.0,0.0,0.0,0.0,0.0,0.0,0.0,0.0,0.0,0.0,0.0,0.0,0.0,0.0,0.0,0.0,0.0,0.0,0.0,0.0,0.0,0.0,0.0,0.0,0.0,0.0,0.0,0.0,0.0,0.0,0.0,0.0,0.0,0.0,0.0,0.0,0.0,0.0,0.0,0.0,0.0,0.0,0.0,0.0,0.0,0.0,0.0,0.0,0.0,0.0,0.0,0.0,0.0,0.0,0.0,0.0,0.0,0.0,0.0,0.0,0.0,0.0,0.0,0.0,0.0,0.0,0.0,0.0,0.0,0.0,0.0,0.0,0.0,0.0,0.0,0.0,0.0,0.0,0.0,0.0,0.0,0.0,0.0,0.0,0.0,0.0,0.0,0.0,0.0,0.0,0.0,0.0,-3.4238,-3.4941,-3.4575,-3.3577,0.0,0.0,0.0,0.0,0.0,0.0,0.0,0.0,0.0,0.0,0.0,0.0,0.0,0.0,0.0,0.0,0.0,0.0,0.0,0.0,0.0,0.0,0.0,0.0,0.0,0.0,0.0,0.0,0.0,0.0,0.0,0.0,0.0,0.0,0.0,0.0,0.0,0.0,0.0,0.0,0.0,0.0,0.0,0.0,0.0,0.0,0.0,0.0,0.0,0.0,0.0,0.0,0.0,0.0,0.0,0.0,0.0,0.0,0.0,0.0,0.0,0.0,0.0,0.0,0.0,0.0,0.0,0.0,0.0,0.0,0.0,0.0,0.0,0.0,0.0,0.0,0.0,0.0,0.0,0.0,0.0,0.0,0.0,0.0,0.0,0.0,0.0,0.0,0.0,0.0,0.0,0.0,0.0,0.0,0.0,0.0,0.0,0.0,0.0,0.0,0.0,0.0,0.0,0.0,0.0,0.0,0.0,0.0,0.0,0.0,-3.4101,-3.5918,-3.5937,-3.4683,-3.3424,-3.2291,0.0,0.0,0.0,0.0,0.0,0.0,0.0,0.0,0.0,0.0,0.0,0.0,0.0,0.0,0.0,0.0,0.0,0.0,0.0,0.0,0.0,0.0,0.0,0.0,0.0,0.0,0.0,0.0,0.0,0.0,0.0,0.0,0.0,0.0,0.0,0.0,0.0,0.0,0.0,0.0,0.0,0.0,0.0,0.0,0.0,0.0,0.0,0.0,0.0,0.0,0.0,0.0,0.0,0.0,0.0,0.0,0.0,0.0,0.0,0.0,0.0,0.0,0.0,0.0,0.0,0.0,0.0,0.0,0.0,0.0,0.0,0.0,0.0,0.0,0.0,0.0,0.0,0.0,0.0,0.0,0.0,0.0,0.0,0.0,0.0,0.0,0.0,0.0,0.0,0.0,0.0,0.0,0.0,0.0,0.0,0.0,0.0,0.0,0.0,0.0,0.0,0.0,0.0,0.0,0.0,0.0,0.0,0.0,-3.0554,-3.3775,-3.5691,-3.5996,-3.5937,-3.5027,0.0,0.0,0.0,0.0,0.0,0.0,0.0,0.0,0.0,0.0,0.0,0.0,0.0,0.0,0.0,0.0,0.0,0.0,0.0,0.0,0.0,0.0,0.0,0.0,0.0,0.0,0.0,0.0,0.0,0.0,0.0,0.0,0.0,0.0,0.0,0.0,0.0,0.0,0.0,0.0,0.0,0.0,0.0,0.0,0.0,0.0,0.0,0.0,0.0,0.0,0.0,0.0,0.0,0.0,0.0,0.0,0.0,0.0,0.0,0.0,0.0,0.0,0.0,0.0,0.0,0.0,0.0,0.0,0.0,0.0,0.0,0.0,0.0,0.0,0.0,0.0,0.0,0.0,0.0,0.0,0.0,0.0,0.0,0.0,0.0,0.0,0.0,0.0,0.0,0.0,0.0,0.0,0.0,0.0,0.0,0.0,0.0,0.0,0.0,0.0,0.0,0.0,0.0,0.0,0.0,0.0,0.0,0.0,0.0,-3.0576,-3.3937,-3.5864,-3.5996,-3.6016,-3.5127,0.0,0.0,0.0,0.0,0.0,0.0,0.0,0.0,0.0,0.0,0.0,0.0,0.0,0.0,0.0,0.0,0.0,0.0,0.0,0.0,0.0,0.0,0.0,0.0,0.0,0.0,0.0,0.0,0.0,0.0,0.0,0.0,0.0,0.0,0.0,0.0,0.0,0.0,0.0,0.0,0.0,0.0,0.0,0.0,0.0,0.0,0.0,0.0,0.0,0.0,0.0,0.0,0.0,0.0,0.0,0.0,0.0,0.0,0.0,0.0,0.0,0.0,0.0,0.0,0.0,0.0,0.0,0.0,0.0,0.0,0.0,0.0,0.0,0.0,0.0,0.0,0.0,0.0,0.0,0.0,0.0,0.0,0.0,0.0,0.0,0.0,0.0,0.0,0.0,0.0,0.0,0.0,0.0,0.0,0.0,0.0,0.0,0.0,0.0,0.0,0.0,0.0,0.0,0.0,0.0,0.0,0.0,0.0,0.0,-3.2112,0.0,-3.6016,-3.6016,-3.6016,-3.5244,0.0,0.0,0.0,0.0,0.0,0.0,0.0,0.0,0.0,0.0,0.0,0.0,0.0,0.0,0.0,0.0,0.0,0.0,0.0,0.0,0.0,0.0,0.0,0.0,0.0,0.0,0.0,0.0,0.0,0.0,0.0,0.0,0.0,0.0,0.0,0.0,0.0,0.0,0.0,0.0,0.0,0.0,0.0,0.0,0.0,0.0,0.0,0.0,0.0,0.0,0.0,0.0,0.0,0.0,0.0,0.0,0.0,0.0,0.0,0.0,0.0,0.0,0.0,0.0,0.0,0.0,0.0,0.0,0.0,0.0,0.0,0.0,0.0,0.0,0.0,0.0,0.0,0.0,0.0,0.0,0.0,0.0,0.0,0.0,0.0,0.0,0.0,0.0,0.0,0.0,0.0,0.0,0.0,0.0,0.0,0.0,0.0,0.0,0.0,0.0,0.0,0.0,0.0,0.0,0.0,0.0,0.0,0.0,-3.243,-3.531,-3.5768,-3.6035,-3.6055,-3.6035,-3.5535,0.0,0.0,0.0,0.0,0.0,0.0,0.0,0.0,0.0,0.0,0.0,0.0,0.0,0.0,0.0,0.0,0.0,0.0,0.0,0.0,0.0,0.0,0.0,0.0,0.0,0.0,0.0,0.0,0.0,0.0,0.0,0.0,0.0,0.0,0.0,0.0,0.0,0.0,0.0,0.0,0.0,0.0,0.0,0.0,0.0,0.0,0.0,0.0,0.0,0.0,0.0,0.0,0.0,0.0,0.0,0.0,0.0,0.0,0.0,0.0,0.0,0.0,0.0,0.0,0.0,0.0,0.0,0.0,0.0,0.0,0.0,0.0,0.0,0.0,0.0,0.0,0.0,0.0,0.0,0.0,0.0,0.0,0.0,0.0,0.0,0.0,0.0,0.0,0.0,0.0,0.0,0.0,0.0,0.0,0.0,0.0,0.0,0.0,0.0,0.0,0.0,0.0,0.0,0.0,0.0,0.0,0.0,0.0,0.0,-3.5456,-3.5602,-3.6365,-3.7656,-3.6621,-3.5828,0.0,0.0,0.0,0.0,0.0,0.0,0.0,0.0,0.0,0.0,0.0,0.0,0.0,0.0,0.0,0.0,0.0,0.0,0.0,0.0,0.0,0.0,0.0,0.0,0.0,0.0,0.0,0.0,0.0,0.0,0.0,0.0,0.0,0.0,0.0,0.0,0.0,0.0,0.0,0.0,0.0,0.0,0.0,0.0,0.0,0.0,0.0,0.0,0.0,0.0,0.0,0.0,0.0,0.0,0.0,0.0,0.0,0.0,0.0,0.0,0.0,0.0,0.0,0.0,0.0,0.0,0.0,0.0,0.0,0.0,0.0,0.0,0.0,0.0,0.0,0.0,0.0,0.0,0.0,0.0,0.0,0.0,0.0,0.0,0.0,0.0,0.0,0.0,0.0,0.0,0.0,0.0,0.0,0.0,0.0,0.0,0.0,0.0,0.0,0.0,0.0,0.0,0.0,0.0,0.0,0.0,0.0,0.0,0.0,-3.7276,-3.6135,-3.6803,-3.9492,-3.7871,-3.6727,-3.6236,0.0,0.0,0.0,0.0,0.0,0.0,0.0,0.0,0.0,0.0,0.0,0.0,0.0,0.0,0.0,0.0,0.0,0.0,0.0,0.0,0.0,0.0,0.0,0.0,0.0,0.0,0.0,0.0,0.0,0.0,0.0,0.0,0.0,0.0,0.0,0.0,0.0,0.0,0.0,0.0,0.0,0.0,0.0,0.0,0.0,0.0,0.0,0.0,0.0,0.0,0.0,0.0,0.0,0.0,0.0,0.0,0.0,0.0,0.0,0.0,0.0,0.0,0.0,0.0,0.0,0.0,0.0,0.0,0.0,0.0,0.0,0.0,0.0,0.0,0.0,0.0,0.0,0.0,0.0,0.0,0.0,0.0,0.0,0.0,0.0,0.0,0.0,0.0,0.0,0.0,0.0,0.0,0.0,0.0,0.0,0.0,0.0,0.0,0.0,0.0,0.0,0.0,0.0,0.0,0.0,0.0,0.0,0.0,-4.0783,-3.7707,-3.7786,-4.1133,-3.9531,-3.8131,0.0,0.0,0.0,0.0,0.0,0.0,0.0,0.0,0.0,0.0,0.0,0.0,0.0,0.0,0.0,0.0,0.0,0.0,0.0,0.0,0.0,0.0,0.0,0.0,0.0,0.0,0.0,0.0,0.0,0.0,0.0,0.0,0.0,0.0,0.0,0.0,0.0,0.0,0.0,0.0,0.0,0.0,0.0,0.0,0.0,0.0,0.0,0.0,0.0,0.0,0.0,0.0,0.0,0.0,0.0,0.0,0.0,0.0,0.0,0.0,0.0,0.0,0.0,0.0,0.0,0.0,0.0,0.0,0.0,0.0,0.0,0.0,0.0,0.0,0.0,0.0,0.0,0.0,0.0,0.0,0.0,0.0,0.0,0.0,0.0,0.0,0.0,0.0,0.0,0.0,0.0,0.0,0.0,0.0,0.0,0.0,0.0,0.0,0.0,0.0,0.0,0.0,0.0,0.0,0.0,0.0,0.0,0.0,0.0,-4.4432,-4.358,-4.2849,-4.2555,-4.001,-3.8391,0.0,0.0,0.0,0.0,0.0,0.0,0.0,0.0,0.0,0.0,0.0,0.0,0.0,0.0,0.0,0.0,0.0,0.0,0.0,0.0,0.0,0.0,0.0,0.0,0.0,0.0,0.0,0.0,0.0,0.0,0.0,0.0,0.0,0.0,0.0,0.0,0.0,0.0,0.0,0.0,0.0,0.0,0.0,0.0,0.0,0.0,0.0,0.0,0.0,0.0,0.0,0.0,0.0,0.0,0.0,0.0,0.0,0.0,0.0,0.0,0.0,0.0,0.0,0.0,0.0,0.0,0.0,0.0,0.0,0.0,0.0,0.0,0.0,0.0,0.0,0.0,0.0,0.0,0.0,0.0,0.0,0.0,0.0,0.0,0.0,0.0,0.0,0.0,0.0,0.0,0.0,0.0,0.0,0.0,0.0,0.0,0.0,0.0,0.0,0.0,0.0,0.0,0.0,0.0,0.0,0.0,0.0,0.0,-4.0524,-4.5857,-4.5729,-4.5133,-4.4152,-4.0369,-3.8474,0.0,0.0,0.0,0.0,0.0,0.0,0.0,0.0,0.0,0.0,0.0,0.0,0.0,0.0,0.0,0.0,0.0,0.0,0.0,0.0,0.0,0.0,0.0,0.0,0.0,0.0,0.0,0.0,0.0,0.0,0.0,0.0,0.0,0.0,0.0,0.0,0.0,0.0,0.0,0.0,0.0,0.0,0.0,0.0,0.0,0.0,0.0,0.0,0.0,0.0,0.0,0.0,0.0,0.0,0.0,0.0,0.0,0.0,0.0,0.0,0.0,0.0,0.0,0.0,0.0,0.0,0.0,0.0,0.0,0.0,0.0,0.0,0.0,0.0,0.0,0.0,0.0,0.0,0.0,0.0,0.0,0.0,0.0,0.0,0.0,0.0,0.0,0.0,0.0,0.0,0.0,0.0,0.0,0.0,0.0,0.0,0.0,0.0,0.0,0.0,0.0,0.0,0.0,0.0,0.0,0.0,0.0,0.0,-4.2443,-4.5004,-4.5421,-4.5594,-4.546,-4.0843,-3.8612,0.0,0.0,0.0,0.0,0.0,0.0,0.0,0.0,0.0,0.0,0.0,0.0,0.0,0.0,0.0,0.0,0.0,0.0,0.0,0.0,0.0,0.0,0.0,0.0,0.0,0.0,0.0,0.0,0.0,0.0,0.0,0.0,0.0,0.0,0.0,0.0,0.0,0.0,0.0,0.0,0.0,0.0,0.0,0.0,0.0,0.0,0.0,0.0,0.0,0.0,0.0,0.0,0.0,0.0,0.0,0.0,0.0,0.0,0.0,0.0,0.0,0.0,0.0,0.0,0.0,0.0,0.0,0.0,0.0,0.0,0.0,0.0,0.0,0.0,0.0,0.0,0.0,0.0,0.0,0.0,0.0,0.0,0.0,0.0,0.0,0.0,0.0,0.0,0.0,0.0,0.0,0.0,0.0,0.0,0.0,0.0,0.0,0.0,0.0,0.0,0.0,0.0,0.0,0.0,0.0,0.0,0.0,0.0,-4.1301,-4.1605,-4.4209,-4.5594,-4.5575,-4.1939,-3.9761,0.0,0.0,0.0,0.0,0.0,0.0,0.0,0.0,0.0,0.0,0.0,0.0,0.0,0.0,0.0,0.0,0.0,0.0,0.0,0.0,0.0,0.0,0.0,0.0,0.0,0.0,0.0,0.0,0.0,0.0,0.0,0.0,0.0,0.0,0.0,0.0,0.0,0.0,0.0,0.0,0.0,0.0,0.0,0.0,0.0,0.0,0.0,0.0,-3.7239,0.0,0.0,0.0,0.0,0.0,0.0,0.0,0.0,0.0,0.0,0.0,0.0,0.0,0.0,0.0,0.0,0.0,0.0,0.0,0.0,0.0,0.0,0.0,0.0,0.0,0.0,0.0,0.0,0.0,0.0,0.0,0.0,0.0,0.0,0.0,0.0,0.0,0.0,0.0,0.0,0.0,0.0,0.0,0.0,0.0,0.0,0.0,0.0,0.0,0.0,0.0,0.0,0.0,0.0,0.0,0.0,0.0,0.0,0.0,-4.1533,-4.2879,-4.4652,-4.5448,-4.5093,-4.3363,-4.1638,0.0,0.0,0.0,0.0,0.0,0.0,0.0,0.0,0.0,0.0,0.0,0.0,0.0,0.0,0.0,0.0,0.0,0.0,0.0,0.0,0.0,0.0,0.0,0.0,0.0,0.0,0.0,0.0,0.0,0.0,0.0,0.0,0.0,0.0,0.0,0.0,0.0,0.0,0.0,0.0,0.0,0.0,0.0,0.0,0.0,0.0,0.0,0.0,0.0,0.0,0.0,0.0,0.0,0.0,0.0,0.0,0.0,0.0,0.0,0.0,0.0,0.0,0.0,0.0,0.0,0.0,0.0,0.0,0.0,0.0,0.0,0.0,0.0,0.0,0.0,0.0,0.0,0.0,0.0,0.0,0.0,0.0,0.0,0.0,0.0,0.0,0.0,0.0,0.0,0.0,0.0,0.0,0.0,0.0,0.0,0.0,0.0,0.0,0.0,0.0,0.0,0.0,0.0,0.0,0.0,0.0,0.0,-3.948,-4.2689,-4.5441,-4.5594,-4.5283,-4.4618,-4.4334,-4.302,-4.0493,0.0,0.0,0.0,0.0,0.0,0.0,0.0,0.0,0.0,0.0,0.0,0.0,0.0,0.0,0.0,0.0,0.0,0.0,0.0,0.0,0.0,0.0,0.0,0.0,0.0,0.0,0.0,0.0,0.0,0.0,0.0,0.0,0.0,0.0,0.0,0.0,0.0,0.0,-3.8373,-3.8488,0.0,0.0,0.0,0.0,0.0,0.0,0.0,0.0,-4.0049,0.0,0.0,0.0,0.0,0.0,0.0,0.0,0.0,0.0,0.0,0.0,0.0,0.0,0.0,0.0,0.0,0.0,0.0,0.0,0.0,0.0,0.0,0.0,0.0,0.0,0.0,0.0,0.0,0.0,0.0,0.0,0.0,0.0,0.0,0.0,0.0,0.0,0.0,0.0,0.0,0.0,0.0,0.0,0.0,0.0,0.0,0.0,0.0,0.0,0.0,0.0,0.0,0.0,0.0,0.0,0.0,-3.6035,-4.179,-4.5056,-4.5575,-4.5594,-4.5273,-4.46,-4.3177,-4.1699,-4.011,0.0,0.0,0.0,0.0,0.0,0.0,0.0,0.0,0.0,0.0,0.0,0.0,0.0,0.0,0.0,0.0,0.0,0.0,0.0,0.0,0.0,0.0,0.0,0.0,0.0,0.0,0.0,0.0,0.0,0.0,0.0,0.0,0.0,0.0,0.0,0.0,0.0,0.0,0.0,-4.0719,-4.1227,0.0,0.0,0.0,0.0,0.0,0.0,0.0,0.0,-4.0545,0.0,0.0,0.0,0.0,0.0,0.0,0.0,0.0,0.0,0.0,0.0,0.0,0.0,0.0,0.0,0.0,0.0,0.0,0.0,0.0,0.0,0.0,0.0,0.0,0.0,0.0,0.0,0.0,0.0,0.0,0.0,0.0,0.0,0.0,0.0,0.0,0.0,0.0,0.0,0.0,0.0,0.0,0.0,0.0,0.0,0.0,0.0,0.0,0.0,0.0,0.0,0.0,0.0,0.0,0.0,-3.625,-4.0593,-4.2959,-4.2959,-4.2959,-4.3044,-4.3202,-4.1594,-4.0326,0.0,0.0,0.0,0.0,0.0,0.0,0.0,0.0,0.0,0.0,0.0,0.0,0.0,0.0,0.0,0.0,0.0,0.0,0.0,0.0,0.0,0.0,0.0,0.0,0.0,0.0,0.0,0.0,0.0,0.0,0.0,0.0,0.0,0.0,0.0,0.0,0.0,0.0,0.0,0.0,-4.2241,-4.2577,-4.2904,0.0,0.0,0.0,0.0,0.0,0.0,-4.1148,-4.0545,0.0,0.0,0.0,0.0,0.0,0.0,0.0,0.0,0.0,0.0,0.0,0.0,0.0,0.0,0.0,0.0,0.0,0.0,0.0,0.0,0.0,0.0,0.0,0.0,0.0,0.0,0.0,0.0,0.0,0.0,0.0,0.0,0.0,0.0,0.0,0.0,0.0,0.0,0.0,0.0,0.0,0.0,0.0,0.0,0.0,0.0,0.0,0.0,0.0,0.0,0.0,0.0,0.0,0.0,0.0,-3.6959,-3.929,-4.0496,-4.0496,-4.0496,-4.0769,-4.1291,-4.0121,-3.9302,0.0,0.0,0.0,0.0,0.0,0.0,0.0,0.0,0.0,0.0,0.0,0.0,0.0,0.0,0.0,0.0,0.0,0.0,0.0,0.0,0.0,0.0,0.0,0.0,0.0,0.0,0.0,0.0,0.0,0.0,0.0,0.0,0.0,0.0,0.0,0.0,0.0,0.0,0.0,0.0,0.0,-4.3461,-4.4094,-4.2542,0.0,0.0,0.0,0.0,-4.2983,-4.1968,0.0,0.0,0.0,0.0,0.0,0.0,0.0,0.0,0.0,0.0,0.0,0.0,0.0,0.0,0.0,0.0,0.0,0.0,0.0,0.0,0.0,0.0,0.0,0.0,0.0,0.0,0.0,0.0,0.0,0.0,0.0,0.0,0.0,0.0,0.0,0.0,0.0,0.0,0.0,0.0,0.0,0.0,0.0,0.0,0.0,0.0,0.0,0.0,0.0,0.0,0.0,0.0,0.0,0.0,0.0,0.0,-3.9862,-4.033,-4.0496,-4.0496,-4.0489,-4.004,-3.9106,-3.9349,-3.9039,0.0,0.0,0.0,0.0,0.0,0.0,0.0,0.0,0.0,0.0,0.0,0.0,0.0,0.0,0.0,0.0,0.0,0.0,0.0,0.0,0.0,0.0,0.0,0.0,0.0,0.0,0.0,0.0,0.0,0.0,0.0,0.0,0.0,0.0,0.0,0.0,0.0,0.0,0.0,0.0,0.0,-4.3923,-4.4753,-4.4467,-4.3063,0.0,0.0,-3.9808,-4.3002,-4.1303,0.0,0.0,0.0,0.0,0.0,0.0,0.0,0.0,0.0,0.0,0.0,0.0,0.0,0.0,0.0,0.0,0.0,0.0,0.0,0.0,0.0,0.0,0.0,0.0,0.0,0.0,0.0,0.0,0.0,0.0,0.0,0.0,0.0,0.0,0.0,0.0,0.0,0.0,0.0,0.0,0.0,0.0,0.0,0.0,0.0,0.0,0.0,0.0,0.0,0.0,0.0,0.0,0.0,0.0,0.0,-3.7154,-4.0362,-4.0496,-4.0496,-4.0481,-3.9832,-3.9229,-3.8723,-3.8044,-3.7678,0.0,0.0,0.0,0.0,0.0,0.0,0.0,0.0,0.0,0.0,0.0,0.0,0.0,0.0,0.0,0.0,0.0,0.0,0.0,0.0,0.0,0.0,0.0,0.0,0.0,0.0,0.0,0.0,0.0,0.0,0.0,0.0,0.0,0.0,0.0,0.0,0.0,0.0,0.0,0.0,0.0,0.0,-4.5426,-4.6566,0.0,0.0,0.0,-4.2525,-4.5736,0.0,0.0,0.0,0.0,0.0,0.0,0.0,0.0,0.0,0.0,0.0,0.0,0.0,0.0,0.0,0.0,0.0,0.0,0.0,0.0,0.0,0.0,0.0,0.0,0.0,0.0,0.0,0.0,0.0,0.0,0.0,0.0,0.0,0.0,0.0,0.0,0.0,0.0,0.0,0.0,0.0,0.0,0.0,0.0,0.0,0.0,0.0,0.0,0.0,0.0,0.0,0.0,0.0,0.0,0.0,0.0,0.0,-4.04,-4.0496,-4.0353,-4.0043,-3.9181,-3.8707,-3.8673,-3.728,0.0,0.0,0.0,0.0,0.0,0.0,0.0,0.0,0.0,0.0,0.0,0.0,0.0,0.0,0.0,0.0,0.0,0.0,0.0,0.0,0.0,0.0,0.0,0.0,0.0,0.0,0.0,-3.6233,0.0,0.0,0.0,0.0,0.0,0.0,0.0,0.0,0.0,0.0,0.0,0.0,0.0,0.0,-4.5835,-4.5806,-4.7751,-4.7988,0.0,0.0,-4.4323,-4.6728,-4.3888,-4.1464,0.0,0.0,0.0,0.0,0.0,0.0,0.0,0.0,0.0,0.0,0.0,0.0,0.0,0.0,0.0,0.0,0.0,0.0,0.0,0.0,0.0,0.0,0.0,0.0,0.0,0.0,0.0,0.0,0.0,0.0,0.0,0.0,0.0,0.0,0.0,0.0,0.0,0.0,0.0,0.0,0.0,0.0,0.0,0.0,0.0,0.0,0.0,0.0,0.0,0.0,0.0,0.0,0.0,0.0,-3.7135,-4.0362,-4.0496,-3.9935,-3.8877,-3.875,-3.8707,-3.8692,-3.7683,-3.6912,0.0,0.0,0.0,0.0,0.0,0.0,0.0,0.0,0.0,0.0,0.0,0.0,0.0,0.0,0.0,0.0,0.0,0.0,0.0,0.0,0.0,0.0,0.0,0.0,0.0,0.0,0.0,0.0,0.0,0.0,0.0,0.0,0.0,0.0,0.0,0.0,0.0,0.0,0.0,0.0,0.0,-4.4898,-4.5704,-4.727,-4.7757,0.0,-4.4452,-4.3588,-4.3791,-4.1823,-4.057,-4.1639,0.0,0.0,0.0,0.0,0.0,0.0,0.0,0.0,0.0,0.0,0.0,0.0,0.0,0.0,0.0,0.0,0.0,0.0,0.0,0.0,0.0,0.0,0.0,0.0,0.0,0.0,0.0,0.0,0.0,0.0,0.0,0.0,0.0,0.0,0.0,0.0,0.0,0.0,0.0,0.0,0.0,0.0,0.0,0.0,0.0,0.0,0.0,0.0,0.0,0.0,0.0,0.0,0.0,-3.6442,-3.8375,-3.9055,-3.9149,-3.8719,-3.8707,-3.8707,-3.8707,-3.7738,-3.6915,0.0,0.0,0.0,0.0,0.0,0.0,0.0,0.0,0.0,0.0,0.0,0.0,0.0,0.0,0.0,0.0,0.0,0.0,0.0,0.0,0.0,0.0,0.0,0.0,0.0,0.0,0.0,0.0,-3.7195,-3.7,-3.5,0.0,0.0,0.0,0.0,0.0,0.0,0.0,0.0,0.0,0.0,-4.5634,-4.5443,-4.6215,0.0,0.0,-4.4544,-4.3479,-4.3479,-4.2167,-4.1053,-4.0791,-4.0579,0.0,0.0,0.0,0.0,0.0,0.0,0.0,0.0,0.0,0.0,0.0,0.0,0.0,0.0,0.0,0.0,0.0,0.0,0.0,0.0,0.0,0.0,0.0,0.0,0.0,0.0,0.0,0.0,0.0,0.0,0.0,0.0,0.0,0.0,0.0,0.0,0.0,0.0,0.0,0.0,0.0,0.0,0.0,0.0,0.0,0.0,0.0,0.0,0.0,0.0,0.0,0.0,-3.6028,-3.7099,-3.8155,-3.8707,-3.8707,-3.8707,-3.8546,-3.8234,-3.756,-3.6774,0.0,0.0,0.0,0.0,0.0,0.0,0.0,0.0,0.0,0.0,0.0,0.0,0.0,0.0,0.0,0.0,0.0,0.0,0.0,0.0,0.0,0.0,0.0,0.0,0.0,0.0,0.0,0.0,-3.8551,-3.8322,-3.5587,0.0,0.0,0.0,0.0,0.0,0.0,0.0,0.0,0.0,0.0,-4.5568,-4.5249,-4.5188,-4.5204,-4.5186,-4.3648,-4.2485,-4.2485,-4.2103,-4.1512,-4.072,0.0,0.0,0.0,0.0,0.0,0.0,0.0,0.0,0.0,0.0,0.0,0.0,0.0,0.0,0.0,0.0,0.0,0.0,0.0,0.0,0.0,0.0,0.0,0.0,0.0,0.0,0.0,0.0,0.0,0.0,0.0,0.0,0.0,0.0,0.0,0.0,0.0,0.0,0.0,0.0,0.0,0.0,0.0,0.0,0.0,0.0,0.0,0.0,0.0,0.0,0.0,0.0,0.0,-3.602,-3.7092,-3.8155,-3.8707,-3.8707,-3.8707,-3.8218,-3.7303,-3.7209,-3.6448,-3.4907,0.0,0.0,0.0,0.0,0.0,0.0,0.0,0.0,0.0,0.0,0.0,0.0,0.0,0.0,0.0,0.0,0.0,0.0,0.0,0.0,0.0,0.0,0.0,0.0,0.0,0.0,-4.0749,-4.1003,-4.0361,0.0,0.0,0.0,0.0,0.0,0.0,0.0,0.0,0.0,0.0,-4.4303,-4.4355,-4.5065,-4.4282,-4.3753,-4.3625,-4.1721,-4.0254,-4.0336,-4.1145,-4.181,0.0,0.0,0.0,0.0,0.0,0.0,0.0,0.0,0.0,0.0,0.0,0.0,0.0,0.0,0.0,0.0,0.0,0.0,0.0,0.0,0.0,0.0,0.0,0.0,0.0,0.0,0.0,0.0,0.0,0.0,0.0,0.0,0.0,0.0,0.0,0.0,0.0,0.0,0.0,0.0,-3.6558,-3.7298,0.0,0.0,0.0,0.0,0.0,0.0,0.0,0.0,0.0,0.0,0.0,0.0,-3.5675,-3.7069,-3.8155,-3.8707,-3.8707,-3.8707,-3.8219,-3.7247,-3.6501,-3.5583,-3.4375,0.0,0.0,0.0,0.0,0.0,0.0,0.0,0.0,0.0,0.0,0.0,0.0,0.0,0.0,0.0,0.0,0.0,0.0,0.0,0.0,0.0,0.0,0.0,0.0,0.0,-4.0744,0.0,0.0,0.0,0.0,0.0,0.0,0.0,0.0,0.0,0.0,0.0,-4.4795,-4.3968,-4.513,-4.5582,-4.4252,-4.5587,-4.5938,0.0,0.0,0.0,0.0,0.0,0.0,0.0,0.0,0.0,0.0,0.0,0.0,0.0,0.0,-3.9537,-4.0011,-4.0113,-4.0113,-4.0113,0.0,0.0,0.0,0.0,0.0,0.0,0.0,0.0,0.0,0.0,0.0,0.0,0.0,0.0,0.0,0.0,0.0,0.0,0.0,0.0,0.0,0.0,0.0,0.0,0.0,-3.6119,-3.6359,-3.6858,-3.8124,-3.7192,0.0,-3.4433,-3.4449,0.0,0.0,0.0,0.0,0.0,0.0,0.0,0.0,-3.5187,-3.6783,-3.8079,-3.8707,-3.8707,-3.8707,-3.805,-3.6686,-3.5733,-3.4912,-3.426,-3.2831,-3.2316,0.0,0.0,0.0,0.0,0.0,0.0,0.0,0.0,0.0,0.0,0.0,0.0,0.0,0.0,0.0,0.0,0.0,0.0,0.0,0.0,0.0,0.0,0.0,-4.1333,0.0,0.0,0.0,0.0,0.0,0.0,0.0,0.0,0.0,-4.4525,-4.5241,-4.5516,-4.447,-4.5278,-4.557,-4.4489,0.0,0.0,0.0,0.0,0.0,0.0,0.0,-4.0961,-4.0204,-4.0392,-4.0521,-4.0154,-4.0113,-4.0113,-4.0113,0.0,0.0,-4.0113,-4.0113,-4.0113,-4.0113,-4.0113,-4.0113,-4.0113,-4.0113,-3.974,0.0,0.0,0.0,0.0,0.0,0.0,0.0,0.0,0.0,0.0,0.0,0.0,0.0,0.0,0.0,0.0,0.0,-3.5783,0.0,0.0,-3.7966,-3.7808,-3.6574,-3.7879,-3.7542,-3.5672,-3.5599,-3.5582,-3.5559,-3.5016,0.0,0.0,0.0,0.0,0.0,0.0,-3.4619,-3.6223,-3.7772,-3.8578,-3.8564,-3.8562,-3.7649,-3.57,-3.4861,-3.4455,-3.4392,-3.2496,-3.1328,-3.1227,-3.1095,0.0,0.0,0.0,0.0,0.0,0.0,0.0,0.0,0.0,0.0,0.0,0.0,0.0,0.0,0.0,0.0,0.0,0.0,0.0,0.0,-4.0717,0.0,0.0,0.0,0.0,0.0,0.0,0.0,0.0,0.0,0.0,-4.5572,-4.5847,-4.5883,-4.5828,0.0,0.0,0.0,0.0,-4.4086,-4.5553,-4.5088,-4.4341,-4.3798,-4.167,-4.0121,-4.0096,0.0,0.0,-4.0113,-4.0113,-4.0113,-4.0113,-4.0113,-4.0113,-4.0113,-4.0113,-4.0113,-4.0113,-4.0113,-4.0113,-4.0096,-3.9995,-3.9699,0.0,0.0,0.0,0.0,0.0,0.0,0.0,0.0,0.0,0.0,0.0,0.0,0.0,0.0,0.0,0.0,0.0,0.0,-3.6966,-3.7251,-3.7077,-3.7349,-3.7983,-3.6961,-3.6186,-3.5622,-3.5616,-3.5616,-3.5605,-3.5433,-3.5025,-3.4452,0.0,0.0,0.0,0.0,-3.4244,-3.5146,-3.6038,-3.6484,-3.6484,-3.6484,-3.6211,-3.5622,-3.4387,-3.3711,-3.3711,-3.4117,-3.3372,-3.1289,-2.953,0.0,0.0,0.0,0.0,0.0,0.0,0.0,0.0,0.0,0.0,0.0,0.0,0.0,0.0,0.0,0.0,0.0,0.0,0.0,-4.081,-4.046,-4.1026,0.0,0.0,0.0,0.0,0.0,0.0,0.0,0.0,0.0,-4.489,-4.5397,-4.57,0.0,0.0,-4.59,-4.515,-4.4361,-4.3937,-4.416,-4.3973,0.0,-4.6634,-4.3071,-4.0113,-4.0113,-4.0113,-4.0113,-4.0113,-4.0113,-4.0113,-4.0113,-4.0113,-4.0113,-4.0113,-4.0113,-4.007,-4.0113,-4.0113,-4.0113,-4.0054,-3.9345,-3.8367,0.0,0.0,0.0,0.0,0.0,0.0,0.0,0.0,0.0,0.0,0.0,0.0,0.0,0.0,0.0,0.0,0.0,0.0,-3.7699,-3.7651,-3.7384,-3.7567,-3.7963,-3.6399,-3.5616,-3.5616,-3.5616,-3.5616,-3.5616,-3.5616,-3.5437,-3.504,0.0,0.0,-3.4449,-3.4274,-3.4345,-3.4694,-3.5307,-3.5616,-3.56,-3.445,-3.415,-3.467,-3.388,-3.3541,-3.3829,-3.4421,-3.3914,-3.2134,-3.0124,-2.9679,0.0,0.0,0.0,0.0,0.0,0.0,0.0,0.0,0.0,0.0,0.0,-3.1833,-3.3305,0.0,0.0,0.0,-3.8783,-3.9727,-4.0047,-4.0061,0.0,0.0,0.0,0.0,0.0,0.0,0.0,-4.5125,-4.6975,-4.7078,-4.391,-4.3518,-4.3837,-4.4418,-4.4897,-4.4872,-4.415,0.0,-4.2795,-4.2806,-4.2829,-4.3346,-4.4757,-4.1777,-3.9225,-3.9249,-3.9208,-3.9225,-3.9225,-3.9208,-3.9428,-3.9943,-4.0113,-4.0113,-4.0113,-3.9156,-3.8497,-3.9032,-3.8771,-3.8498,-3.8721,-3.791,-3.6881,0.0,0.0,0.0,0.0,0.0,0.0,0.0,0.0,0.0,0.0,0.0,0.0,0.0,0.0,0.0,0.0,-1.9885,-3.2779,-3.8396,-3.7911,-3.8366,-3.8083,-3.7171,-3.6101,-3.5616,-3.5616,-3.5616,-3.5616,-3.56,-3.5464,-3.5458,-3.553,-3.5263,-3.4963,-3.4711,-3.4694,-3.4711,-3.4779,-3.5077,-3.5267,-3.5211,-3.2611,-3.185,-3.3186,-3.3322,-3.3643,-3.4252,-3.3609,-3.3237,-3.3186,-3.1918,-3.119,-3.119,0.0,0.0,0.0,0.0,0.0,0.0,0.0,0.0,0.0,0.0,0.0,0.0,0.0,0.0,0.0,-3.8198,0.0,-3.8078,-3.9582,0.0,0.0,0.0,-4.2905,-4.5479,-4.5755,-4.4291,-4.0531,0.0,0.0,-4.2603,-4.0942,-4.1053,-4.3538,-4.2929,-4.2451,-4.2939,-4.1918,-4.1232,-4.2058,-4.1835,-4.1203,-4.0172,-3.8662,-3.7787,-3.7905,-3.7889,-3.799,-3.8007,-3.799,-3.8497,-3.9605,-3.9926,-3.9791,-3.974,-3.7189,-3.5639,-3.7125,-3.6498,-3.5874,-3.6584,-3.6204,-3.5449,0.0,0.0,0.0,0.0,0.0,0.0,0.0,0.0,0.0,0.0,0.0,0.0,0.0,0.0,0.0,-0.705,-1.9903,-3.2797,-3.8399,-3.7893,-3.7667,-3.7433,-3.7135,-3.6101,-3.5616,-3.5616,-3.5616,-3.5616,-3.5549,-3.445,-3.4261,-3.4868,-3.4534,-3.4478,-3.4676,-3.4712,-3.4922,-3.5378,-3.3328,-3.2239,-3.2222,-3.1562,-3.136,-3.1698,-3.2476,-3.2848,-3.2818,-3.2104,-3.1715,-3.1715,-3.1376,-3.119,-3.1171,-2.9441,0.0,0.0,0.0,0.0,0.0,0.0,0.0,0.0,0.0,-3.2645,-3.3334,0.0,-3.6546,0.0,-3.9627,-3.9558,-3.8629,-3.9411,0.0,0.0,-4.251,-4.3202,-4.4443,-4.461,-4.3461,-4.0449,-4.1236,-4.1698,-4.0731,-4.0333,-4.034,-4.0994,-4.2085,-4.2856,-4.2947,-4.2409,-4.2312,-4.3102,-4.1766,-3.9614,-3.7265,-3.6411,-3.6428,-3.7161,-3.7618,-3.7905,-3.7882,-3.7898,-3.8041,-3.8362,-3.8413,-3.799,-3.6975,-3.4361,-3.3225,-3.4241,-3.4285,-3.4457,-3.5721,-3.5047,-3.414,0.0,0.0,0.0,0.0,0.0,0.0,0.0,0.0,0.0,0.0,0.0,0.0,0.0,0.0,0.0,-0.3912,-1.1833,-2.9694,-3.7694,-3.7159,-3.7183,-3.6943,-3.6411,-3.4516,-3.3643,-3.3639,-3.3622,-3.366,-3.3592,-3.2814,-3.2656,-3.3144,-3.3584,-3.3837,-3.3965,-3.4446,-3.4841,-3.5163,-3.2565,-3.119,-3.119,-3.119,-3.119,-3.1207,-3.1732,-3.2121,-3.2276,-3.1582,-3.119,-3.1171,-3.0171,-2.9613,-2.9569,-2.8312,-2.8693,0.0,0.0,0.0,0.0,0.0,0.0,0.0,0.0,0.0,0.0,0.0,-3.6558,-3.8881,-3.8471,-3.8148,-3.8296,-3.92,-4.0165,-4.1092,-4.1492,-4.1882,-4.2323,-4.2375,-4.1778,-4.0298,-4.0113,-4.0113,-4.0113,-4.0113,-3.996,-3.969,-4.0511,-4.1221,-4.1198,-4.0946,-4.115,-4.2107,-4.0504,-3.8345,-3.5921,-3.5616,-3.5785,-3.6315,-3.6688,-3.6867,-3.685,-3.6622,-3.6511,-3.6804,-3.6867,-3.6631,-3.5701,-3.4455,-3.3323,-3.2691,-3.2627,-3.3046,-3.4058,-3.3468,-3.271,0.0,0.0,0.0,0.0,0.0,0.0,0.0,0.0,0.0,0.0,0.0,0.0,0.0,0.0,0.0,0.0,0.0,-2.3954,-3.5013,-3.6074,-3.6647,-3.633,-3.5233,-3.251,-3.119,-3.119,-3.119,-3.119,-3.119,-3.119,-3.119,-3.1258,-3.2537,-3.3128,-3.2991,-3.3933,-3.4482,-3.4534,-3.2331,-3.119,-3.119,-3.119,-3.1106,-3.0939,-3.0903,-3.1258,-3.1955,-3.1393,-3.1106,-3.1131,-2.9187,-2.8076,-2.8036,-2.8061,-2.9004,0.0,-3.1055,0.0,0.0,0.0,0.0,0.0,0.0,0.0,0.0,-3.4845,-3.6065,-3.7141,-3.608,-3.5895,-3.7281,-3.8599,-3.9165,-3.8601,-3.9263,-3.9876,-4.0054,-4.0113,-4.0113,-4.0113,-4.0113,-4.0062,-3.9808,-3.9825,-3.9537,-3.9012,-3.8943,-3.8931,-3.8647,-3.879,-3.9214,-3.974,-3.8565,-3.7094,-3.5904,-3.5616,-3.5515,-3.5397,-3.5566,-3.5509,-3.5363,-3.4988,-3.4816,-3.5234,-3.5348,-3.5258,-3.5155,-3.4981,-3.4137,-3.202,-3.1448,-3.1524,-3.2226,-3.209,-3.1525,0.0,0.0,0.0,0.0,0.0,0.0,0.0,0.0,0.0,0.0,0.0,0.0,0.0,0.0,0.0,0.0,0.0,-1.3653,-2.5341,-3.5375,-3.5349,-3.4781,-3.3732,-3.2019,-3.119,-3.119,-3.119,-3.119,-3.119,-3.119,-3.119,-3.121,-3.1817,-3.2262,-3.2579,0.0,0.0,0.0,-3.2161,-3.119,-3.119,-3.119,-3.0615,-2.9467,-2.9416,0.0,-3.0463,-3.0378,-3.0598,-3.114,-3.076,0.0,0.0,0.0,0.0,0.0,0.0,0.0,0.0,0.0,0.0,0.0,-3.2869,-3.4152,-3.5088,-3.5398,-3.5187,-3.441,-3.4061,-3.426,-3.5213,-3.6556,-3.7096,-3.6513,-3.7505,-3.8709,-3.9893,-4.0079,-4.0113,-4.0113,-4.0096,-3.9622,-3.8447,-3.8328,-3.8261,-3.8058,-3.8108,-3.7601,-3.6411,-3.733,-3.8125,-3.821,-3.7077,-3.6005,-3.565,-3.5583,-3.4953,-3.4336,-3.489,-3.5043,-3.4174,-3.4292,-3.4341,-3.4161,-3.3962,-3.3585,-3.252,-3.2269,-3.2253,-3.1567,-3.0658,-3.0298,-3.1421,-3.1585,-3.1496,0.0,0.0,0.0,0.0,0.0,0.0,0.0,0.0,0.0,0.0,0.0,0.0,0.0,0.0,0.0,0.0,0.0,-1.0842,-2.1951,-3.3089,-3.3867,-3.3498,-3.229,-3.1546,-3.119,-3.119,-3.119,-3.119,-3.119,-3.119,-3.119,-3.119,-3.1391,-3.1638,-3.1841,-3.186,-3.2074,-3.25,-3.1657,-3.0842,-3.0135,-2.9368,-2.8991,-2.8993,-2.8993,0.0,0.0,0.0,0.0,0.0,0.0,0.0,0.0,0.0,0.0,-2.9435,-2.8841,-2.8519,-2.8535,-2.9469,-3.0026,-3.008,-3.1621,-3.314,-3.452,-3.3954,-3.3245,-3.2572,-3.2527,-3.2958,-3.4032,-3.5096,-3.5619,-3.5331,-3.6178,-3.738,-3.8731,-3.9022,-3.87,-3.8007,-3.7872,-3.7313,-3.5876,-3.636,-3.6546,-3.6315,-3.6529,-3.6208,-3.5047,-3.6163,-3.7229,-3.6857,-3.6191,-3.5633,-3.5487,-3.4305,-3.3466,-3.2799,-3.3145,-3.3277,-3.2711,-3.2595,-3.2784,-3.3285,-3.3045,-3.1921,-3.0167,-3.0554,-3.1316,-3.0702,-3.0043,-2.9759,-3.0447,-3.0567,-3.0567,0.0,0.0,0.0,0.0,0.0,0.0,0.0,0.0,0.0,0.0,0.0,0.0,0.0,0.0,0.0,0.0,0.0,-1.0842,-2.1211,-3.114,-3.2459,-3.2374,-3.1207,-3.119,-3.119,-3.119,-3.119,-3.119,-3.119,-3.119,-3.119,-3.119,-3.119,-3.119,-3.119,-3.119,-3.0937,-3.0465,-3.092,-3.0612,-2.939,-2.8146,-2.8113,-2.9365,-2.9128,-2.9531,-3.0617,-3.0549,-3.069,-3.1173,-3.0995,-3.0781,-3.0518,-2.8678,-2.7585,-2.7585,-2.7585,-2.7585,-2.76,-2.8164,-2.8589,-2.8753,-3.024,-3.1734,-3.3124,-3.2173,-3.1496,-3.1496,-3.1496,-3.1959,-3.3036,-3.3875,-3.427,-3.4162,-3.4888,-3.5776,-3.6646,-3.7292,-3.6821,-3.5318,-3.5364,-3.4953,-3.346,-3.3835,-3.4438,-3.4169,-3.4465,-3.4522,-3.3688,-3.5099,-3.6383,-3.5853,-3.5076,-3.4805,-3.5127,-3.3093,-3.1396,-3.1227,-3.1555,-3.1716,-3.1525,-3.1189,-3.1505,-3.2441,-3.1974,-3.0512,-2.841,-2.9265,-3.0387,-2.9457,-2.9247,-2.9247,-2.9247,-2.9247,-2.9352,0.0,0.0,0.0,0.0,0.0,0.0,0.0,0.0,0.0,0.0,0.0,0.0,0.0,0.0,0.0,0.0,0.0,-1.0849,-2.1211,-3.1055,-3.141,-3.1393,-3.119,-3.119,-3.119,-3.119,-3.119,-3.119,-3.119,-3.1173,-3.119,-3.1173,-3.119,-3.1173,-3.119,-3.119,-2.9922,-2.747,-2.9888,-3.1106,-3.0907,-3.0681,-3.0649,-3.0818,-2.9634,-2.8859,-2.8611,-2.8042,-2.8765,-3.1033,-3.0208,-2.9203,-2.8158,-2.7795,-2.7585,-2.7585,-2.7585,-2.7585,-2.76,-2.8201,-2.8847,-2.9397,-2.9741,-3.0423,-3.1647,-3.1596,-3.1496,-3.1496,-3.1436,-3.1555,-3.1809,-3.239,-3.2583,-3.2146,-3.308,-3.3498,-3.2795,-3.4527,-3.4946,-3.2656,-3.4211,-3.4424,-3.2159,-3.1011,-3.0985,-3.1753,-3.2241,-3.2107,-3.2311,-3.4087,-3.5571,-3.5278,-3.3406,-3.3102,-3.4295,-3.2202,-3.016,-2.9694,-3.1157,-3.1818,-3.1306,-3.1403,-3.1286,-3.0383,-3.0789,-3.0317,-2.8242,-2.7809,-2.8459,-2.8283,-2.8203,-2.7914,-2.7989,-2.8019,-2.8289,0.0,0.0,0.0,0.0,0.0,0.0,0.0,0.0,0.0,0.0,0.0,0.0,0.0,0.0,0.0,0.0,-0.0496,-1.0842,-2.1228,-3.0801,-3.119,-3.119,-3.119,-3.119,-3.119,-3.119,-3.119,-3.119,-3.1123,-3.0415,-2.9989,-3.0008,-3.0025,-3.0415,-3.1089,-3.0398,-2.8908,-2.6843,-2.9651,-3.119,-3.119,-3.119,-3.0532,-2.9184,-2.8451,-2.804,-2.7785,-2.744,-2.7869,-2.9078,-2.8616,-2.8102,-2.764,-2.7585,-2.7585,-2.757,-2.6926,-2.6512,-2.6497,-2.6811,-2.726,-2.7919,-2.8319,-2.8753,-2.9325,-3.0717,-3.1212,-3.0567,-3.0477,-3.0477,-3.0477,-3.0746,-3.0806,-3.0507,-3.1051,-3.1397,-3.1622,-3.2473,-3.2821,-3.1673,-3.1301,-3.0767,-2.9601,-2.8843,-2.8897,-3.0131,-3.0412,-3.0412,-3.0389,-3.1404,-3.2824,-3.3864,-3.2611,-3.1901,-3.2849,-3.1178,-2.956,-2.9406,-2.9888,-3.0305,-3.0145,-3.0206,-2.9452,-2.8779,-2.9462,-3.0071,-2.9323,-2.9569,-2.9569,-2.9355,-2.7635,-2.6986,-2.7315,-2.7585,-2.7705,0.0,0.0,0.0,0.0,0.0,0.0,0.0,0.0,0.0,0.0,0.0,0.0,0.0,0.0,0.0,0.0,0.0,-0.8356,-1.8944,-3.0395,-3.0954,-3.099,-3.1193,-3.119,-3.0852,-3.0279,-3.0176,-3.0194,-3.0076,-2.9365,-2.8993,-2.8993,-2.8993,-2.9585,-3.0668,-2.9585,-2.8248,-2.6962,-2.8991,-3.0176,-3.0192,-3.0818,-2.9832,-2.713,-2.6659,-2.6692,-2.6944,-2.6817,-2.6675,-2.655,-2.655,-2.6589,-2.6708,-2.6701,-2.6701,-2.6611,-2.5719,-2.53,-2.557,-2.56,-2.5824,-2.6348,-2.7136,-2.76,-2.7764,-2.9415,-3.0238,-2.9337,-2.9157,-2.9262,-2.9564,-2.9666,-2.9621,-2.9621,-2.9621,-3.0056,-3.0896,-3.1062,-3.0898,-3.0464,-2.8828,-2.772,-2.7585,-2.7585,-2.8024,-2.8787,-2.887,-2.876,-2.876,-2.8854,-2.9971,-3.1133,-3.1092,-3.0387,-3.0339,-2.9593,-2.907,-2.9189,-2.8598,-2.8582,-2.8729,-2.824,-2.7672,-2.77,-2.8285,-2.8672,-2.9366,-2.9209,-2.9005,-2.8521,-2.6994,-2.6051,-2.6806,-2.6851,-2.7031,0.0,0.0,0.0,0.0,0.0,0.0,0.0,0.0,0.0,0.0,0.0,0.0,0.0,0.0,0.0,0.0,0.0,0.0,-1.2135,-2.9279,-3.0262,-3.033,-3.1072,-3.1157,-2.9788,-2.7503,-2.7266,-2.7385,-2.7453,-2.8434,-2.8959,-2.8993,-2.8993,-2.901,-2.9162,-2.9044,-2.8231,-2.6742,-2.6945,-2.7097,-2.7266,-2.9786,-2.9349,-2.5513,-2.4482,-2.4499,-2.567,-2.5025,-2.4467,-2.4018,-2.4021,-2.3986,-2.4036,-2.3999,-2.3999,-2.4029,-2.3894,-2.4298,-2.5435,-2.56,-2.5585,-2.5779,-2.6791,-2.748,-2.7525,-2.7824,-2.7959,-2.7794,-2.7779,-2.8364,-2.9412,-2.9547,-2.9457,-2.9337,-2.9457,-2.9654,-2.9714,-2.9759,-2.9295,-2.8079,-2.7854,-2.7585,-2.7585,-2.754,-2.7615,-2.7788,-2.74,-2.7081,-2.7103,-2.7452,-2.7786,-2.8168,-2.7972,-2.7948,-2.7863,-2.7784,-2.774,-2.8447,-2.7702,-2.7439,-2.7858,-2.7825,-2.7381,-2.7143,-2.7427,-2.7058,-2.5443,-2.4307,-2.4667,-2.5486,-2.5377,-2.56,-2.5704,-2.5525,-2.5704,0.0,0.0,0.0,0.0,0.0,0.0,0.0,0.0,0.0,0.0,0.0,0.0,0.0,0.0,0.0,0.0,0.0,0.0,-0.7312,-2.0683,-2.6725,-2.9771,-2.989,-2.9907,-2.8756,-2.6826,-2.6708,-2.6708,-2.681,-2.7351,-2.7639,-2.7656,-2.7639,-2.7656,-2.7621,-2.7656,-2.73,-2.6725,-2.6708,-2.6708,-2.6826,-2.7875,-2.7748,-2.6147,-2.4476,-2.4139,-2.5114,-2.4733,-2.4142,-2.3659,-2.3595,-2.3595,-2.3595,-2.3595,-2.3595,-2.3595,-2.3595,-2.3834,-2.4373,-2.4418,-2.4575,-2.4963,-2.5136,-2.5548,-2.6378,-2.7136,-2.7315,-2.6632,-2.7111,-2.7869,-2.8334,-2.8423,-2.8274,-2.7989,-2.8169,-2.8423,-2.8423,-2.8423,-2.8154,-2.766,-2.7585,-2.7555,-2.7525,-2.7255,-2.7046,-2.6916,-2.6422,-2.6033,-2.6033,-2.6258,-2.6378,-2.6303,-2.5779,-2.527,-2.531,-2.5204,-2.5441,-2.5768,-2.6288,-2.6861,-2.7297,-2.6877,-2.6331,-2.6333,-2.6336,-2.57,-2.4163,-2.3625,-2.361,-2.3744,-2.3804,-2.4522,-2.4918,-2.5113,-2.5644,0.0,0.0,0.0,0.0,0.0,0.0,0.0,0.0,0.0,0.0,0.0,0.0,0.0,0.0,0.0,0.0,0.0,0.0,-0.4847,-1.3904,-2.4118,-2.8908,-2.8942,-2.8519,-2.7791,-2.686,-2.6708,-2.6708,-2.6708,-2.6708,-2.6708,-2.6708,-2.6708,-2.6708,-2.6708,-2.6708,-2.6708,-2.6708,-2.6708,-2.6708,-2.6708,-2.6708,-2.6556,-2.6193,-2.4839,-2.4287,-2.4712,-2.4374,-2.4158,-2.4053,-2.3752,-2.3595,-2.3595,-2.3595,-2.3595,-2.3595,-2.3595,-2.3475,-2.3266,-2.346,-2.3744,-2.4014,-2.3744,-2.3999,-2.4986,-2.5952,-2.6042,-2.5315,-2.5944,-2.6522,-2.7046,-2.7046,-2.6811,-2.6408,-2.6782,-2.7136,-2.757,-2.7585,-2.763,-2.757,-2.6791,-2.6686,-2.6896,-2.6617,-2.6333,-2.6258,-2.5764,-2.5345,-2.5277,-2.5173,-2.5038,-2.5031,-2.4208,-2.3759,-2.3595,-2.3801,-2.3595,-2.3809,-2.4889,-2.5716,-2.6398,-2.5615,-2.5047,-2.5,-2.5048,-2.4837,-2.3916,-2.3625,-2.3595,-2.3595,-2.3655,-2.3804,-2.4238,-2.4709,-2.4941,0.0,0.0,0.0,0.0,0.0,0.0,0.0,0.0,0.0,0.0,0.0,0.0,0.0,0.0,0.0,0.0,0.0,0.0,-0.4827,-1.3752,-2.2764,-2.7639,-2.884,-2.752,-2.6793,-2.6708,-2.6708,-2.6708,-2.6708,-2.6708,-2.6708,-2.6674,-2.6623,-2.6674,-2.6708,-2.6708,-2.6708,-2.6708,-2.6708,-2.6708,-2.6657,-2.6657,-2.6106,-2.5225,-2.5144,-2.4612,-2.3921,-2.3681,-2.4095,-2.507,-2.4199,-2.3623,-2.3616,-2.3595,-2.3595,-2.3595,-2.3565,-2.3206,-2.2622,-2.3086,-2.3325,-2.2987,-2.334,-2.364,-2.3834,-2.4044,-2.4059,-2.3759,-2.4014,-2.4522,-2.551,-2.5869,-2.5824,-2.5666,-2.5704,-2.6303,-2.733,-2.73,-2.7555,-2.7076,-2.5443,-2.4747,-2.5555,-2.5689,-2.5659,-2.5525,-2.5068,-2.4649,-2.4575,-2.4148,-2.3894,-2.3849,-2.3714,-2.3595,-2.3595,-2.3595,-2.3595,-2.3713,-2.3941,-2.413,-2.4128,-2.4109,-2.3921,-2.3794,-2.3946,-2.3924,-2.3684,-2.3595,-2.3595,-2.3595,-2.3595,-2.3744,-2.3864,-2.3714,-2.3909,0.0,0.0,0.0,0.0,0.0,0.0,0.0,0.0,0.0,0.0,0.0,0.0,0.0,0.0,0.0,0.0,0.0,0.0,-0.4841,-1.3735,-2.2595,-2.7013,-2.7385,-2.6928,-2.6708,-2.6708,-2.6708,-2.6708,-2.6708,-2.6708,-2.637,-2.5846,-2.5913,-2.6218,-2.6607,-2.6708,-2.6708,-2.6708,-2.6708,-2.6708,-2.6488,-2.5416,-2.4146,-2.3106,-2.3769,-2.4328,-2.4632,-2.4287,-2.445,-2.5182,-2.4831,-2.4307,-2.3687,-2.3595,-2.3595,-2.352,-2.2832,-2.2353,-2.2308,-2.2338,-2.2293,-2.2179,-2.3026,-2.355,-2.3595,-2.3595,-2.3595,-2.3595,-2.3595,-2.3894,-2.4313,-2.5076,-2.542,-2.5083,-2.5322,-2.5405,-2.5285,-2.5734,-2.6004,-2.5136,-2.4073,-2.3894,-2.4268,-2.4679,-2.4948,-2.4903,-2.438,-2.4036,-2.3932,-2.3714,-2.3595,-2.3595,-2.3595,-2.3595,-2.3595,-2.3595,-2.3595,-2.3595,-2.3683,-2.3756,-2.3788,-2.3815,-2.3698,-2.3713,-2.361,-2.3595,-2.3595,-2.3595,-2.3595,-2.3595,-2.3595,-2.3595,-2.3595,-2.3595,-2.3595,0.0,0.0,0.0,0.0,0.0,0.0,0.0,0.0,0.0,0.0,0.0,0.0,0.0,0.0,0.0,0.0,0.0,0.0,-0.3321,-0.989,-2.1224,-2.6708,-2.6708,-2.6708,-2.6708,-2.6708,-2.6708,-2.6268,-2.5423,-2.5744,-2.5693,-2.5271,-2.5254,-2.5473,-2.598,-2.642,-2.6708,-2.6708,-2.6708,-2.6436,-2.5577,-2.3506,-2.2209,-2.1874,-2.2394,-2.3163,-2.4021,-2.3714,-2.3921,-2.4538,-2.4692,-2.3982,-2.259,-2.3167,-2.3191,-2.2368,-2.153,-2.1156,-2.1455,-2.159,-2.162,-2.144,-2.2338,-2.2981,-2.2996,-2.3355,-2.3565,-2.3595,-2.3595,-2.3595,-2.3759,-2.4433,-2.4762,-2.4395,-2.4687,-2.4612,-2.3789,-2.4433,-2.4477,-2.3954,-2.3699,-2.361,-2.364,-2.4007,-2.4216,-2.4261,-2.3864,-2.3625,-2.3595,-2.3595,-2.3595,-2.3595,-2.3595,-2.3595,-2.3595,-2.3595,-2.3565,-2.355,-2.3595,-2.3595,-2.352,-2.3535,-2.352,-2.355,-2.3595,-2.3595,-2.3595,-2.3595,-2.3595,-2.3595,-2.3595,-2.3595,-2.3595,-2.3595,-2.3565,0.0,0.0,0.0,0.0,0.0,0.0,0.0,0.0,0.0,0.0,0.0,0.0,0.0,0.0,0.0,0.0,0.0,0.0,0.0,0.0,-1.8025,-2.5981,-2.6674,-2.6708,-2.6708,-2.664,-2.6573,-2.5084,-2.2868,-2.3898,-2.4611,-2.4933,-2.4628,-2.4491,-2.4508,-2.5609,-2.642,-2.6302,-2.6218,-2.5457,-2.3599,-2.1444,-2.0755,-2.1488,-2.1317,-2.1335,-2.1773,-2.1854,-2.2465,-2.3417,-2.3567,-2.2364,-2.0715,-2.2014,-2.2368,-2.0441,-1.9828,-1.9783,-1.9947,-2.0921,-2.1201,-2.0902,-2.1321,-2.168,-2.1799,-2.2577,-2.3281,-2.358,-2.346,-2.3475,-2.3475,-2.3625,-2.3714,-2.3625,-2.3819,-2.3744,-2.3655,-2.361,-2.3625,-2.358,-2.349,-2.3565,-2.358,-2.3595,-2.364,-2.3684,-2.3565,-2.346,-2.3475,-2.352,-2.3595,-2.349,-2.352,-2.3595,-2.3595,-2.358,-2.3535,-2.3505,-2.3565,-2.358,-2.34,-2.3325,-2.3161,-2.3176,-2.352,-2.355,-2.3595,-2.3595,-2.3595,-2.3595,-2.3595,-2.3565,-2.3595,-2.358,-2.3505,0.0,0.0,0.0,0.0,0.0,0.0,0.0,0.0,0.0,0.0,0.0,0.0,0.0,0.0,0.0,0.0,0.0,0.0,0.0,0.0,-1.2372,-2.1126,-2.5862,-2.6674,-2.6708,-2.6319,-2.4594,-2.3274,-2.2584,-2.2784,-2.3074,-2.3209,-2.3596,-2.3444,-2.3088,-2.346,-2.3663,-2.3663,-2.3663,-2.3295,-2.272,-2.1921,-2.144,-2.1148,-2.051,-2.0188,-2.0355,-2.1463,-2.2126,-2.2298,-2.2293,-2.1485,-2.0262,-2.0438,-2.0516,-1.9872,-1.9723,-1.9723,-1.9753,-2.0052,-2.0307,-2.0094,-2.0243,-2.0288,-2.0318,-2.0741,-2.1769,-2.3041,-2.2847,-2.2383,-2.2652,-2.2882,-2.3101,-2.3556,-2.3595,-2.3565,-2.3595,-2.3595,-2.3595,-2.3475,-2.2832,-2.2712,-2.3236,-2.3266,-2.3131,-2.3385,-2.3227,-2.2987,-2.3032,-2.3287,-2.3131,-2.2547,-2.2981,-2.3236,-2.2951,-2.2532,-2.2278,-2.2547,-2.2862,-2.3101,-2.3026,-2.2936,-2.2772,-2.2802,-2.3161,-2.3266,-2.3355,-2.3281,-2.3071,-2.334,-2.3325,-2.34,-2.355,-2.343,-2.3191,0.0,0.0,0.0,0.0,0.0,0.0,0.0,0.0,0.0,0.0,0.0,0.0,0.0,0.0,0.0,0.0,0.0,0.0,-0.1501,-0.4369,-0.9337,-1.7636,-2.5405,-2.5473,-2.5067,-2.4814,-2.3192,-2.2313,-2.2313,-2.2313,-2.2313,-2.2415,-2.2767,-2.2801,-2.2347,-2.2313,-2.2313,-2.2313,-2.2347,-2.2313,-2.2313,-2.2313,-2.1886,-2.1039,-2.0156,-1.9744,-1.9789,-2.0926,-2.1372,-2.1042,-2.0946,-2.0513,-1.9783,-1.9753,-1.9723,-1.9723,-1.9723,-1.9723,-1.9723,-1.9753,-1.9723,-1.9723,-1.9723,-1.9738,-1.9723,-1.9723,-2.0621,-2.1605,-2.141,-2.1186,-2.1724,-2.2113,-2.2473,-2.2832,-2.3086,-2.334,-2.3505,-2.3595,-2.3595,-2.3266,-2.2069,-2.162,-2.1784,-2.2637,-2.2532,-2.2817,-2.2562,-2.2328,-2.2403,-2.2607,-2.2188,-2.1754,-2.1684,-2.1829,-2.1934,-2.153,-2.1006,-2.141,-2.1949,-2.2218,-2.2373,-2.2308,-2.2218,-2.2188,-2.2413,-2.1904,-2.1889,-2.1754,-2.1635,-2.2203,-2.2637,-2.2712,-2.2622,-2.2682,-2.2517,0.0,0.0,0.0,0.0,0.0,0.0,0.0,0.0,0.0,0.0,0.0,0.0,0.0,0.0,0.0,0.0,0.0,0.0,-0.3806,-0.8593,-1.1756,-1.6654,-2.4982,-2.3934,-2.2888,-2.2651,-2.2415,-2.2313,-2.2313,-2.2313,-2.2313,-2.233,-2.2364,-2.233,-2.2313,-2.2313,-2.2313,-2.2313,-2.2313,-2.2313,-2.2313,-2.2313,-2.1796,-2.091,-2.012,-1.9723,-1.9792,-2.017,-2.0192,-1.9777,-1.9872,-1.9857,-1.9723,-1.9723,-1.9723,-1.9723,-1.9723,-1.9723,-1.9723,-1.9723,-1.9723,-1.9723,-1.9723,-1.9723,-1.9723,-1.9738,-1.9813,-2.0127,-1.9977,-2.0142,-2.0861,-2.1365,-2.1635,-2.1724,-2.2248,-2.2802,-2.3355,-2.3295,-2.2906,-2.2682,-2.1235,-1.9783,-2.0112,-2.125,-2.1724,-2.1919,-2.1769,-2.165,-2.1605,-2.1665,-2.159,-2.1235,-2.0756,-2.0711,-2.0872,-2.0782,-2.0333,-2.0543,-2.1055,-2.134,-2.1565,-2.1545,-2.1395,-2.141,-2.144,-2.0891,-2.0576,-2.0606,-2.0501,-2.0681,-2.107,-2.1445,-2.1799,-2.2009,-2.1919,0.0,0.0,0.0,0.0,0.0,0.0,0.0,0.0,0.0,0.0,0.0,0.0,0.0,0.0,0.0,0.0,0.0,0.0,-0.3989,-1.0199,-1.1113,-1.6316,-2.3187,-2.3257,-2.2313,-2.2313,-2.2313,-2.2313,-2.2313,-2.2313,-2.2313,-2.2313,-2.2313,-2.2313,-2.2313,-2.2313,-2.2313,-2.2313,-2.2313,-2.2313,-2.2313,-2.2313,-2.1539,-2.0156,-1.9833,-1.9723,-1.9723,-1.98,-1.9836,-1.9726,-1.9723,-1.9723,-1.9723,-1.9723,-1.9723,-1.9723,-1.9723,-1.9723,-1.9723,-1.9723,-1.9723,-1.9723,-1.9723,-1.9723,-1.9723,-1.9723,-1.9723,-1.9723,-1.9723,-1.9798,-2.0127,-2.0602,-2.0897,-2.1051,-2.1515,-2.1964,-2.1979,-2.1325,-2.0707,-2.0587,-2.0097,-1.9813,-1.9842,-2.0142,-2.0812,-2.1321,-2.1261,-2.0976,-2.0917,-2.0647,-2.0576,-2.0337,-1.9992,-1.9872,-1.9842,-1.9842,-1.9798,-1.9857,-2.0142,-2.0408,-2.0557,-2.0602,-2.0363,-2.0168,-2.0498,-2.0202,-2.0037,-1.9992,-1.9753,-1.9723,-2.0007,-2.0636,-2.1385,-2.1774,-2.141,0.0,0.0,0.0,0.0,0.0,0.0,0.0,0.0,0.0,0.0,0.0,0.0,0.0,0.0,0.0,0.0,0.0,0.0,0.0,-1.0791,-1.4513,-1.891,-2.2564,-2.2598,-2.2313,-2.2313,-2.2313,-2.2313,-2.2313,-2.2313,-2.2313,-2.2313,-2.2313,-2.2313,-2.2313,-2.2313,-2.2313,-2.2313,-2.2313,-2.2313,-2.2313,-2.2313,-2.1354,-2.0085,-1.9723,-1.9723,-1.9723,-1.9708,-1.9723,-1.9723,-1.9723,-1.9723,-1.9723,-1.9723,-1.9723,-1.9723,-1.9723,-1.9723,-1.9723,-1.9723,-1.9723,-1.9723,-1.9723,-1.9723,-1.9723,-1.9723,-1.9723,-1.9723,-1.9723,-1.9723,-1.9768,-2.0064,-2.0243,-2.0318,-2.0632,-2.0857,-2.0842,-2.0228,-1.9798,-1.9723,-1.9723,-1.9723,-1.9723,-1.9723,-2.0097,-2.0528,-2.0483,-2.0333,-2.0228,-1.9887,-1.9723,-1.9723,-1.9723,-1.9723,-1.9439,-1.9314,-1.9548,-1.9584,-1.9753,-1.9947,-1.9959,-1.9989,-1.9884,-1.9783,-1.9738,-1.9723,-1.9723,-1.9723,-1.9723,-1.9723,-1.9723,-1.9917,-2.0666,-2.116,-2.0812,0.0,0.0,0.0,0.0,0.0,0.0,0.0,0.0,0.0,0.0,0.0,0.0,0.0,0.0,0.0,0.0,0.0,0.0,0.0,-1.0064,-1.6447,-2.2127,-2.2212,-2.2431,-2.2313,-2.2313,-2.2313,-2.2313,-2.2313,-2.2313,-2.2313,-2.2313,-2.2313,-2.2313,-2.2313,-2.2313,-2.2313,-2.2313,-2.2313,-2.2034,-2.1812,-2.1676,-2.0975,-2.0013,-1.9723,-1.9723,-1.9723,-1.9723,-1.9723,-1.9723,-1.9723,-1.9723,-1.9723,-1.9723,-1.9723,-1.9723,-1.9723,-1.9723,-1.9723,-1.9723,-1.9723,-1.9723,-1.9723,-1.9723,-1.9723,-1.9723,-1.9723,-1.9723,-1.9723,-1.9723,-1.9723,-1.9753,-1.9798,-1.9857,-1.9813,-1.9753,-1.9723,-1.9723,-1.9723,-1.9723,-1.9723,-1.9723,-1.9723,-1.9723,-1.9753,-2.0112,-2.0007,-1.9992,-1.9962,-1.9813,-1.9723,-1.9723,-1.9723,-1.9723,-1.9295,-1.8874,-1.9188,-1.9424,-1.9636,-1.9798,-1.9798,-1.9813,-1.9768,-1.9723,-1.9723,-1.9723,-1.9723,-1.9723,-1.9723,-1.9723,-1.9723,-1.9723,-1.9872,-2.0187,-2.0127,0.0,0.0,0.0,0.0,0.0,0.0,0.0,0.0,0.0,0.0,0.0,0.0,0.0,0.0,0.0,0.0,0.0,0.0,0.0,-0.3624,-1.6633,-2.1671,-2.2296,-2.2313,-2.2313,-2.2313,-2.2313,-2.2313,-2.2313,-2.2313,-2.2282,-2.2254,-2.2268,-2.2299,-2.2254,-2.2268,-2.2313,-2.2296,-2.2254,-2.1493,-2.0581,-2.043,-2.0224,-1.9708,-1.9678,-1.9693,-1.9708,-1.9723,-1.9723,-1.9723,-1.9723,-1.9723,-1.9723,-1.9723,-1.9723,-1.9723,-1.9723,-1.9723,-1.9723,-1.9723,-1.9723,-1.9723,-1.9723,-1.9723,-1.9723,-1.9723,-1.9723,-1.9723,-1.9723,-1.9617,-1.9654,-1.969,-1.9672,-1.9654,-1.9636,-1.9672,-1.9723,-1.9723,-1.9723,-1.9723,-1.9723,-1.9705,-1.9672,-1.9584,-1.9603,-1.9672,-1.969,-1.9705,-1.9723,-1.9723,-1.9723,-1.9723,-1.9723,-1.969,-1.9493,-1.9062,-1.9099,-1.935,-1.9548,-1.9581,-1.9581,-1.9723,-1.9723,-1.9723,-1.9723,-1.9723,-1.9723,-1.9723,-1.9723,-1.9723,-1.9708,-1.9723,-1.9723,-1.9723,-1.9723,0.0,0.0,0.0,0.0,0.0,0.0,0.0,0.0,0.0,0.0,0.0,0.0,0.0,0.0,0.0,0.0,0.0,0.0,0.0,0.0,-0.9055,-1.5298,-2.2043,-2.2313,-2.2313,-2.2279,-2.2313,-2.2313,-2.2313,-2.2234,-2.2077,-2.1781,-2.2061,-2.2005,-2.1871,-2.2063,-2.2017,-2.1601,-2.126,-2.0565,-1.9836,-1.9723,-1.9723,-1.9603,-1.9453,-1.9348,-1.9663,-1.9723,-1.9723,-1.9723,-1.9723,-1.9723,-1.9723,-1.9723,-1.9723,-1.9723,-1.9723,-1.9723,-1.9723,-1.9723,-1.9723,-1.969,-1.9708,-1.9723,-1.9723,-1.9723,-1.9723,-1.9566,-1.9299,-1.9024,-1.9299,-1.9603,-1.9584,-1.9336,-1.9229,-1.9317,-1.9617,-1.9723,-1.9723,-1.9723,-1.9723,-1.9369,-1.9207,-1.9225,-1.9262,-1.9225,-1.9314,-1.935,-1.9723,-1.9723,-1.9723,-1.9723,-1.9723,-1.969,-1.9603,-1.9387,-1.9151,-1.9299,-1.946,-1.9387,-1.9277,-1.9493,-1.9723,-1.9723,-1.9723,-1.9723,-1.9723,-1.9723,-1.9708,-1.9678,-1.9678,-1.9693,-1.9663,-1.9588,-1.9618,0.0,0.0,0.0,0.0,0.0,0.0,0.0,0.0,0.0,0.0,0.0,0.0,0.0,0.0,0.0,0.0,0.0,0.0,0.0,0.0,0.0,0.0,-1.9169,-2.2313,-2.1823,-2.1772,-2.211,-2.2262,-2.2212,-2.1795,-2.1,-2.0956,-2.158,-2.1482,-2.1177,-2.1595,-2.1736,-2.1134,-2.0379,-1.9925,-1.9726,-1.9723,-1.9723,-1.9603,-1.8912,-1.8912,-1.9348,-1.9603,-1.9723,-1.9723,-1.9723,-1.9723,-1.9723,-1.9723,-1.9723,-1.9723,-1.9723,-1.9723,-1.9723,-1.969,-1.9657,-1.9603,-1.969,-1.9723,-1.9723,-1.9636,-1.935,-1.8855,-1.84,-1.8112,-1.8688,-1.9058,-1.9041,-1.8753,-1.8498,-1.8811,-1.9281,-1.9475,-1.942,-1.9723,-1.969,-1.9442,-1.8912,-1.865,-1.8727,-1.8803,-1.8897,-1.9062,-1.9439,-1.9675,-1.9657,-1.9708,-1.9723,-1.9136,-1.8949,-1.934,-1.9141,-1.8825,-1.9054,-1.8903,-1.8746,-1.88,-1.8999,-1.9618,-1.9723,-1.9648,-1.9663,-1.9723,-1.9693,-1.9633,-1.9303,-1.8957,-1.9061,-1.9346,-1.9348,0.0,0.0,0.0,0.0,0.0,0.0,0.0,0.0,0.0,0.0,0.0,0.0,0.0,0.0,0.0,0.0,0.0,0.0,0.0,0.0,0.0,0.0,-1.9355,-2.2161,-2.1045,-1.9794,-2.0623,-2.1874,-2.135,-1.9985,-1.9517,-2.0037,-2.0642,-2.0591,-2.0442,-2.0814,-2.1096,-2.0575,-2.001,-1.9726,-1.9723,-1.9558,-1.9393,-1.9241,-1.8328,-1.8296,-1.8807,-1.9378,-1.9723,-1.9723,-1.9723,-1.9723,-1.9618,-1.9618,-1.9513,-1.9693,-1.9558,-1.9483,-1.9678,-1.9645,-1.9442,-1.9277,-1.935,-1.9603,-1.9636,-1.9512,-1.8703,-1.7612,-1.7156,-1.7156,-1.8131,-1.8303,-1.8077,-1.7805,-1.7767,-1.8001,-1.8257,-1.8526,-1.8897,-1.9548,-1.9621,-1.9291,-1.8399,-1.8012,-1.8345,-1.8493,-1.8669,-1.8883,-1.924,-1.9431,-1.951,-1.9609,-1.9723,-1.8912,-1.816,-1.8765,-1.8942,-1.8229,-1.8123,-1.8007,-1.7888,-1.787,-1.8155,-1.8602,-1.9129,-1.9303,-1.9393,-1.9333,-1.8899,-1.827,-1.8119,-1.8026,-1.8341,-1.8583,-1.8388,0.0,0.0,0.0,0.0,0.0,0.0,0.0,0.0,0.0,0.0,0.0,0.0,0.0,0.0,0.0,0.0,0.0,0.0,0.0,0.0,0.0,-0.6897,-1.8983,-2.1164,-2.0302,-1.8932,-1.9338,-2.0082,-1.9862,-1.8674,-1.8273,-1.8851,-1.9709,-1.9863,-1.9481,-1.9996,-1.9932,-1.9562,-1.9504,-1.9633,-1.9543,-1.9091,-1.8448,-1.7701,-1.755,-1.7579,-1.7968,-1.7641,-1.8045,-1.8612,-1.9301,-1.9633,-1.9333,-1.8614,-1.833,-1.9214,-1.9044,-1.9014,-1.942,-1.942,-1.8975,-1.8579,-1.8755,-1.8845,-1.8688,-1.8263,-1.7625,-1.6783,-1.5885,-1.6127,-1.7107,-1.7254,-1.7005,-1.6651,-1.6684,-1.6858,-1.7152,-1.7667,-1.8389,-1.9002,-1.8299,-1.765,-1.7147,-1.7145,-1.7838,-1.8184,-1.8365,-1.8603,-1.8857,-1.8804,-1.8789,-1.9069,-1.9013,-1.8202,-1.7217,-1.7156,-1.7835,-1.741,-1.7217,-1.709,-1.6895,-1.6831,-1.6978,-1.7324,-1.7884,-1.8367,-1.7821,-1.7297,-1.7072,-1.6982,-1.686,-1.6933,-1.7488,-1.7728,-1.7501,0.0,0.0,0.0,0.0,0.0,0.0,0.0,0.0,0.0,0.0,0.0,0.0,0.0,0.0,0.0,0.0,0.0,0.0,0.0,0.0,0.0,-0.5815,-1.2517,-1.878,-1.9963,-1.8222,-1.802,-1.7789,-1.816,-1.7901,-1.7834,-1.8192,-1.9139,-1.9108,-1.8489,-1.897,-1.8502,-1.8269,-1.8287,-1.8869,-1.8612,-1.7879,-1.6877,-1.5948,-1.6278,-1.6816,-1.7324,-1.6652,-1.6608,-1.7341,-1.8134,-1.8794,-1.854,-1.6922,-1.6848,-1.8328,-1.7911,-1.8108,-1.8148,-1.8699,-1.8183,-1.7743,-1.7768,-1.776,-1.7559,-1.7055,-1.6434,-1.6191,-1.56,-1.5344,-1.6183,-1.6224,-1.5914,-1.5576,-1.5454,-1.5571,-1.5851,-1.6354,-1.7102,-1.7198,-1.6565,-1.6356,-1.6174,-1.5517,-1.6058,-1.7251,-1.7473,-1.7539,-1.7709,-1.7559,-1.7634,-1.8136,-1.8045,-1.7283,-1.63,-1.5142,-1.5717,-1.5927,-1.605,-1.6199,-1.5941,-1.5693,-1.586,-1.5933,-1.6335,-1.6608,-1.592,-1.5785,-1.6159,-1.6234,-1.5802,-1.5832,-1.6361,-1.6641,-1.6581,0.0,0.0,0.0,0.0,0.0,0.0,0.0,0.0,0.0,0.0,0.0,0.0,0.0,0.0,0.0,0.0,0.0,0.0,0.0,0.0,0.0,0.0,-0.4395,-1.381,-1.7918,-1.7974,-1.8008,-1.7789,-1.7789,-1.7789,-1.7755,-1.7881,-1.7921,-1.7821,-1.7545,-1.7917,-1.7575,-1.6966,-1.6571,-1.6428,-1.6443,-1.6263,-1.6023,-1.5903,-1.5963,-1.6219,-1.6682,-1.6144,-1.6039,-1.6084,-1.6248,-1.6338,-1.6188,-1.6083,-1.5859,-1.6276,-1.634,-1.6219,-1.5886,-1.6721,-1.7267,-1.6923,-1.6904,-1.6628,-1.6528,-1.6307,-1.595,-1.5871,-1.5244,-1.5031,-1.5374,-1.5259,-1.4852,-1.4662,-1.46,-1.4265,-1.4249,-1.5034,-1.5807,-1.5412,-1.4788,-1.5446,-1.5752,-1.4849,-1.4284,-1.5563,-1.6548,-1.6591,-1.6601,-1.6469,-1.6081,-1.6445,-1.6414,-1.5686,-1.5489,-1.4316,-1.4239,-1.4604,-1.4877,-1.5193,-1.4931,-1.4618,-1.4294,-1.446,-1.4869,-1.531,-1.5215,-1.5314,-1.5654,-1.5639,-1.5404,-1.524,-1.5191,-1.5424,-1.5778,0.0,0.0,0.0,0.0,0.0,0.0,0.0,0.0,0.0,0.0,0.0,0.0,0.0,0.0,0.0,0.0,0.0,0.0,0.0,0.0,0.0,0.0,0.0,-1.1545,-1.767,-1.8189,-1.9152,-1.9203,-1.8515,-1.7721,-1.7686,-1.7318,-1.7394,-1.7271,-1.6863,-1.7054,-1.6767,-1.636,-1.6001,-1.5829,-1.5814,-1.5814,-1.5814,-1.5814,-1.5814,-1.5979,-1.6054,-1.6009,-1.5814,-1.5814,-1.5814,-1.5814,-1.5814,-1.5814,-1.5829,-1.5845,-1.5993,-1.5606,-1.4968,-1.5952,-1.6177,-1.6405,-1.6656,-1.7174,-1.651,-1.5924,-1.5463,-1.5086,-1.4829,-1.473,-1.4609,-1.4226,-1.3914,-1.3748,-1.3889,-1.3709,-1.3487,-1.3761,-1.4197,-1.3602,-1.33,-1.4189,-1.4848,-1.4258,-1.376,-1.4548,-1.5379,-1.5531,-1.5562,-1.5527,-1.5037,-1.4524,-1.4284,-1.3861,-1.3972,-1.3599,-1.3608,-1.3822,-1.3822,-1.402,-1.3839,-1.3561,-1.3497,-1.3459,-1.3842,-1.4202,-1.4454,-1.4968,-1.5404,-1.5299,-1.5089,-1.4907,-1.4768,-1.5088,-1.5412,0.0,0.0,0.0,0.0,0.0,0.0,0.0,0.0,0.0,0.0,0.0,0.0,0.0,0.0,0.0,0.0,0.0,0.0,0.0,0.0,0.0,0.0,0.0,-0.9477,-1.4436,-1.78,-1.9338,-1.9119,-1.7848,-1.7199,-1.7005,-1.6789,-1.694,-1.6792,-1.6503,-1.6421,-1.6296,-1.5944,-1.5857,-1.5814,-1.5814,-1.5814,-1.5814,-1.5814,-1.5814,-1.5814,-1.5814,-1.5814,-1.5814,-1.5814,-1.5814,-1.5814,-1.5814,-1.5814,-1.5814,-1.5799,-1.5861,-1.5625,-1.5259,-1.556,-1.5677,-1.5941,-1.6172,-1.6408,-1.5595,-1.529,-1.5195,-1.458,-1.4219,-1.413,-1.3985,-1.3576,-1.3403,-1.3341,-1.3325,-1.324,-1.3253,-1.35,-1.3645,-1.3415,-1.321,-1.321,-1.3624,-1.3432,-1.3446,-1.3815,-1.4155,-1.4469,-1.4551,-1.4595,-1.4277,-1.371,-1.3569,-1.3301,-1.3301,-1.3301,-1.3245,-1.321,-1.321,-1.3245,-1.3318,-1.3318,-1.3301,-1.3262,-1.321,-1.3404,-1.3852,-1.4533,-1.5104,-1.4596,-1.423,-1.4374,-1.4454,-1.4814,-1.521,0.0,0.0,0.0,0.0,0.0,0.0,0.0,0.0,0.0,0.0,0.0,0.0,0.0,0.0,0.0,0.0,0.0,0.0,0.0,0.0,0.0,0.0,0.0,0.0,-0.8029,-1.6431,-1.8667,-1.7767,-1.6402,-1.6365,-1.6474,-1.6699,-1.6594,-1.6421,-1.6232,-1.608,-1.6026,-1.5814,-1.5814,-1.5814,-1.5814,-1.5814,-1.5814,-1.5814,-1.5814,-1.5814,-1.5814,-1.5814,-1.5814,-1.5814,-1.5814,-1.5814,-1.5814,-1.5814,-1.5814,-1.5814,-1.561,-1.5463,-1.5415,-1.5315,-1.5305,-1.5304,-1.5278,-1.5201,-1.4624,-1.3745,-1.3685,-1.4214,-1.3818,-1.3644,-1.3634,-1.3522,-1.3262,-1.321,-1.321,-1.321,-1.321,-1.324,-1.3325,-1.324,-1.321,-1.321,-1.321,-1.321,-1.321,-1.3559,-1.3571,-1.386,-1.376,-1.3735,-1.3622,-1.3342,-1.333,-1.3228,-1.3228,-1.321,-1.321,-1.321,-1.321,-1.321,-1.3245,-1.321,-1.321,-1.321,-1.321,-1.321,-1.3245,-1.3815,-1.4049,-1.3564,-1.3463,-1.4068,-1.4533,-1.4936,-1.5314,0.0,0.0,0.0,0.0,0.0,0.0,0.0,0.0,0.0,0.0,0.0,0.0,0.0,0.0,0.0,0.0,0.0,0.0,0.0,0.0,0.0,0.0,0.0,0.0,-0.6212,-1.5078,-1.7479,-1.7681,-1.7179,-1.6203,-1.5941,-1.6123,-1.6246,-1.615,-1.5996,-1.5899,-1.5842,-1.5814,-1.5814,-1.5814,-1.5814,-1.5814,-1.5814,-1.5814,-1.5814,-1.5814,-1.5814,-1.5814,-1.5814,-1.5814,-1.5814,-1.5814,-1.5814,-1.5814,-1.5814,-1.5712,-1.5389,-1.5104,-1.5134,-1.5085,-1.501,-1.4645,-1.4624,-1.4628,-1.4356,-1.3852,-1.3442,-1.3463,-1.3459,-1.3374,-1.3352,-1.3331,-1.321,-1.321,-1.321,-1.321,-1.321,-1.321,-1.321,-1.321,-1.321,-1.321,-1.321,-1.321,-1.321,-1.3248,-1.3223,-1.3198,-1.3148,-1.3198,-1.321,-1.321,-1.321,-1.321,-1.321,-1.321,-1.321,-1.321,-1.321,-1.321,-1.321,-1.321,-1.321,-1.321,-1.321,-1.321,-1.321,-1.321,-1.321,-1.3215,-1.3682,-1.4342,-1.4721,-1.5001,-1.5286,0.0,0.0,0.0,0.0,0.0,0.0,0.0,0.0,0.0,0.0,0.0,0.0,0.0,0.0,0.0,0.0,0.0,0.0,0.0,0.0,0.0,0.0,0.0,0.0,-0.3893,-1.2154,-1.6996,-1.7658,-1.6872,-1.6176,-1.5942,-1.5927,-1.5997,-1.5955,-1.5899,-1.5814,-1.5814,-1.5814,-1.5814,-1.5814,-1.5814,-1.5814,-1.5814,-1.5814,-1.5814,-1.5814,-1.5814,-1.5814,-1.5814,-1.5814,-1.5814,-1.5814,-1.5814,-1.5814,-1.5814,-1.5522,-1.5059,-1.4533,-1.458,-1.4658,-1.4705,-1.4454,-1.4443,-1.4821,-1.4845,-1.4068,-1.3357,-1.325,-1.3245,-1.321,-1.321,-1.321,-1.321,-1.321,-1.321,-1.321,-1.321,-1.321,-1.321,-1.321,-1.321,-1.3198,-1.3185,-1.3185,-1.316,-1.3173,-1.3198,-1.3073,-1.2847,-1.2973,-1.321,-1.321,-1.321,-1.321,-1.321,-1.3198,-1.3198,-1.321,-1.321,-1.321,-1.321,-1.3185,-1.3198,-1.321,-1.321,-1.321,-1.3198,-1.3173,-1.3185,-1.321,-1.3794,-1.4409,-1.4494,-1.4732,-1.5022,0.0,0.0,0.0,0.0,0.0,0.0,0.0,0.0,0.0,0.0,0.0,0.0,0.0,0.0,0.0,0.0,0.0,0.0,0.0,0.0,0.0,0.0,0.0,0.0,0.0,0.0,-1.1073,-1.7248,-1.6231,-1.6108,-1.5955,-1.5814,-1.587,-1.5856,-1.5814,-1.5814,-1.5814,-1.5814,-1.5814,-1.5814,-1.5814,-1.5799,-1.5784,-1.5455,-1.5455,-1.541,-1.5589,-1.5589,-1.5634,-1.5799,-1.5814,-1.5814,-1.5814,-1.5814,-1.5814,-1.5741,-1.4968,-1.4549,-1.4485,-1.4501,-1.439,-1.4374,-1.439,-1.4533,-1.4374,-1.3749,-1.321,-1.321,-1.321,-1.321,-1.321,-1.321,-1.321,-1.321,-1.321,-1.321,-1.321,-1.321,-1.321,-1.321,-1.3198,-1.3185,-1.3173,-1.3148,-1.311,-1.3123,-1.3173,-1.2973,-1.2572,-1.2563,-1.2751,-1.2922,-1.2885,-1.2588,-1.2559,-1.3048,-1.3185,-1.3198,-1.3148,-1.3085,-1.3073,-1.3077,-1.3085,-1.3173,-1.321,-1.321,-1.316,-1.314,-1.275,-1.2468,-1.3683,-1.4314,-1.4363,-1.4584,-1.4987,0.0,0.0,0.0,0.0,0.0,0.0,0.0,0.0,0.0,0.0,0.0,0.0,0.0,0.0,0.0,0.0,0.0,0.0,0.0,0.0,0.0,0.0,0.0,0.0,0.0,0.0,-1.1124,-1.7658,-1.7224,-1.663,-1.6122,-1.5942,-1.5739,-1.5814,-1.5814,-1.5814,-1.5814,-1.5814,-1.5814,-1.5814,-1.5814,-1.5754,-1.5409,-1.4646,-1.4543,-1.4677,-1.5127,-1.5159,-1.5353,-1.5724,-1.5814,-1.5814,-1.5814,-1.5814,-1.5814,-1.5639,-1.4997,-1.439,-1.4084,-1.3901,-1.3802,-1.4019,-1.4262,-1.4149,-1.3702,-1.3429,-1.3232,-1.321,-1.321,-1.321,-1.321,-1.321,-1.321,-1.321,-1.321,-1.321,-1.321,-1.321,-1.321,-1.321,-1.3198,-1.2689,-1.2475,-1.2651,-1.2701,-1.2463,-1.2384,-1.2284,-1.1961,-1.1914,-1.2015,-1.2325,-1.235,-1.1936,-1.1886,-1.2685,-1.2998,-1.291,-1.286,-1.2814,-1.2839,-1.2789,-1.2985,-1.3073,-1.3148,-1.3198,-1.3073,-1.2763,-1.1746,-1.1669,-1.3343,-1.4322,-1.4408,-1.4766,-1.5265,0.0,0.0,0.0,0.0,0.0,0.0,0.0,0.0,0.0,0.0,0.0,0.0,0.0,0.0,0.0,0.0,0.0,0.0,0.0,0.0,0.0,0.0,0.0,0.0,0.0,0.0,-1.0852,-1.7743,-1.7635,-1.708,-1.6448,-1.5895,-1.5574,-1.5604,-1.5679,-1.5814,-1.5814,-1.5814,-1.5814,-1.5814,-1.5814,-1.5649,-1.5155,-1.4111,-1.3593,-1.3523,-1.4249,-1.4678,-1.4942,-1.5503,-1.5785,-1.5785,-1.5755,-1.5799,-1.5799,-1.558,-1.469,-1.4035,-1.3632,-1.3446,-1.3463,-1.3632,-1.3904,-1.3752,-1.3323,-1.3232,-1.3228,-1.321,-1.3185,-1.3185,-1.3173,-1.3185,-1.321,-1.321,-1.321,-1.321,-1.321,-1.321,-1.321,-1.321,-1.3023,-1.2438,-1.1826,-1.2027,-1.2203,-1.1876,-1.156,-1.1447,-1.1397,-1.1412,-1.1301,-1.1425,-1.1761,-1.156,-1.1823,-1.2685,-1.2835,-1.2676,-1.2551,-1.2438,-1.2303,-1.2228,-1.2601,-1.2985,-1.3073,-1.3085,-1.2897,-1.245,-1.2125,-1.2526,-1.378,-1.4413,-1.4483,-1.4811,-1.523,0.0,0.0,0.0,0.0,0.0,0.0,0.0,0.0,0.0,0.0,0.0,0.0,0.0,0.0,0.0,0.0,0.0,0.0,0.0,0.0,0.0,0.0,0.0,0.0,0.0,0.0,-1.0751,-1.7789,-1.7715,-1.6548,-1.5916,-1.5654,-1.5035,-1.508,-1.529,-1.5424,-1.526,-1.5005,-1.4884,-1.4839,-1.4809,-1.5065,-1.4363,-1.3408,-1.2766,-1.2959,-1.3539,-1.4031,-1.4641,-1.5211,-1.5668,-1.5639,-1.5668,-1.5785,-1.5799,-1.5239,-1.3954,-1.3531,-1.3276,-1.319,-1.3178,-1.3285,-1.3318,-1.3215,-1.3215,-1.3185,-1.306,-1.3035,-1.2998,-1.3073,-1.314,-1.3173,-1.321,-1.321,-1.321,-1.321,-1.321,-1.321,-1.321,-1.3135,-1.296,-1.2425,-1.1538,-1.149,-1.1688,-1.1171,-1.0908,-1.0896,-1.0883,-1.1035,-1.0822,-1.0344,-1.0708,-1.1119,-1.1608,-1.2046,-1.2337,-1.2037,-1.2049,-1.1949,-1.1804,-1.1892,-1.235,-1.2747,-1.2973,-1.281,-1.2099,-1.248,-1.3237,-1.3832,-1.4326,-1.4424,-1.448,-1.4574,-1.4901,0.0,0.0,0.0,0.0,0.0,0.0,0.0,0.0,0.0,0.0,0.0,0.0,0.0,0.0,0.0,0.0,0.0,0.0,0.0,0.0,0.0,0.0,0.0,0.0,0.0,0.0,-1.0244,-1.6671,-1.7158,-1.5978,-1.5095,-1.4913,-1.4393,-1.4348,-1.4393,-1.4391,-1.3867,-1.3448,-1.3355,-1.3355,-1.328,-1.3313,-1.2852,-1.2445,-1.2175,-1.2452,-1.2989,-1.3191,-1.3796,-1.4611,-1.4836,-1.4705,-1.397,-1.4967,-1.5536,-1.4035,-1.3408,-1.3215,-1.3135,-1.2835,-1.271,-1.2973,-1.3085,-1.3198,-1.321,-1.2922,-1.2647,-1.2425,-1.2488,-1.2538,-1.2689,-1.2801,-1.2877,-1.2927,-1.2952,-1.301,-1.2998,-1.3002,-1.2964,-1.2563,-1.2397,-1.1886,-1.1035,-1.1138,-1.1224,-1.062,-1.0293,-1.033,-1.0381,-1.0545,-1.0533,-1.0018,-1.0005,-1.0532,-1.0419,-1.0733,-1.1173,-1.1437,-1.1538,-1.1701,-1.1826,-1.1989,-1.2287,-1.2578,-1.2862,-1.2004,-1.077,-1.1601,-1.2943,-1.3891,-1.4404,-1.4429,-1.4474,-1.4467,-1.4694,0.0,0.0,0.0,0.0,0.0,0.0,0.0,0.0,0.0,0.0,0.0,0.0,0.0,0.0,0.0,0.0,0.0,0.0,0.0,0.0,0.0,0.0,0.0,0.0,0.0,0.0,0.0,-1.1513,-1.4529,-1.5091,-1.4109,-1.4288,-1.3737,-1.366,-1.363,-1.3334,-1.2643,-1.222,-1.1935,-1.1816,-1.1816,-1.1816,-1.1816,-1.1816,-1.1816,-1.2134,-1.2459,-1.2484,-1.2876,-1.3636,-1.3787,-1.3785,-1.3301,-1.4198,-1.4564,-1.3268,-1.2742,-1.2651,-1.2592,-1.2316,-1.2278,-1.2325,-1.2488,-1.2212,-1.1911,-1.1535,-1.1299,-1.1123,-1.1538,-1.1874,-1.2112,-1.2325,-1.2425,-1.2542,-1.2638,-1.2735,-1.2722,-1.2714,-1.2363,-1.1886,-1.1475,-1.101,-1.0784,-1.0922,-1.0834,-1.0319,-1.0081,-1.0106,-1.0093,-1.0118,-1.0168,-0.9943,-0.9893,-1.0043,-0.9968,-1.0093,-1.0408,-1.0985,-1.1351,-1.1512,-1.1763,-1.1927,-1.2052,-1.2402,-1.2797,-1.206,-1.1473,-1.1549,-1.2489,-1.3335,-1.3827,-1.3627,-1.3694,-1.401,-1.4382,0.0,0.0,0.0,0.0,0.0,0.0,0.0,0.0,0.0,0.0,0.0,0.0,0.0,0.0,0.0,0.0,0.0,0.0,0.0,0.0,0.0,0.0,0.0,0.0,0.0,0.0,0.0,-0.7431,-1.2407,-1.3602,-1.3361,-1.3648,-1.3059,-1.2909,-1.3095,-1.2512,-1.2029,-1.1935,-1.1816,-1.1816,-1.1816,-1.1816,-1.1816,-1.1816,-1.1847,-1.194,-1.2024,-1.1984,-1.1868,-1.2367,-1.2686,-1.2902,-1.328,-1.2779,-1.2784,-1.278,-1.2087,-1.1826,-1.1826,-1.1688,-1.1437,-1.1349,-1.1276,-1.1035,-1.0758,-1.0595,-1.0433,-1.0383,-1.0758,-1.1134,-1.1397,-1.1789,-1.1989,-1.204,-1.2102,-1.2262,-1.2388,-1.2037,-1.1284,-1.0958,-1.0897,-1.047,-1.0307,-1.0408,-1.0445,-1.0005,-0.9918,-0.9943,-0.9943,-0.9893,-0.9893,-0.9893,-0.9893,-1.0068,-1.077,-1.0758,-1.0194,-1.0471,-1.1025,-1.1299,-1.1525,-1.165,-1.1754,-1.2167,-1.2612,-1.3141,-1.2979,-1.2579,-1.212,-1.2444,-1.2773,-1.2595,-1.2802,-1.3284,-1.3799,0.0,0.0,0.0,0.0,0.0,0.0,0.0,0.0,0.0,0.0,0.0,0.0,0.0,0.0,0.0,0.0,0.0,0.0,0.0,0.0,0.0,0.0,0.0,0.0,0.0,0.0,0.0,-0.4461,-1.0745,-1.2416,-1.2568,-1.2924,-1.2456,-1.234,-1.2448,-1.1835,-1.182,-1.1816,-1.1816,-1.1816,-1.1816,-1.1816,-1.1816,-1.1816,-1.1828,-1.1832,-1.1834,-1.1623,-1.138,-1.1388,-1.1394,-1.2041,-1.3091,-1.16,-1.1733,-1.2459,-1.1397,-1.101,-1.1023,-1.1059,-1.091,-1.0772,-1.066,-1.027,-1.0018,-0.9918,-0.9893,-0.9893,-1.003,-1.0407,-1.0745,-1.1173,-1.149,-1.1502,-1.1502,-1.1726,-1.1964,-1.1173,-1.0281,-1.0219,-1.0256,-1.0131,-0.9943,-0.9893,-0.9893,-0.9893,-0.9893,-0.9905,-0.9905,-0.9893,-0.9893,-0.9893,-0.9893,-1.0219,-1.1159,-1.136,-1.0772,-1.0597,-1.105,-1.1224,-1.1372,-1.1685,-1.2027,-1.208,-1.2408,-1.2583,-1.2594,-1.2402,-1.2106,-1.2218,-1.1812,-1.1682,-1.2005,-1.2484,-1.2981,0.0,0.0,0.0,0.0,0.0,0.0,0.0,0.0,0.0,0.0,0.0,0.0,0.0,0.0,0.0,0.0,0.0,0.0,0.0,0.0,0.0,0.0,0.0,0.0,0.0,0.0,0.0,-0.331,-0.8438,-1.1707,-1.2115,-1.2295,-1.195,-1.1816,-1.1816,-1.1816,-1.1816,-1.1816,-1.1816,-1.1816,-1.1816,-1.1816,-1.1816,-1.1816,-1.1816,-1.1816,-1.1692,-1.1479,-1.1187,-1.0837,-1.0717,-1.073,-1.1255,-1.0634,-1.0659,-1.1008,-1.0684,-1.0069,-1.037,-1.0483,-1.0445,-1.0358,-1.027,-0.9943,-0.9943,-0.9893,-0.9893,-0.9893,-0.9893,-1.0206,-1.0244,-1.0571,-1.0621,-1.0621,-1.0621,-1.0747,-1.0809,-1.0458,-1.0044,-1.003,-1.0043,-1.0018,-0.9893,-0.9893,-0.9893,-0.9893,-0.9893,-0.9893,-0.9893,-0.9893,-0.9893,-0.9893,-0.9893,-1.0858,-1.2196,-1.2037,-1.1299,-1.1211,-1.1188,-1.1676,-1.2062,-1.2162,-1.2312,-1.2266,-1.1942,-1.1314,-1.1333,-1.1633,-1.2058,-1.2257,-1.1556,-1.0792,-1.1255,-1.1674,-1.1939,0.0,0.0,0.0,0.0,0.0,0.0,0.0,0.0,0.0,0.0,0.0,0.0,0.0,0.0,0.0,0.0,0.0,0.0,0.0,0.0,0.0,0.0,0.0,0.0,0.0,0.0,0.0,0.0,-0.1868,-0.7353,-1.1831,-1.1816,-1.1816,-1.1816,-1.1816,-1.1816,-1.1816,-1.1816,-1.1816,-1.1816,-1.1816,-1.1816,-1.1816,-1.1816,-1.1816,-1.1816,-1.1703,-1.149,-1.1199,-1.1022,-1.0678,-1.0468,-1.0496,-1.0392,-1.0212,-1.0379,-1.0456,-1.0097,-1.0071,-1.0122,-1.0045,-0.9943,-0.9905,-0.9893,-0.9893,-0.9893,-0.9893,-0.9893,-0.9893,-0.9905,-0.9943,-0.9968,-0.9981,-0.9993,-0.9993,-0.9993,-0.9968,-0.9931,-0.9918,-0.9893,-0.9893,-0.9893,-0.9893,-0.9893,-0.9893,-0.9893,-0.9893,-0.9893,-0.9893,-0.9893,-0.9893,-0.9893,-0.9893,-1.1171,-1.2835,-1.2312,-1.1374,-1.1575,-1.16,-1.2237,-1.2601,-1.2275,-1.2162,-1.2325,-1.1876,-1.1098,-1.0913,-1.1206,-1.1647,-1.2128,-1.1668,-1.0949,-1.0677,-1.1002,-1.0886,0.0,0.0,0.0,0.0,0.0,0.0,0.0,0.0,0.0,0.0,0.0,0.0,0.0,0.0,0.0,0.0,0.0,0.0,0.0,0.0,0.0,0.0,0.0,0.0,0.0,0.0,0.0,0.0,0.0,-0.7368,-1.1801,-1.179,-1.1816,-1.1816,-1.1816,-1.1816,-1.1816,-1.1816,-1.1816,-1.1816,-1.1816,-1.1816,-1.1816,-1.1816,-1.1816,-1.1816,-1.1725,-1.1479,-1.149,-1.1501,-1.1352,-1.0784,-1.0519,-1.064,-1.0724,-1.0409,-1.0446,-1.0311,-1.0248,-1.0135,-1.0084,-0.9905,-0.9893,-0.9893,-0.9893,-0.9893,-0.9893,-0.9893,-0.9893,-0.9893,-0.9918,-0.9918,-0.9918,-0.9918,-0.9918,-0.9918,-0.9905,-0.9905,-0.9893,-0.9893,-0.9893,-0.9893,-0.9893,-0.9893,-0.9893,-0.9893,-0.9893,-0.9893,-0.9893,-0.9893,-0.9893,-0.9893,-0.9893,-1.1232,-1.2735,-1.2002,-1.1326,-1.1615,-1.1842,-1.2121,-1.2172,-1.1955,-1.1902,-1.2052,-1.1738,-1.1062,-1.1004,-1.1035,-1.1339,-1.1749,-1.1705,-1.1315,-1.0851,-1.056,-1.0612]},{"header":{"parameterUnit":"m.s-1","parameterCategory":1,"la1":31.0,"la2":29.5877,"lo1":-88.7671,"lo2":-86.6584,"dy":0.0162,"dx":0.0185,"nx":115,"ny":88,"refTime":"2023-07-19T18:00:00:Z","depth":0,"parameterNumber":3,"parameterNumberName":"V-component_of_WINDS"},"data":[0.0,0.0,0.0,0.0,0.0,0.0,0.0,0.0,0.0,0.0,0.0,0.0,0.0,0.0,0.0,0.0,0.0,0.0,0.0,0.0,0.0,0.0,0.0,0.0,0.0,0.0,0.0,0.0,0.0,0.0,0.0,0.0,0.0,0.0,0.0,0.0,0.0,0.0,0.0,0.0,0.0,0.0,0.0,0.0,0.0,0.0,0.0,0.0,0.0,0.0,0.0,0.0,0.0,0.0,0.0,0.0,0.0,0.0,0.0,0.0,0.0,0.0,0.0,0.0,0.0,0.0,0.0,0.0,0.0,0.0,0.0,0.0,0.0,0.0,0.0,0.0,0.0,0.0,0.0,0.0,0.0,0.0,0.0,0.0,0.0,0.0,0.0,0.0,0.0,0.0,0.0,0.0,0.0,0.0,0.0,0.0,0.0,0.0,0.0,0.0,0.0,0.0,0.0,0.0,0.0,0.0,0.0,0.0,0.0,0.0,0.0,0.0,0.0,0.0,0.0,0.0,0.0,0.0,0.0,0.0,0.0,0.0,0.0,0.0,0.0,0.0,0.0,0.0,0.0,0.0,0.0,0.0,0.0,0.0,0.0,0.0,0.0,0.0,0.0,0.0,0.0,0.0,0.0,0.0,0.0,0.0,0.0,0.0,0.0,0.0,0.0,0.0,0.0,0.0,0.0,0.0,0.0,0.0,0.0,0.0,0.0,0.0,0.0,0.0,0.0,0.0,0.0,0.0,0.0,0.0,0.0,0.0,0.0,0.0,0.0,0.0,0.0,0.0,0.0,0.0,0.0,0.0,0.0,0.0,0.0,0.0,0.0,0.0,0.0,0.0,0.0,0.0,0.0,0.0,0.0,0.0,0.0,0.0,0.0,0.0,0.0,0.0,0.0,0.0,0.0,0.0,0.0,0.0,0.0,0.0,0.0,0.0,0.0,0.0,0.0,0.0,0.0,0.0,0.0,0.0,0.0,0.0,0.0,0.0,0.0,0.0,0.0,0.0,0.0,0.0,0.0,0.0,0.0,0.0,0.0,0.0,0.0,0.0,0.0,0.0,0.0,0.0,0.0,0.0,0.0,0.0,0.0,0.0,0.0,0.0,0.0,0.0,0.0,0.0,0.0,0.0,0.0,0.0,0.0,0.0,0.0,0.0,0.0,0.0,0.0,0.0,0.0,0.0,0.0,0.0,0.0,0.0,0.0,0.0,0.0,0.0,0.0,0.0,0.0,0.0,0.0,0.0,0.0,0.0,0.0,0.0,0.0,0.0,0.0,0.0,0.0,0.0,0.0,0.0,0.0,0.0,0.0,0.0,0.0,0.0,0.0,0.0,0.0,0.0,0.0,0.0,0.0,0.0,0.0,0.0,0.0,0.0,0.0,0.0,0.0,0.0,0.0,0.0,0.0,0.0,0.0,0.0,0.0,0.0,0.0,0.0,0.0,0.0,0.0,0.0,0.0,0.0,0.0,0.0,0.0,0.0,0.0,0.0,0.0,0.0,0.0,0.0,0.0,0.0,0.0,0.0,0.0,0.0,0.0,0.0,0.0,0.0,0.0,0.0,0.0,0.0,0.0,0.0,0.0,0.0,0.0,0.0,0.0,0.0,0.0,0.0,0.0,0.0,0.0,0.0,0.0,0.0,0.0,0.0,0.0,0.0,0.0,0.0,0.0,0.0,0.0,0.0,0.0,0.0,0.0,0.0,0.0,0.0,0.0,0.0,0.0,0.0,0.0,0.0,0.0,0.0,0.0,0.0,0.0,0.0,0.0,0.0,0.0,0.0,0.0,0.0,0.0,0.0,0.0,0.0,0.0,0.0,0.0,0.0,0.0,0.0,0.0,0.0,0.0,0.0,0.0,0.0,0.0,0.0,0.0,0.0,0.0,0.0,0.0,0.0,0.0,0.0,0.0,0.0,0.0,0.0,0.0,0.0,0.0,0.0,0.0,0.0,0.0,0.0,0.0,0.0,0.0,0.0,0.0,0.0,0.0,0.0,0.0,0.0,0.0,0.0,0.0,0.0,0.0,0.0,0.0,0.0,0.0,0.0,0.0,0.0,0.0,0.0,0.0,0.0,0.0,0.0,0.0,0.0,0.0,0.0,0.0,0.0,0.0,0.0,0.0,0.0,0.0,0.0,0.0,0.0,0.0,0.0,0.0,0.0,0.0,0.0,0.0,0.0,0.0,0.0,0.0,0.0,0.0,0.0,0.0,0.0,0.0,0.0,0.0,0.0,0.0,0.0,0.0,0.0,0.0,0.0,0.0,0.0,0.0,0.0,0.0,0.0,0.0,0.0,0.0,0.0,0.0,0.0,0.0,0.0,0.0,0.0,0.0,0.0,0.0,0.0,0.0,0.0,0.0,0.0,0.0,0.0,0.0,0.0,0.0,0.0,0.0,0.0,0.0,0.0,0.0,0.0,0.0,0.0,0.0,0.0,0.0,0.0,0.0,0.0,0.0,0.0,0.0,0.0,0.0,0.0,0.0,0.0,0.0,0.0,0.0,0.0,0.0,0.0,0.0,0.0,0.0,0.0,0.0,0.0,0.0,0.0,0.0,0.0,0.0,0.0,0.0,0.0,0.0,0.0,0.0,0.0,0.0,0.0,0.0,0.0,0.0,0.0,0.0,0.0,0.0,0.0,0.0,0.0,0.0,0.0,0.0,0.0,0.0,0.0,0.0,0.0,0.0,0.0,0.0,0.0,0.0,0.0,0.0,0.0,0.0,0.0,0.0,0.0,0.0,0.0,0.0,0.0,0.0,0.0,0.0,0.0,0.0,0.0,0.0,0.0,0.0,0.0,0.0,0.0,0.0,0.0,0.0,0.0,0.0,0.0,0.0,0.0,0.0,0.0,0.0,0.0,0.0,0.0,0.0,0.0,0.0,0.0,0.0,0.0,0.0,0.0,0.0,0.0,0.0,0.0,0.0,0.0,0.0,0.0,0.0,0.0,0.0,0.0,0.0,0.0,0.0,0.0,0.0,0.0,0.0,0.0,0.0,0.0,0.0,0.0,0.0,0.0,0.0,0.0,0.0,0.0,0.0,0.0,0.0,0.0,0.0,0.0,0.0,0.0,0.0,0.0,0.0,0.0,0.0,0.0,0.0,0.0,0.0,0.0,0.0,0.0,0.0,0.0,0.0,0.0,0.0,0.0,0.0,0.0,0.0,0.0,0.0,0.0,0.0,0.0,0.0,0.0,0.0,0.0,0.0,0.0,0.0,0.0,0.0,0.0,0.0,0.0,0.0,0.0,0.0,0.0,0.0,0.0,0.0,0.0,0.0,0.0,0.0,0.0,0.0,0.0,0.0,0.0,0.0,0.0,0.0,0.0,0.0,0.0,0.0,0.0,0.0,0.0,0.0,0.0,0.0,0.0,0.0,0.0,0.0,0.0,0.0,0.0,0.0,0.0,0.0,0.0,0.0,0.0,0.0,0.0,0.0,0.0,0.0,0.0,0.0,0.0,0.0,0.0,0.0,0.0,0.0,0.0,0.0,0.0,0.0,0.0,0.0,0.0,0.0,0.0,0.0,0.0,0.0,0.0,0.0,0.0,0.0,0.0,0.0,0.0,0.0,0.0,0.0,0.0,0.0,0.0,0.0,0.0,0.0,0.0,0.0,0.0,0.0,0.0,0.0,0.0,0.0,0.0,0.0,0.0,0.0,0.0,0.0,0.0,0.0,0.0,0.0,0.0,0.0,0.0,0.0,0.0,0.0,0.0,0.0,0.0,0.0,0.0,0.0,0.0,0.0,0.0,0.0,0.0,0.0,0.0,0.0,0.0,0.0,0.0,0.0,0.0,0.0,0.0,0.0,0.0,0.0,0.0,0.0,0.0,0.0,0.0,0.0,0.0,0.0,0.0,0.0,0.0,0.0,0.0,0.0,0.0,0.0,0.0,0.0,0.0,0.0,0.0,0.0,0.0,0.0,0.0,0.0,0.0,0.0,0.0,0.0,0.0,0.0,0.0,0.0,0.0,0.0,0.0,0.0,0.0,0.0,0.0,0.0,0.0,0.0,0.0,0.0,0.0,0.0,0.0,0.0,0.0,0.0,0.0,0.0,0.0,0.0,0.0,0.0,0.0,0.0,0.0,0.0,0.0,0.0,0.0,0.0,0.0,0.0,0.0,0.0,0.0,0.0,0.0,0.0,0.0,0.0,0.0,0.0,0.0,0.0,0.0,0.0,0.0,0.0,0.0,0.0,0.0,0.0,0.0,0.0,0.0,0.0,0.0,0.0,0.0,0.0,0.0,0.0,0.0,0.0,0.0,-0.2611,0.0,0.0,0.0,0.0,0.0,0.0,0.0,0.0,0.0,0.0,0.0,0.0,0.0,0.0,0.0,0.0,0.0,0.0,0.0,0.0,0.0,0.0,0.0,0.0,0.0,0.0,0.0,0.0,0.0,0.0,0.0,0.0,0.0,0.0,0.0,0.0,0.0,0.0,0.0,0.0,0.0,0.0,0.0,0.0,0.0,0.0,0.0,0.0,0.0,0.0,0.0,0.0,0.0,0.0,0.0,0.0,0.0,0.0,0.0,0.0,0.0,0.0,0.0,0.0,0.0,0.0,0.0,0.0,0.0,0.0,0.0,0.0,0.0,0.0,0.0,0.0,0.0,0.0,0.0,0.0,0.0,0.0,0.0,0.0,0.0,0.0,0.0,0.0,0.0,0.0,0.0,0.0,0.0,0.0,0.0,0.0,0.0,0.0,0.0,0.0,0.0,0.0,0.0,0.0,0.0,0.0,0.0,0.0,0.0,0.0,0.0,0.0,0.0,-0.0846,-0.2635,0.0,0.0,0.0,0.0,0.0,0.0,0.0,0.0,0.0,0.0,0.0,0.0,0.0,0.0,0.0,0.0,0.0,0.0,0.0,0.0,0.0,0.0,0.0,0.0,0.0,0.0,0.0,0.0,0.0,0.0,0.0,0.0,0.0,0.0,0.0,0.0,0.0,0.0,0.0,0.0,0.0,0.0,0.0,0.0,0.0,0.0,0.0,0.0,0.0,0.0,0.0,0.0,0.0,0.0,0.0,0.0,0.0,0.0,0.0,0.0,0.0,0.0,0.0,0.0,0.0,0.0,0.0,0.0,0.0,0.0,0.0,0.0,0.0,0.0,0.0,0.0,0.0,0.0,0.0,0.0,0.0,0.0,0.0,0.0,0.0,0.0,0.0,0.0,0.0,0.0,0.0,0.0,0.0,0.0,0.0,0.0,0.0,0.0,0.0,0.0,0.0,0.0,0.0,0.0,0.0,0.0,0.0,0.0,0.0,0.0,0.0,0.0,0.0,-0.0838,-0.2649,0.0,0.0,0.0,0.0,0.0,0.0,0.0,0.0,0.0,0.0,0.0,0.0,0.0,0.0,0.0,0.0,0.0,0.0,0.0,0.0,0.0,0.0,0.0,0.0,0.0,0.0,0.0,0.0,0.0,0.0,0.0,0.0,0.0,0.0,0.0,0.0,0.0,0.0,0.0,0.0,0.0,0.0,0.0,0.0,0.0,0.0,0.0,0.0,0.0,0.0,0.0,0.0,0.0,0.0,0.0,0.0,0.0,0.0,0.0,0.0,0.0,0.0,0.0,0.0,0.0,0.0,0.0,0.0,0.0,0.0,0.0,0.0,0.0,0.0,0.0,0.0,0.0,0.0,0.0,0.0,0.0,0.0,0.0,0.0,0.0,0.0,0.0,0.0,0.0,0.0,0.0,0.0,0.0,0.0,0.0,0.0,0.0,0.0,0.0,0.0,0.0,0.0,0.0,0.0,0.0,0.0,0.0,0.0,0.0,0.0,0.0,0.0,0.0,0.0,-0.263,0.0,0.0,0.0,0.0,0.0,0.0,0.0,0.0,0.0,0.0,0.0,0.0,0.0,0.0,0.0,0.0,0.0,0.0,0.0,0.0,0.0,0.0,0.0,0.0,0.0,0.0,0.0,0.0,0.0,0.0,0.0,0.0,0.0,0.0,0.0,0.0,0.0,0.0,0.0,0.0,0.0,0.0,0.0,0.0,0.0,0.0,0.0,0.0,0.0,0.0,0.0,0.0,0.0,0.0,0.0,0.0,0.0,0.0,0.0,0.0,0.0,0.0,0.0,0.0,0.0,0.0,0.0,0.0,0.0,0.0,0.0,0.0,0.0,0.0,0.0,0.0,0.0,0.0,0.0,0.0,0.0,0.0,0.0,0.0,0.0,0.0,0.0,0.0,0.0,0.0,0.0,0.0,0.0,0.0,0.0,0.0,0.0,0.0,0.0,0.0,0.0,0.0,0.0,0.0,0.0,0.0,0.0,0.0,0.0,0.0,0.0,0.0,-0.1019,-0.1943,0.0,0.0,0.0,0.0,0.0,0.0,0.0,0.0,0.0,0.0,0.0,0.0,0.0,0.0,0.0,0.0,0.0,0.0,0.0,0.0,0.0,0.0,0.0,0.0,0.0,0.0,0.0,0.0,0.0,0.0,0.0,0.0,0.0,0.0,0.0,0.0,0.0,0.0,0.0,0.0,0.0,0.0,0.0,0.0,0.0,0.0,0.0,0.0,0.0,0.0,0.0,0.0,0.0,0.0,0.0,0.0,0.0,0.0,0.0,0.0,0.0,0.0,0.0,0.0,0.0,0.0,0.0,0.0,0.0,0.0,0.0,0.0,0.0,0.0,0.0,0.0,0.0,0.0,0.0,0.0,0.0,0.0,0.0,0.0,0.0,0.0,0.0,0.0,0.0,0.0,0.0,0.0,0.0,0.0,0.0,0.0,0.0,0.0,0.0,0.0,0.0,0.0,0.0,0.0,0.0,0.0,0.0,0.0,0.0,0.0,0.1638,0.1176,0.0039,-0.1287,-0.2191,-0.2683,0.0,0.0,0.0,0.0,0.0,0.0,0.0,0.0,0.0,0.0,0.0,0.0,0.0,0.0,0.0,0.0,0.0,0.0,0.0,0.0,0.0,0.0,0.0,0.0,0.0,0.0,0.0,0.0,0.0,0.0,0.0,0.0,0.0,0.0,0.0,0.0,0.0,0.0,0.0,0.0,0.0,0.0,0.0,0.0,0.0,0.0,0.0,0.0,0.0,0.0,0.0,0.0,0.0,0.0,0.0,0.0,0.0,0.0,0.0,0.0,0.0,0.0,0.0,0.0,0.0,0.0,0.0,0.0,0.0,0.0,0.0,0.0,0.0,0.0,0.0,0.0,0.0,0.0,0.0,0.0,0.0,0.0,0.0,0.0,0.0,0.0,0.0,0.0,0.0,0.0,0.0,0.0,0.0,0.0,0.0,0.0,0.0,0.0,0.0,0.0,0.0,0.0,0.0,0.0,0.0,0.0,0.0,0.0,0.4976,0.5614,0.4027,0.0157,0.0,-0.0917,0.0,0.0,0.0,0.0,0.0,0.0,0.0,0.0,0.0,0.0,0.0,0.0,0.0,0.0,0.0,0.0,0.0,0.0,0.0,0.0,0.0,0.0,0.0,0.0,0.0,0.0,0.0,0.0,0.0,0.0,0.0,0.0,0.0,0.0,0.0,0.0,0.0,0.0,0.0,0.0,0.0,0.0,0.0,0.0,0.0,0.0,0.0,0.0,0.0,0.0,0.0,0.0,0.0,0.0,0.0,0.0,0.0,0.0,0.0,0.0,0.0,0.0,0.0,0.0,0.0,0.0,0.0,0.0,0.0,0.0,0.0,0.0,0.0,0.0,0.0,0.0,0.0,0.0,0.0,0.0,0.0,0.0,0.0,0.0,0.0,0.0,0.0,0.0,0.0,0.0,0.0,0.0,0.0,0.0,0.0,0.0,0.0,0.0,0.0,0.0,0.0,0.0,0.0,0.0,0.0,0.0,0.0,0.0,0.0,0.5082,0.3343,0.1566,0.0,0.0,-0.0843,0.0,0.0,0.0,0.0,0.0,0.0,0.0,0.0,0.0,0.0,0.0,0.0,0.0,0.0,0.0,0.0,0.0,0.0,0.0,0.0,0.0,0.0,0.0,0.0,0.0,0.0,0.0,0.0,0.0,0.0,0.0,0.0,0.0,0.0,0.0,0.0,0.0,0.0,0.0,0.0,0.0,0.0,0.0,0.0,0.0,0.0,0.0,0.0,0.0,0.0,0.0,0.0,0.0,0.0,0.0,0.0,0.0,0.0,0.0,0.0,0.0,0.0,0.0,0.0,0.0,0.0,0.0,0.0,0.0,0.0,0.0,0.0,0.0,0.0,0.0,0.0,0.0,0.0,0.0,0.0,0.0,0.0,0.0,0.0,0.0,0.0,0.0,0.0,0.0,0.0,0.0,0.0,0.0,0.0,0.0,0.0,0.0,0.0,0.0,0.0,0.0,0.0,0.0,0.0,0.0,0.0,0.0,0.0,0.0,0.5374,0.0,0.0,0.0,0.0,-0.0846,0.0,0.0,0.0,0.0,0.0,0.0,0.0,0.0,0.0,0.0,0.0,0.0,0.0,0.0,0.0,0.0,0.0,0.0,0.0,0.0,0.0,0.0,0.0,0.0,0.0,0.0,0.0,0.0,0.0,0.0,0.0,0.0,0.0,0.0,0.0,0.0,0.0,0.0,0.0,0.0,0.0,0.0,0.0,0.0,0.0,0.0,0.0,0.0,0.0,0.0,0.0,0.0,0.0,0.0,0.0,0.0,0.0,0.0,0.0,0.0,0.0,0.0,0.0,0.0,0.0,0.0,0.0,0.0,0.0,0.0,0.0,0.0,0.0,0.0,0.0,0.0,0.0,0.0,0.0,0.0,0.0,0.0,0.0,0.0,0.0,0.0,0.0,0.0,0.0,0.0,0.0,0.0,0.0,0.0,0.0,0.0,0.0,0.0,0.0,0.0,0.0,0.0,0.0,0.0,0.0,0.0,0.0,0.0,0.2126,0.5909,0.2266,0.0,0.0,0.0,-0.0931,0.0,0.0,0.0,0.0,0.0,0.0,0.0,0.0,0.0,0.0,0.0,0.0,0.0,0.0,0.0,0.0,0.0,0.0,0.0,0.0,0.0,0.0,0.0,0.0,0.0,0.0,0.0,0.0,0.0,0.0,0.0,0.0,0.0,0.0,0.0,0.0,0.0,0.0,0.0,0.0,0.0,0.0,0.0,0.0,0.0,0.0,0.0,0.0,0.0,0.0,0.0,0.0,0.0,0.0,0.0,0.0,0.0,0.0,0.0,0.0,0.0,0.0,0.0,0.0,0.0,0.0,0.0,0.0,0.0,0.0,0.0,0.0,0.0,0.0,0.0,0.0,0.0,0.0,0.0,0.0,0.0,0.0,0.0,0.0,0.0,0.0,0.0,0.0,0.0,0.0,0.0,0.0,0.0,0.0,0.0,0.0,0.0,0.0,0.0,0.0,0.0,0.0,0.0,0.0,0.0,0.0,0.0,0.0,0.0,0.6212,0.5043,0.2942,0.0,0.0,-0.0899,0.0,0.0,0.0,0.0,0.0,0.0,0.0,0.0,0.0,0.0,0.0,0.0,0.0,0.0,0.0,0.0,0.0,0.0,0.0,0.0,0.0,0.0,0.0,0.0,0.0,0.0,0.0,0.0,0.0,0.0,0.0,0.0,0.0,0.0,0.0,0.0,0.0,0.0,0.0,0.0,0.0,0.0,0.0,0.0,0.0,0.0,0.0,0.0,0.0,0.0,0.0,0.0,0.0,0.0,0.0,0.0,0.0,0.0,0.0,0.0,0.0,0.0,0.0,0.0,0.0,0.0,0.0,0.0,0.0,0.0,0.0,0.0,0.0,0.0,0.0,0.0,0.0,0.0,0.0,0.0,0.0,0.0,0.0,0.0,0.0,0.0,0.0,0.0,0.0,0.0,0.0,0.0,0.0,0.0,0.0,0.0,0.0,0.0,0.0,0.0,0.0,0.0,0.0,0.0,0.0,0.0,0.0,0.0,0.0,0.6573,0.6412,0.4275,0.0086,0.0,-0.0922,-0.2852,0.0,0.0,0.0,0.0,0.0,0.0,0.0,0.0,0.0,0.0,0.0,0.0,0.0,0.0,0.0,0.0,0.0,0.0,0.0,0.0,0.0,0.0,0.0,0.0,0.0,0.0,0.0,0.0,0.0,0.0,0.0,0.0,0.0,0.0,0.0,0.0,0.0,0.0,0.0,0.0,0.0,0.0,0.0,0.0,0.0,0.0,0.0,0.0,0.0,0.0,0.0,0.0,0.0,0.0,0.0,0.0,0.0,0.0,0.0,0.0,0.0,0.0,0.0,0.0,0.0,0.0,0.0,0.0,0.0,0.0,0.0,0.0,0.0,0.0,0.0,0.0,0.0,0.0,0.0,0.0,0.0,0.0,0.0,0.0,0.0,0.0,0.0,0.0,0.0,0.0,0.0,0.0,0.0,0.0,0.0,0.0,0.0,0.0,0.0,0.0,0.0,0.0,0.0,0.0,0.0,0.0,0.0,0.0,0.6688,0.5888,0.3514,0.0,0.0,-0.0999,0.0,0.0,0.0,0.0,0.0,0.0,0.0,0.0,0.0,0.0,0.0,0.0,0.0,0.0,0.0,0.0,0.0,0.0,0.0,0.0,0.0,0.0,0.0,0.0,0.0,0.0,0.0,0.0,0.0,0.0,0.0,0.0,0.0,0.0,0.0,0.0,0.0,0.0,0.0,0.0,0.0,0.0,0.0,0.0,0.0,0.0,0.0,0.0,0.0,0.0,0.0,0.0,0.0,0.0,0.0,0.0,0.0,0.0,0.0,0.0,0.0,0.0,0.0,0.0,0.0,0.0,0.0,0.0,0.0,0.0,0.0,0.0,0.0,0.0,0.0,0.0,0.0,0.0,0.0,0.0,0.0,0.0,0.0,0.0,0.0,0.0,0.0,0.0,0.0,0.0,0.0,0.0,0.0,0.0,0.0,0.0,0.0,0.0,0.0,0.0,0.0,0.0,0.0,0.0,0.0,0.0,0.0,0.0,0.0,0.1891,-0.2141,-0.4693,-0.5508,-0.1966,-0.1425,0.0,0.0,0.0,0.0,0.0,0.0,0.0,0.0,0.0,0.0,0.0,0.0,0.0,0.0,0.0,0.0,0.0,0.0,0.0,0.0,0.0,0.0,0.0,0.0,0.0,0.0,0.0,0.0,0.0,0.0,0.0,0.0,0.0,0.0,0.0,0.0,0.0,0.0,0.0,0.0,0.0,0.0,0.0,0.0,0.0,0.0,0.0,0.0,0.0,0.0,0.0,0.0,0.0,0.0,0.0,0.0,0.0,0.0,0.0,0.0,0.0,0.0,0.0,0.0,0.0,0.0,0.0,0.0,0.0,0.0,0.0,0.0,0.0,0.0,0.0,0.0,0.0,0.0,0.0,0.0,0.0,0.0,0.0,0.0,0.0,0.0,0.0,0.0,0.0,0.0,0.0,0.0,0.0,0.0,0.0,0.0,0.0,0.0,0.0,0.0,0.0,0.0,0.0,0.0,0.0,0.0,0.0,0.0,0.1371,-0.3307,-0.6376,-0.7907,-0.7735,-0.4555,-0.3493,0.0,0.0,0.0,0.0,0.0,0.0,0.0,0.0,0.0,0.0,0.0,0.0,0.0,0.0,0.0,0.0,0.0,0.0,0.0,0.0,0.0,0.0,0.0,0.0,0.0,0.0,0.0,0.0,0.0,0.0,0.0,0.0,0.0,0.0,0.0,0.0,0.0,0.0,0.0,0.0,0.0,0.0,0.0,0.0,0.0,0.0,0.0,0.0,0.0,0.0,0.0,0.0,0.0,0.0,0.0,0.0,0.0,0.0,0.0,0.0,0.0,0.0,0.0,0.0,0.0,0.0,0.0,0.0,0.0,0.0,0.0,0.0,0.0,0.0,0.0,0.0,0.0,0.0,0.0,0.0,0.0,0.0,0.0,0.0,0.0,0.0,0.0,0.0,0.0,0.0,0.0,0.0,0.0,0.0,0.0,0.0,0.0,0.0,0.0,0.0,0.0,0.0,0.0,0.0,0.0,0.0,0.0,0.0,-0.2549,-0.7733,-0.7958,-0.7988,-0.7965,-0.7156,-0.6288,0.0,0.0,0.0,0.0,0.0,0.0,0.0,0.0,0.0,0.0,0.0,0.0,0.0,0.0,0.0,0.0,0.0,0.0,0.0,0.0,0.0,0.0,0.0,0.0,0.0,0.0,0.0,0.0,0.0,0.0,0.0,0.0,0.0,0.0,0.0,0.0,0.0,0.0,0.0,0.0,0.0,0.0,0.0,0.0,0.0,0.0,0.0,0.0,0.0,0.0,0.0,0.0,0.0,0.0,0.0,0.0,0.0,0.0,0.0,0.0,0.0,0.0,0.0,0.0,0.0,0.0,0.0,0.0,0.0,0.0,0.0,0.0,0.0,0.0,0.0,0.0,0.0,0.0,0.0,0.0,0.0,0.0,0.0,0.0,0.0,0.0,0.0,0.0,0.0,0.0,0.0,0.0,0.0,0.0,0.0,0.0,0.0,0.0,0.0,0.0,0.0,0.0,0.0,0.0,0.0,0.0,0.0,0.0,-0.2345,-0.7102,-0.7746,-0.7988,-0.7985,-0.7348,-0.6877,0.0,0.0,0.0,0.0,0.0,0.0,0.0,0.0,0.0,0.0,0.0,0.0,0.0,0.0,0.0,0.0,0.0,0.0,0.0,0.0,0.0,0.0,0.0,0.0,0.0,0.0,0.0,0.0,0.0,0.0,0.0,0.0,0.0,0.0,0.0,0.0,0.0,0.0,0.0,0.0,0.0,0.0,0.0,0.0,0.0,0.0,0.0,0.0,-1.3554,0.0,0.0,0.0,0.0,0.0,0.0,0.0,0.0,0.0,0.0,0.0,0.0,0.0,0.0,0.0,0.0,0.0,0.0,0.0,0.0,0.0,0.0,0.0,0.0,0.0,0.0,0.0,0.0,0.0,0.0,0.0,0.0,0.0,0.0,0.0,0.0,0.0,0.0,0.0,0.0,0.0,0.0,0.0,0.0,0.0,0.0,0.0,0.0,0.0,0.0,0.0,0.0,0.0,0.0,0.0,0.0,0.0,0.0,0.0,-0.4686,-0.7416,-0.7823,-0.8577,-0.9739,-0.9514,-0.8613,0.0,0.0,0.0,0.0,0.0,0.0,0.0,0.0,0.0,0.0,0.0,0.0,0.0,0.0,0.0,0.0,0.0,0.0,0.0,0.0,0.0,0.0,0.0,0.0,0.0,0.0,0.0,0.0,0.0,0.0,0.0,0.0,0.0,0.0,0.0,0.0,0.0,0.0,0.0,0.0,0.0,0.0,0.0,0.0,0.0,0.0,0.0,0.0,0.0,0.0,0.0,0.0,0.0,0.0,0.0,0.0,0.0,0.0,0.0,0.0,0.0,0.0,0.0,0.0,0.0,0.0,0.0,0.0,0.0,0.0,0.0,0.0,0.0,0.0,0.0,0.0,0.0,0.0,0.0,0.0,0.0,0.0,0.0,0.0,0.0,0.0,0.0,0.0,0.0,0.0,0.0,0.0,0.0,0.0,0.0,0.0,0.0,0.0,0.0,0.0,0.0,0.0,0.0,0.0,0.0,0.0,0.0,-0.476,-0.7479,-0.7961,-0.7988,-0.9213,-1.1799,-1.1879,-1.0477,-0.7551,0.0,0.0,0.0,0.0,0.0,0.0,0.0,0.0,0.0,0.0,0.0,0.0,0.0,0.0,0.0,0.0,0.0,0.0,0.0,0.0,0.0,0.0,0.0,0.0,0.0,0.0,0.0,0.0,0.0,0.0,0.0,0.0,0.0,0.0,0.0,0.0,0.0,0.0,-0.6766,-0.6787,0.0,0.0,0.0,0.0,0.0,0.0,0.0,0.0,-1.4626,0.0,0.0,0.0,0.0,0.0,0.0,0.0,0.0,0.0,0.0,0.0,0.0,0.0,0.0,0.0,0.0,0.0,0.0,0.0,0.0,0.0,0.0,0.0,0.0,0.0,0.0,0.0,0.0,0.0,0.0,0.0,0.0,0.0,0.0,0.0,0.0,0.0,0.0,0.0,0.0,0.0,0.0,0.0,0.0,0.0,0.0,0.0,0.0,0.0,0.0,0.0,0.0,0.0,0.0,0.0,0.0,0.0,-0.5177,-0.7894,-0.7985,-0.7988,-0.9262,-1.1794,-1.167,-1.0687,-0.8938,0.0,0.0,0.0,0.0,0.0,0.0,0.0,0.0,0.0,0.0,0.0,0.0,0.0,0.0,0.0,0.0,0.0,0.0,0.0,0.0,0.0,0.0,0.0,0.0,0.0,0.0,0.0,0.0,0.0,0.0,0.0,0.0,0.0,0.0,0.0,0.0,0.0,0.0,0.0,-0.718,-0.7223,0.0,0.0,0.0,0.0,0.0,0.0,0.0,0.0,-1.4807,0.0,0.0,0.0,0.0,0.0,0.0,0.0,0.0,0.0,0.0,0.0,0.0,0.0,0.0,0.0,0.0,0.0,0.0,0.0,0.0,0.0,0.0,0.0,0.0,0.0,0.0,0.0,0.0,0.0,0.0,0.0,0.0,0.0,0.0,0.0,0.0,0.0,0.0,0.0,0.0,0.0,0.0,0.0,0.0,0.0,0.0,0.0,0.0,0.0,0.0,0.0,0.0,0.0,0.0,0.0,0.0,-0.4984,-0.7526,-0.7526,-0.7526,-0.8855,-1.1576,-1.1389,-1.1136,0.0,0.0,0.0,0.0,0.0,0.0,0.0,0.0,0.0,0.0,0.0,0.0,0.0,0.0,0.0,0.0,0.0,0.0,0.0,0.0,0.0,0.0,0.0,0.0,0.0,0.0,0.0,0.0,0.0,0.0,0.0,0.0,0.0,0.0,0.0,0.0,0.0,0.0,0.0,0.0,-0.6974,-0.7555,-0.7613,0.0,0.0,0.0,0.0,0.0,0.0,-1.4977,-1.4807,0.0,0.0,0.0,0.0,0.0,0.0,0.0,0.0,0.0,0.0,0.0,0.0,0.0,0.0,0.0,0.0,0.0,0.0,0.0,0.0,0.0,0.0,0.0,0.0,0.0,0.0,0.0,0.0,0.0,0.0,0.0,0.0,0.0,0.0,0.0,0.0,0.0,0.0,0.0,0.0,0.0,0.0,0.0,0.0,0.0,0.0,0.0,0.0,0.0,0.0,0.0,0.0,0.0,0.0,0.0,-0.1573,-0.5173,-0.7095,-0.7095,-0.7095,-0.8666,-1.1889,-1.1363,-1.1455,0.0,0.0,0.0,0.0,0.0,0.0,0.0,0.0,0.0,0.0,0.0,0.0,0.0,0.0,0.0,0.0,0.0,0.0,0.0,0.0,0.0,0.0,0.0,0.0,0.0,0.0,0.0,0.0,0.0,0.0,0.0,0.0,0.0,0.0,0.0,0.0,0.0,0.0,0.0,0.0,0.0,-0.8153,-0.8272,-0.8173,0.0,0.0,0.0,0.0,-1.5645,-1.5744,0.0,0.0,0.0,0.0,0.0,0.0,0.0,0.0,0.0,0.0,0.0,0.0,0.0,0.0,0.0,0.0,0.0,0.0,0.0,0.0,0.0,0.0,0.0,0.0,0.0,0.0,0.0,0.0,0.0,0.0,0.0,0.0,0.0,0.0,0.0,0.0,0.0,0.0,0.0,0.0,0.0,0.0,0.0,0.0,0.0,0.0,0.0,0.0,0.0,0.0,0.0,0.0,0.0,0.0,0.0,0.0,-0.6269,-0.6794,-0.7095,-0.7095,-0.7139,-0.9244,-1.3609,-1.1983,-1.1379,0.0,0.0,0.0,0.0,0.0,0.0,0.0,0.0,0.0,0.0,0.0,0.0,0.0,0.0,0.0,0.0,0.0,0.0,0.0,0.0,0.0,0.0,0.0,0.0,0.0,0.0,0.0,0.0,0.0,0.0,0.0,0.0,0.0,0.0,0.0,0.0,0.0,0.0,0.0,0.0,0.0,-0.9788,-0.9922,-1.0727,-1.1187,0.0,0.0,-1.4489,-1.5651,-1.7161,0.0,0.0,0.0,0.0,0.0,0.0,0.0,0.0,0.0,0.0,0.0,0.0,0.0,0.0,0.0,0.0,0.0,0.0,0.0,0.0,0.0,0.0,0.0,0.0,0.0,0.0,0.0,0.0,0.0,0.0,0.0,0.0,0.0,0.0,0.0,0.0,0.0,0.0,0.0,0.0,0.0,0.0,0.0,0.0,0.0,0.0,0.0,0.0,0.0,0.0,0.0,0.0,0.0,0.0,0.0,-0.6593,-0.7071,-0.7095,-0.7095,-0.7183,-0.9701,-1.204,-1.4046,-1.2914,-1.247,0.0,0.0,0.0,0.0,0.0,0.0,0.0,0.0,0.0,0.0,0.0,0.0,0.0,0.0,0.0,0.0,0.0,0.0,0.0,0.0,0.0,0.0,0.0,0.0,0.0,0.0,0.0,0.0,0.0,0.0,0.0,0.0,0.0,0.0,0.0,0.0,0.0,0.0,0.0,0.0,0.0,0.0,-1.1326,-1.2151,0.0,0.0,0.0,-1.5478,-1.6647,0.0,0.0,0.0,0.0,0.0,0.0,0.0,0.0,0.0,0.0,0.0,0.0,0.0,0.0,0.0,0.0,0.0,0.0,0.0,0.0,0.0,0.0,0.0,0.0,0.0,0.0,0.0,0.0,0.0,0.0,0.0,0.0,0.0,0.0,0.0,0.0,0.0,0.0,0.0,0.0,0.0,0.0,0.0,0.0,0.0,0.0,0.0,0.0,0.0,0.0,0.0,0.0,0.0,0.0,0.0,0.0,0.0,-0.7078,-0.7095,-0.7661,-0.8877,-1.226,-1.4088,-1.4124,-1.4171,0.0,0.0,0.0,0.0,0.0,0.0,0.0,0.0,0.0,0.0,0.0,0.0,0.0,0.0,0.0,0.0,0.0,0.0,0.0,0.0,0.0,0.0,0.0,0.0,0.0,0.0,0.0,-1.2831,0.0,0.0,0.0,0.0,0.0,0.0,0.0,0.0,0.0,0.0,0.0,0.0,0.0,0.0,-1.1216,-1.2274,-1.3523,-1.4786,0.0,0.0,-1.6132,-1.7007,-1.8969,-2.0223,0.0,0.0,0.0,0.0,0.0,0.0,0.0,0.0,0.0,0.0,0.0,0.0,0.0,0.0,0.0,0.0,0.0,0.0,0.0,0.0,0.0,0.0,0.0,0.0,0.0,0.0,0.0,0.0,0.0,0.0,0.0,0.0,0.0,0.0,0.0,0.0,0.0,0.0,0.0,0.0,0.0,0.0,0.0,0.0,0.0,0.0,0.0,0.0,0.0,0.0,0.0,0.0,0.0,0.0,-0.659,-0.7071,-0.7095,-0.9266,-1.3434,-1.3913,-1.4088,-1.413,-1.5996,-1.5811,0.0,0.0,0.0,0.0,0.0,0.0,0.0,0.0,0.0,0.0,0.0,0.0,0.0,0.0,0.0,0.0,0.0,0.0,0.0,0.0,0.0,0.0,0.0,0.0,0.0,0.0,0.0,0.0,0.0,0.0,0.0,0.0,0.0,0.0,0.0,0.0,0.0,0.0,0.0,0.0,0.0,-1.2188,-1.2353,-1.5245,-1.7147,0.0,-1.6179,-1.5811,-1.5939,-1.9837,-2.2085,-1.9861,0.0,0.0,0.0,0.0,0.0,0.0,0.0,0.0,0.0,0.0,0.0,0.0,0.0,0.0,0.0,0.0,0.0,0.0,0.0,0.0,0.0,0.0,0.0,0.0,0.0,0.0,0.0,0.0,0.0,0.0,0.0,0.0,0.0,0.0,0.0,0.0,0.0,0.0,0.0,0.0,0.0,0.0,0.0,0.0,0.0,0.0,0.0,0.0,0.0,0.0,0.0,0.0,0.0,-0.7208,-0.8992,-1.0602,-1.2297,-1.3997,-1.4088,-1.4088,-1.4088,-1.6165,-1.6003,0.0,0.0,0.0,0.0,0.0,0.0,0.0,0.0,0.0,0.0,0.0,0.0,0.0,0.0,0.0,0.0,0.0,0.0,0.0,0.0,0.0,0.0,0.0,0.0,0.0,0.0,0.0,0.0,-1.3953,-1.3467,-1.2739,0.0,0.0,0.0,0.0,0.0,0.0,0.0,0.0,0.0,0.0,-1.3734,-1.3623,-1.5576,0.0,0.0,-1.6213,-1.5825,-1.5825,-1.8664,-2.1087,-2.1632,-2.1406,0.0,0.0,0.0,0.0,0.0,0.0,0.0,0.0,0.0,0.0,0.0,0.0,0.0,0.0,0.0,0.0,0.0,0.0,0.0,0.0,0.0,0.0,0.0,0.0,0.0,0.0,0.0,0.0,0.0,0.0,0.0,0.0,0.0,0.0,0.0,0.0,0.0,0.0,0.0,0.0,0.0,0.0,0.0,0.0,0.0,0.0,0.0,0.0,0.0,0.0,0.0,0.0,-0.7576,-1.0201,-1.2767,-1.4088,-1.4088,-1.4088,-1.4412,-1.5061,-1.6527,-1.6277,0.0,0.0,0.0,0.0,0.0,0.0,0.0,0.0,0.0,0.0,0.0,0.0,0.0,0.0,0.0,0.0,0.0,0.0,0.0,0.0,0.0,0.0,0.0,0.0,0.0,0.0,0.0,0.0,-1.451,-1.3948,-1.2953,0.0,0.0,0.0,0.0,0.0,0.0,0.0,0.0,0.0,0.0,-1.4477,-1.4321,-1.5504,-1.6397,-1.6446,-1.7304,-1.7979,-1.7979,-1.8856,-2.0079,-2.1765,0.0,0.0,0.0,0.0,0.0,0.0,0.0,0.0,0.0,0.0,0.0,0.0,0.0,0.0,0.0,0.0,0.0,0.0,0.0,0.0,0.0,0.0,0.0,0.0,0.0,0.0,0.0,0.0,0.0,0.0,0.0,0.0,0.0,0.0,0.0,0.0,0.0,0.0,0.0,0.0,0.0,0.0,0.0,0.0,0.0,0.0,0.0,0.0,0.0,0.0,0.0,0.0,0.0,-0.7615,-1.0156,-1.2767,-1.4088,-1.4088,-1.4088,-1.5103,-1.7098,-1.7302,-1.6947,-1.6138,0.0,0.0,0.0,0.0,0.0,0.0,0.0,0.0,0.0,0.0,0.0,0.0,0.0,0.0,0.0,0.0,0.0,0.0,0.0,0.0,0.0,0.0,0.0,0.0,0.0,0.0,-1.4932,-1.4975,-1.474,0.0,0.0,0.0,0.0,0.0,0.0,0.0,0.0,0.0,0.0,-1.3071,-1.4038,-1.4317,-1.5194,-1.5871,-1.5824,-1.9733,-2.2775,-2.2589,-2.0908,-1.9497,0.0,0.0,0.0,0.0,0.0,0.0,0.0,0.0,0.0,0.0,0.0,0.0,0.0,0.0,0.0,0.0,0.0,0.0,0.0,0.0,0.0,0.0,0.0,0.0,0.0,0.0,0.0,0.0,0.0,0.0,0.0,0.0,0.0,0.0,0.0,0.0,0.0,0.0,0.0,0.0,-0.8946,-1.0651,0.0,0.0,0.0,0.0,0.0,0.0,0.0,0.0,0.0,0.0,0.0,0.0,-0.8936,-1.0237,-1.2767,-1.4088,-1.4088,-1.4088,-1.5151,-1.722,-1.8749,-1.882,-1.7373,0.0,0.0,0.0,0.0,0.0,0.0,0.0,0.0,0.0,0.0,0.0,0.0,0.0,0.0,0.0,0.0,0.0,0.0,0.0,0.0,0.0,0.0,0.0,0.0,0.0,-1.483,0.0,0.0,0.0,0.0,0.0,0.0,0.0,0.0,0.0,0.0,0.0,-1.5918,-1.4658,-1.543,-1.5918,-1.54,-1.6255,-1.672,0.0,0.0,0.0,0.0,0.0,0.0,0.0,0.0,0.0,0.0,0.0,0.0,0.0,0.0,-2.2769,-2.3042,-2.3101,-2.3101,-2.3101,0.0,0.0,0.0,0.0,0.0,0.0,0.0,0.0,0.0,0.0,0.0,0.0,0.0,0.0,0.0,0.0,0.0,0.0,0.0,0.0,0.0,0.0,0.0,0.0,0.0,-1.0785,-1.1073,-1.1312,-1.322,-1.451,0.0,-1.5196,-1.5158,0.0,0.0,0.0,0.0,0.0,0.0,0.0,0.0,-1.0632,-1.129,-1.3112,-1.4088,-1.4088,-1.4088,-1.547,-1.8341,-1.9654,-1.9802,-1.8602,-1.7045,-1.5587,0.0,0.0,0.0,0.0,0.0,0.0,0.0,0.0,0.0,0.0,0.0,0.0,0.0,0.0,0.0,0.0,0.0,0.0,0.0,0.0,0.0,0.0,0.0,-1.5711,0.0,0.0,0.0,0.0,0.0,0.0,0.0,0.0,0.0,-1.6206,-1.6466,-1.6567,-1.6186,-1.6929,-1.7208,-1.6248,0.0,0.0,0.0,0.0,0.0,0.0,0.0,-2.1266,-2.2862,-2.2448,-2.2173,-2.295,-2.3101,-2.3101,-2.3101,0.0,0.0,-2.3101,-2.3101,-2.3101,-2.3101,-2.3101,-2.3101,-2.3101,-2.3101,-2.2886,0.0,0.0,0.0,0.0,0.0,0.0,0.0,0.0,0.0,0.0,0.0,0.0,0.0,0.0,0.0,0.0,0.0,-1.154,0.0,0.0,-1.3258,-1.3761,-1.3267,-1.4021,-1.6519,-2.044,-2.045,-2.044,-2.0324,-1.7793,0.0,0.0,0.0,0.0,0.0,0.0,-1.2643,-1.3318,-1.4028,-1.4328,-1.4419,-1.437,-1.6322,-2.0352,-2.0127,-1.9893,-1.9806,-1.8715,-1.8042,-1.7983,-1.8134,0.0,0.0,0.0,0.0,0.0,0.0,0.0,0.0,0.0,0.0,0.0,0.0,0.0,0.0,0.0,0.0,0.0,0.0,0.0,0.0,-1.7494,0.0,0.0,0.0,0.0,0.0,0.0,0.0,0.0,0.0,0.0,-1.6812,-1.6744,-1.67,-1.668,0.0,0.0,0.0,0.0,-1.61,-1.658,-2.1566,-2.3021,-1.6812,-1.9931,-2.3047,-2.3091,0.0,0.0,-2.3101,-2.3101,-2.3101,-2.3101,-2.3101,-2.3101,-2.3101,-2.3101,-2.3101,-2.3101,-2.3101,-2.3101,-2.3091,-2.3149,-2.3036,0.0,0.0,0.0,0.0,0.0,0.0,0.0,0.0,0.0,0.0,0.0,0.0,0.0,0.0,0.0,0.0,0.0,0.0,-1.2864,-1.3054,-1.3312,-1.3594,-1.3965,-1.7186,-1.9392,-2.0566,-2.0615,-2.0615,-2.0557,-1.9792,-1.7991,-1.5249,0.0,0.0,0.0,0.0,-1.336,-1.5465,-1.7625,-1.874,-1.874,-1.874,-1.9304,-2.0566,-1.9853,-1.9463,-1.9463,-1.9697,-1.9268,-1.811,-2.0343,0.0,0.0,0.0,0.0,0.0,0.0,0.0,0.0,0.0,0.0,0.0,0.0,0.0,0.0,0.0,0.0,0.0,0.0,0.0,-1.7376,-1.7645,-1.7467,0.0,0.0,0.0,0.0,0.0,0.0,0.0,0.0,0.0,-1.9112,-1.7768,-1.6633,0.0,0.0,-1.7218,-1.6489,-1.7307,-1.7529,-1.6237,-1.7544,0.0,-1.7262,-2.0486,-2.3101,-2.3101,-2.3101,-2.3101,-2.3101,-2.3101,-2.3101,-2.3101,-2.3101,-2.3101,-2.3101,-2.3101,-2.3135,-2.3101,-2.3101,-2.3101,-2.3125,-2.3408,-2.3627,0.0,0.0,0.0,0.0,0.0,0.0,0.0,0.0,0.0,0.0,0.0,0.0,0.0,0.0,0.0,0.0,0.0,0.0,-1.4001,-1.4406,-1.3838,-1.4186,-1.5579,-1.8948,-2.0615,-2.0615,-2.0615,-2.0615,-2.0615,-2.0615,-1.9744,-1.8047,0.0,0.0,-1.5158,-1.4328,-1.4711,-1.6455,-1.917,-2.0615,-2.0605,-1.994,-1.9717,-2.0067,-1.9561,-1.9365,-1.9531,-1.9873,-1.958,-1.8599,-2.0129,-2.016,0.0,0.0,0.0,0.0,0.0,0.0,0.0,0.0,0.0,0.0,0.0,-1.8379,-1.9228,0.0,0.0,0.0,-1.7572,-1.8419,-1.8887,-1.8627,0.0,0.0,0.0,0.0,0.0,0.0,0.0,-1.9504,-1.8504,-1.8723,-2.1535,-2.0409,-1.8891,-1.8059,-1.854,-1.8701,-1.7838,0.0,-1.9222,-1.7512,-1.725,-1.7844,-1.9519,-2.1344,-2.2646,-2.2604,-2.2637,-2.2646,-2.2646,-2.2637,-2.2764,-2.3003,-2.3101,-2.3101,-2.3101,-2.4467,-2.542,-2.4628,-2.4051,-2.3823,-2.402,-2.4209,-2.4181,0.0,0.0,0.0,0.0,0.0,0.0,0.0,0.0,0.0,0.0,0.0,0.0,0.0,0.0,0.0,0.0,-0.7213,-1.1931,-1.4643,-1.5655,-1.4776,-1.5387,-1.7383,-1.955,-2.0615,-2.0615,-2.0615,-2.0615,-2.0605,-2.0527,-2.042,-2.0256,-1.9047,-1.7767,-1.6464,-1.6363,-1.651,-1.6775,-1.9144,-2.0361,-2.038,-1.8828,-1.8389,-1.916,-1.9238,-1.9424,-1.9775,-1.9404,-1.9189,-1.916,-1.8428,-1.8008,-1.8008,0.0,0.0,0.0,0.0,0.0,0.0,0.0,0.0,0.0,0.0,0.0,0.0,0.0,0.0,0.0,-1.9463,0.0,-2.1543,-2.0059,0.0,0.0,0.0,-1.8879,-1.7174,-1.6993,-1.8573,-2.264,0.0,0.0,-2.3737,-2.3578,-2.2464,-2.0825,-2.1228,-2.1223,-2.008,-2.0672,-2.0952,-1.9612,-1.9675,-2.0487,-2.2039,-2.2097,-2.1816,-2.1885,-2.1875,-2.1934,-2.1943,-2.1934,-2.2227,-2.2808,-2.2994,-2.2916,-2.2886,-2.6161,-2.886,-2.642,-2.5615,-2.5178,-2.532,-2.5115,-2.4764,0.0,0.0,0.0,0.0,0.0,0.0,0.0,0.0,0.0,0.0,0.0,0.0,0.0,0.0,0.0,-0.2557,-0.7219,-1.1937,-1.4692,-1.5696,-1.6281,-1.6813,-1.7415,-1.955,-2.0615,-2.0615,-2.0615,-2.0615,-2.0576,-1.994,-1.8845,-1.748,-1.7834,-1.7473,-1.6447,-1.6371,-1.7459,-1.961,-1.8952,-1.8613,-1.8603,-1.8223,-1.8105,-1.8301,-1.875,-1.8965,-1.89,-1.8535,-1.8311,-1.8311,-1.8115,-1.8008,-1.8042,-2.0472,0.0,0.0,0.0,0.0,0.0,0.0,0.0,0.0,0.0,-1.8848,-1.9294,0.0,-2.1153,0.0,-2.2136,-2.1534,-2.0539,-2.0352,0.0,0.0,-1.9936,-1.9745,-1.9555,-1.9513,-2.044,-2.2827,-2.2331,-2.2171,-2.3279,-2.3227,-2.294,-2.249,-2.1213,-2.0212,-1.997,-2.0914,-2.1327,-2.0559,-2.1281,-2.1958,-2.1353,-2.1075,-2.1085,-2.1455,-2.1719,-2.1885,-2.1926,-2.1936,-2.1963,-2.2148,-2.2178,-2.1934,-2.1348,-2.451,-2.6251,-2.4877,-2.5836,-2.68,-2.5362,-2.523,-2.5378,0.0,0.0,0.0,0.0,0.0,0.0,0.0,0.0,0.0,0.0,0.0,0.0,0.0,0.0,0.0,-0.1414,-0.438,-1.1959,-1.5565,-1.563,-1.675,-1.7819,-1.8753,-1.9231,-1.9424,-1.947,-1.946,-1.9434,-1.9394,-1.8945,-1.8195,-1.7162,-1.8045,-1.7944,-1.6796,-1.6522,-1.7182,-1.8696,-1.8237,-1.8008,-1.8008,-1.8008,-1.8008,-1.8018,-1.832,-1.8545,-1.8588,-1.8188,-1.8008,-1.8042,-1.9453,-2.0257,-2.0322,-2.207,-2.1573,0.0,0.0,0.0,0.0,0.0,0.0,0.0,0.0,0.0,0.0,0.0,-2.175,-2.4354,-2.4273,-2.3722,-2.2954,-2.2178,-2.1808,-2.2022,-2.1599,-2.1397,-2.1564,-2.1591,-2.198,-2.2974,-2.3101,-2.3101,-2.3101,-2.3101,-2.3013,-2.2857,-2.1824,-2.106,-2.1105,-2.1714,-2.1995,-2.1686,-2.2164,-2.2139,-2.0791,-2.0615,-2.0713,-2.0967,-2.1182,-2.1339,-2.1329,-2.168,-2.183,-2.141,-2.1339,-2.1202,-2.082,-2.2215,-2.3879,-2.5028,-2.6186,-2.688,-2.6134,-2.5972,-2.6019,0.0,0.0,0.0,0.0,0.0,0.0,0.0,0.0,0.0,0.0,0.0,0.0,0.0,0.0,0.0,0.0,0.0,-1.1297,-1.6049,-1.5732,-1.6701,-1.8312,-2.0342,-1.8769,-1.8008,-1.8008,-1.8008,-1.8008,-1.8008,-1.8008,-1.8008,-1.8047,-1.8644,-1.8269,-1.6991,-1.6505,-1.6125,-1.592,-1.7281,-1.8008,-1.8008,-1.8008,-1.7959,-1.7818,-1.7842,-1.8047,-1.8403,-1.8125,-1.7959,-1.811,-2.0867,-2.2433,-2.2451,-2.2421,-2.1121,0.0,-1.8202,0.0,0.0,0.0,0.0,0.0,0.0,0.0,0.0,-2.0885,-2.3142,-2.6431,-2.6034,-2.5722,-2.6165,-2.4472,-2.3707,-2.4651,-2.3884,-2.3197,-2.3125,-2.3101,-2.3101,-2.3101,-2.3101,-2.3071,-2.2925,-2.2935,-2.2769,-2.2467,-2.2314,-2.2138,-2.2201,-2.2227,-2.2469,-2.2886,-2.2266,-2.1416,-2.0781,-2.0615,-2.0556,-2.0488,-2.0586,-2.0605,-2.0778,-2.1441,-2.1756,-2.1223,-2.1187,-2.1185,-2.128,-2.1489,-2.2702,-2.5756,-2.633,-2.6452,-2.6862,-2.6689,-2.6512,0.0,0.0,0.0,0.0,0.0,0.0,0.0,0.0,0.0,0.0,0.0,0.0,0.0,0.0,0.0,0.0,0.0,-0.7355,-1.2947,-1.7158,-1.6531,-1.7436,-1.9426,-1.8486,-1.8008,-1.8008,-1.8008,-1.8008,-1.8008,-1.8008,-1.8008,-1.7974,-1.7411,-1.6616,-1.5627,0.0,0.0,0.0,-1.6298,-1.8008,-1.8008,-1.8008,-1.7676,-1.697,-1.6941,0.0,-1.7588,-1.7539,-1.7666,-1.7978,-1.862,0.0,0.0,0.0,0.0,0.0,0.0,0.0,0.0,0.0,0.0,0.0,-2.2485,-2.2073,-2.0668,-2.5074,-2.7989,-2.7802,-2.7644,-2.6767,-2.4828,-2.4948,-2.5022,-2.4803,-2.4298,-2.3779,-2.3207,-2.3081,-2.3101,-2.3101,-2.3091,-2.2818,-2.2197,-2.2129,-2.209,-2.1973,-2.2002,-2.1709,-2.1075,-2.1553,-2.2012,-2.206,-2.1406,-2.084,-2.0635,-2.0595,-2.0435,-1.9824,-2.0194,-2.0745,-2.1199,-2.1636,-2.2355,-2.2664,-2.2962,-2.3408,-2.4898,-2.5381,-2.5369,-2.6371,-2.5783,-2.5423,-2.6424,-2.6562,-2.6487,0.0,0.0,0.0,0.0,0.0,0.0,0.0,0.0,0.0,0.0,0.0,0.0,0.0,0.0,0.0,0.0,0.0,-0.626,-1.2168,-1.7687,-1.7677,-1.7999,-1.8643,-1.8213,-1.8008,-1.8008,-1.8008,-1.8008,-1.8008,-1.8008,-1.8008,-1.8008,-1.7535,-1.7044,-1.662,-1.6585,-1.6079,-1.5155,-1.701,-1.6833,-1.4535,-1.5904,-1.6738,-1.6697,-1.6697,0.0,0.0,0.0,0.0,0.0,0.0,0.0,0.0,0.0,0.0,-2.0515,-2.1342,-2.1834,-2.1846,-2.1905,-2.2269,-2.2977,-2.4209,-2.4133,-2.2151,-2.582,-2.7957,-2.7392,-2.7293,-2.6988,-2.6232,-2.6088,-2.5938,-2.567,-2.4981,-2.3986,-2.2757,-2.2529,-2.2344,-2.1943,-2.1865,-2.1543,-2.0713,-2.1045,-2.1153,-2.0967,-2.1143,-2.0957,-2.0234,-2.0879,-2.1494,-2.1279,-2.0948,-2.0625,-2.0644,-2.1022,-2.1115,-2.0745,-2.0964,-2.1302,-2.16,-2.2193,-2.2849,-2.336,-2.3192,-2.3352,-2.4538,-2.5695,-2.6336,-2.5762,-2.5209,-2.4971,-2.5548,-2.5649,-2.5649,0.0,0.0,0.0,0.0,0.0,0.0,0.0,0.0,0.0,0.0,0.0,0.0,0.0,0.0,0.0,0.0,0.0,-0.626,-1.2246,-1.7978,-1.874,-1.8691,-1.8018,-1.8008,-1.8008,-1.8008,-1.8008,-1.8008,-1.8008,-1.8008,-1.8008,-1.8008,-1.8008,-1.8008,-1.8008,-1.8008,-1.7861,-1.7545,-1.7852,-1.6021,-1.2136,-1.4496,-1.619,-1.6911,-1.6775,-1.7093,-1.7945,-1.7905,-1.7898,-1.7998,-1.8303,-1.8586,-1.8977,-2.1561,-2.3095,-2.3095,-2.3095,-2.3095,-2.3108,-2.2604,-2.2792,-2.4073,-2.5431,-2.5583,-2.4122,-2.5534,-2.6487,-2.6487,-2.6487,-2.6876,-2.772,-2.7127,-2.6595,-2.6511,-2.5581,-2.4359,-2.2955,-2.1967,-2.1689,-2.1537,-2.1197,-2.0435,-2.0005,-2.033,-2.0539,-2.0379,-2.076,-2.0589,-2.0042,-2.0572,-2.1006,-2.0752,-2.0302,-2.0145,-2.064,-2.1083,-2.1628,-2.1461,-2.1535,-2.1645,-2.1717,-2.2298,-2.2995,-2.3732,-2.2912,-2.263,-2.3108,-2.4556,-2.5498,-2.4662,-2.4487,-2.4487,-2.4487,-2.4487,-2.4575,0.0,0.0,0.0,0.0,0.0,0.0,0.0,0.0,0.0,0.0,0.0,0.0,0.0,0.0,0.0,0.0,0.0,-0.6248,-1.2246,-1.793,-1.8135,-1.8125,-1.8008,-1.8008,-1.8008,-1.8008,-1.8008,-1.8008,-1.8008,-1.7998,-1.8008,-1.7998,-1.8008,-1.7998,-1.8008,-1.8008,-1.7275,-1.582,-1.7256,-1.7644,-1.7,-1.7403,-1.7695,-1.7793,-1.7109,-1.7042,-1.7791,-1.7522,-1.7541,-1.8007,-1.9431,-2.0878,-2.2298,-2.2811,-2.3095,-2.3095,-2.3095,-2.3095,-2.3108,-2.3454,-2.3991,-2.4612,-2.4901,-2.5303,-2.603,-2.6336,-2.6487,-2.6487,-2.6436,-2.6537,-2.6751,-2.6939,-2.6859,-2.6499,-2.5961,-2.5646,-2.5565,-2.2961,-2.2209,-2.4945,-2.259,-2.094,-2.1336,-2.1016,-2.0949,-2.1417,-2.139,-2.1555,-2.1285,-2.1042,-2.0693,-2.0419,-1.9287,-1.9111,-2.0051,-2.0663,-2.0874,-2.0792,-2.0868,-2.0861,-2.0574,-2.1132,-2.2162,-2.4114,-2.3043,-2.2434,-2.2819,-2.3283,-2.3356,-2.3109,-2.3145,-2.3371,-2.3434,-2.3459,-2.3684,0.0,0.0,0.0,0.0,0.0,0.0,0.0,0.0,0.0,0.0,0.0,0.0,0.0,0.0,0.0,0.0,-0.0274,-0.626,-1.2256,-1.7783,-1.8008,-1.8008,-1.8008,-1.8008,-1.8008,-1.8008,-1.8008,-1.8008,-1.7969,-1.7516,-1.7314,-1.7282,-1.7291,-1.7516,-1.7949,-1.7506,-1.6648,-1.5459,-1.7119,-1.8008,-1.8008,-1.8008,-1.8165,-1.8458,-1.8082,-1.8036,-1.8391,-1.8205,-1.8228,-1.848,-1.9257,-2.0699,-2.2937,-2.3095,-2.3095,-2.3083,-2.2543,-2.2246,-2.2234,-2.2498,-2.2874,-2.3427,-2.371,-2.4073,-2.4607,-2.5774,-2.6248,-2.5649,-2.5573,-2.5573,-2.5573,-2.5799,-2.585,-2.5598,-2.537,-2.5595,-2.6183,-2.5087,-2.4565,-2.5936,-2.3856,-2.2149,-2.2509,-2.2182,-2.1627,-2.1393,-2.1196,-2.1196,-2.1229,-2.0885,-2.0411,-1.9898,-1.8828,-1.8418,-1.9157,-2.0054,-2.0506,-2.059,-2.1025,-2.0974,-2.0621,-2.1151,-2.1993,-2.2233,-2.1751,-2.1105,-2.0675,-2.0322,-2.0322,-2.0459,-2.1542,-2.2196,-2.2869,-2.3095,-2.3195,0.0,0.0,0.0,0.0,0.0,0.0,0.0,0.0,0.0,0.0,0.0,0.0,0.0,0.0,0.0,0.0,0.0,-0.4824,-1.0937,-1.7549,-1.7871,-1.7847,-1.7964,-1.8008,-1.7812,-1.7438,-1.7422,-1.7389,-1.7321,-1.6911,-1.6697,-1.6697,-1.6697,-1.7038,-1.7662,-1.7038,-1.6268,-1.5527,-1.6738,-1.7422,-1.7432,-1.7793,-1.8192,-1.8559,-1.8928,-1.9083,-1.8998,-1.8908,-1.8939,-1.9114,-1.9114,-2.0082,-2.2164,-2.2355,-2.2355,-2.228,-2.1581,-2.123,-2.1455,-2.1481,-2.1669,-2.2108,-2.2719,-2.3108,-2.3246,-2.4682,-2.5372,-2.4562,-2.4412,-2.4499,-2.4808,-2.4838,-2.48,-2.48,-2.48,-2.5164,-2.5925,-2.6122,-2.5984,-2.5619,-2.4136,-2.3055,-2.3095,-2.3095,-2.2592,-2.1545,-2.1072,-2.0991,-2.0991,-2.106,-2.084,-2.0266,-1.957,-1.9405,-1.9189,-1.9587,-1.9979,-1.9874,-2.0682,-2.0671,-2.0398,-2.1136,-2.1717,-2.0684,-2.0315,-1.9937,-1.8754,-1.8564,-1.8702,-1.9012,-2.0388,-2.1763,-2.2443,-2.2481,-2.2631,0.0,0.0,0.0,0.0,0.0,0.0,0.0,0.0,0.0,0.0,0.0,0.0,0.0,0.0,0.0,0.0,0.0,0.0,-0.6989,-1.6904,-1.7428,-1.7467,-1.7939,-1.7988,-1.7155,-1.5879,-1.5742,-1.5811,-1.581,-1.6375,-1.6677,-1.6697,-1.6697,-1.6707,-1.6794,-1.6726,-1.6258,-1.5439,-1.5557,-1.5644,-1.5742,-1.7197,-1.7897,-1.774,-1.9042,-1.9619,-1.9256,-1.8944,-1.903,-1.9624,-1.9713,-1.9817,-2.0124,-2.0137,-2.0137,-2.0162,-2.0049,-2.0388,-2.1343,-2.1481,-2.1468,-2.1631,-2.2431,-2.3007,-2.3045,-2.3296,-2.3409,-2.3271,-2.3258,-2.3747,-2.4625,-2.4738,-2.4662,-2.4562,-2.4662,-2.4883,-2.4933,-2.4971,-2.4582,-2.3509,-2.3321,-2.3095,-2.3095,-2.3058,-2.2967,-2.2603,-2.2089,-2.1832,-2.1898,-2.2181,-2.2451,-2.2506,-2.25,-2.228,-2.1916,-2.0372,-1.9155,-1.7905,-1.9039,-1.9617,-1.9191,-1.9169,-1.9396,-2.0222,-1.9835,-1.9479,-1.9523,-1.964,-1.9534,-1.9468,-2.0367,-2.1481,-2.1568,-2.1418,-2.1568,0.0,0.0,0.0,0.0,0.0,0.0,0.0,0.0,0.0,0.0,0.0,0.0,0.0,0.0,0.0,0.0,0.0,0.0,-0.4211,-1.1911,-1.5391,-1.7145,-1.7213,-1.7223,-1.656,-1.5488,-1.542,-1.542,-1.5478,-1.5791,-1.5917,-1.5927,-1.5917,-1.5927,-1.5947,-1.5927,-1.5762,-1.543,-1.542,-1.542,-1.5488,-1.6094,-1.6427,-1.6537,-1.857,-1.9287,-1.8499,-1.8553,-1.9032,-1.9721,-1.9798,-1.9798,-1.9798,-1.9798,-1.9798,-1.9798,-1.9798,-1.9999,-2.0451,-2.0489,-2.0666,-2.0993,-2.1091,-2.139,-2.2133,-2.2719,-2.2869,-2.2347,-2.2749,-2.3333,-2.3722,-2.3797,-2.3672,-2.3434,-2.3584,-2.3797,-2.3797,-2.3797,-2.3572,-2.3158,-2.3095,-2.307,-2.3045,-2.2819,-2.2644,-2.2585,-2.2171,-2.1845,-2.1845,-2.2033,-2.2133,-2.2071,-2.1631,-2.1204,-2.1097,-2.0364,-1.9171,-1.8894,-1.9408,-1.965,-1.8937,-1.9662,-2.0387,-1.9934,-2.0027,-1.9989,-1.9786,-1.9823,-1.9811,-1.9924,-1.9974,-2.0577,-2.0955,-2.1119,-2.1518,0.0,0.0,0.0,0.0,0.0,0.0,0.0,0.0,0.0,0.0,0.0,0.0,0.0,0.0,0.0,0.0,0.0,0.0,-0.2777,-0.7987,-1.389,-1.6648,-1.6668,-1.6424,-1.6005,-1.5508,-1.542,-1.542,-1.542,-1.542,-1.542,-1.542,-1.542,-1.542,-1.542,-1.542,-1.542,-1.542,-1.542,-1.542,-1.542,-1.542,-1.5604,-1.613,-1.8047,-1.8847,-1.8286,-1.8703,-1.9044,-1.9176,-1.9579,-1.9798,-1.9798,-1.9798,-1.9798,-1.9798,-1.9798,-1.9698,-1.9522,-1.9685,-1.9924,-2.015,-1.9924,-2.0137,-2.0966,-2.1729,-2.1804,-2.1242,-2.1769,-2.2205,-2.2644,-2.2644,-2.2498,-2.2159,-2.2472,-2.2719,-2.3083,-2.3095,-2.3133,-2.3083,-2.2431,-2.2343,-2.2518,-2.2334,-2.2096,-2.2033,-2.1619,-2.1267,-2.1257,-2.1169,-2.1056,-2.1004,-2.0313,-1.9936,-1.9798,-1.9795,-1.9798,-1.9846,-1.9976,-1.9777,-1.9091,-2.0193,-2.0924,-1.9931,-2.0648,-2.0749,-2.0023,-1.9823,-1.9798,-1.9798,-1.9849,-1.9974,-2.0338,-2.0779,-2.0928,0.0,0.0,0.0,0.0,0.0,0.0,0.0,0.0,0.0,0.0,0.0,0.0,0.0,0.0,0.0,0.0,0.0,0.0,-0.2773,-0.79,-1.311,-1.5917,-1.6609,-1.5889,-1.5469,-1.542,-1.542,-1.542,-1.542,-1.542,-1.542,-1.54,-1.5371,-1.54,-1.542,-1.542,-1.542,-1.542,-1.542,-1.542,-1.5468,-1.5468,-1.6234,-1.7297,-1.7688,-1.8421,-1.9371,-1.9695,-1.9123,-1.7759,-1.8992,-1.9734,-1.9773,-1.9798,-1.9798,-1.9798,-1.9773,-1.9472,-1.8982,-1.9371,-1.9572,-1.9246,-1.9585,-1.9836,-1.9999,-2.0175,-2.0188,-1.9936,-2.015,-2.0577,-2.1405,-2.1707,-2.1669,-2.1584,-2.1568,-2.2071,-2.2882,-2.2857,-2.307,-2.2669,-2.1302,-2.0765,-2.1443,-2.1556,-2.1531,-2.1418,-2.1081,-2.0729,-2.0666,-2.0263,-2.0049,-2.0012,-1.9899,-1.9798,-1.9798,-1.9798,-1.9798,-1.9809,-1.9779,-1.9672,-1.9364,-1.9263,-1.9588,-1.9834,-2.0048,-2.0075,-1.9874,-1.9798,-1.9798,-1.9798,-1.9798,-1.9924,-2.0024,-1.9899,-2.0062,0.0,0.0,0.0,0.0,0.0,0.0,0.0,0.0,0.0,0.0,0.0,0.0,0.0,0.0,0.0,0.0,0.0,0.0,-0.2788,-0.789,-1.3012,-1.5556,-1.5771,-1.5508,-1.542,-1.542,-1.542,-1.542,-1.542,-1.542,-1.5225,-1.496,-1.4961,-1.5137,-1.5361,-1.542,-1.542,-1.542,-1.542,-1.542,-1.568,-1.7224,-1.8195,-1.8012,-1.8654,-1.8794,-1.8394,-1.8847,-1.8635,-1.7633,-1.8124,-1.8821,-1.9657,-1.9798,-1.9798,-1.9736,-1.9158,-1.8756,-1.8719,-1.8744,-1.8706,-1.8569,-1.9321,-1.9761,-1.9798,-1.9798,-1.9798,-1.9798,-1.9798,-2.0049,-2.0401,-2.1041,-2.133,-2.1094,-2.1295,-2.1317,-2.1217,-2.1594,-2.182,-2.1091,-2.02,-2.0049,-2.0363,-2.0754,-2.0981,-2.0943,-2.0503,-2.0214,-2.0126,-1.9899,-1.9798,-1.9798,-1.9798,-1.9798,-1.9798,-1.9798,-1.9798,-1.9798,-1.9784,-1.9758,-1.9566,-1.9501,-1.9797,-1.9809,-1.9811,-1.9798,-1.9798,-1.9798,-1.9798,-1.9798,-1.9798,-1.9798,-1.9798,-1.9798,-1.9798,0.0,0.0,0.0,0.0,0.0,0.0,0.0,0.0,0.0,0.0,0.0,0.0,0.0,0.0,0.0,0.0,0.0,0.0,-0.1903,-0.5682,-1.2223,-1.542,-1.542,-1.542,-1.542,-1.542,-1.542,-1.5166,-1.4678,-1.4863,-1.4834,-1.4627,-1.4617,-1.4707,-1.4962,-1.5254,-1.542,-1.542,-1.542,-1.5767,-1.6809,-1.8037,-1.8594,-1.8233,-1.8216,-1.8097,-1.7775,-1.8279,-1.8522,-1.8324,-1.8313,-1.8444,-1.8746,-1.9396,-1.9459,-1.8769,-1.8066,-1.7752,-1.8003,-1.8116,-1.8141,-1.799,-1.8744,-1.9284,-1.9296,-1.9597,-1.9773,-1.9798,-1.9798,-1.9798,-1.9936,-2.0501,-2.0778,-2.0515,-2.0715,-2.0652,-1.9962,-2.0501,-2.0539,-2.01,-1.9886,-1.9811,-1.9836,-2.0189,-2.0365,-2.0402,-2.0024,-1.9823,-1.9798,-1.9798,-1.9798,-1.9798,-1.9798,-1.9798,-1.9798,-1.9798,-1.9773,-1.9761,-1.9798,-1.9798,-1.9736,-1.9748,-1.9736,-1.9761,-1.9798,-1.9798,-1.9798,-1.9798,-1.9798,-1.9798,-1.9798,-1.9798,-1.9798,-1.9798,-1.9773,0.0,0.0,0.0,0.0,0.0,0.0,0.0,0.0,0.0,0.0,0.0,0.0,0.0,0.0,0.0,0.0,0.0,0.0,0.0,0.0,-1.0381,-1.5,-1.5362,-1.542,-1.542,-1.5381,-1.5342,-1.4482,-1.3203,-1.3763,-1.4209,-1.4431,-1.4219,-1.4104,-1.4114,-1.4785,-1.5254,-1.5186,-1.5137,-1.6492,-1.9025,-1.7403,-1.6919,-1.7596,-1.6173,-1.615,-1.7988,-1.8135,-1.856,-1.9432,-1.9557,-1.8682,-1.7305,-1.8431,-1.8769,-1.7114,-1.66,-1.6563,-1.6701,-1.7516,-1.779,-1.7539,-1.789,-1.8191,-1.8292,-1.8945,-1.9535,-1.9786,-1.9685,-1.9698,-1.9698,-1.9823,-1.9899,-1.9823,-1.9987,-1.9924,-1.9849,-1.9811,-1.9823,-1.9786,-1.971,-1.9773,-1.9786,-1.9798,-1.9836,-1.9874,-1.9773,-1.9685,-1.9698,-1.9736,-1.9798,-1.971,-1.9736,-1.9798,-1.9798,-1.9786,-1.9748,-1.9723,-1.9773,-1.9786,-1.9635,-1.9572,-1.9434,-1.9447,-1.9736,-1.9761,-1.9798,-1.9798,-1.9798,-1.9798,-1.9798,-1.9773,-1.9798,-1.9786,-1.9723,0.0,0.0,0.0,0.0,0.0,0.0,0.0,0.0,0.0,0.0,0.0,0.0,0.0,0.0,0.0,0.0,0.0,0.0,0.0,0.0,-0.7125,-1.2197,-1.4932,-1.54,-1.542,-1.5195,-1.4199,-1.3437,-1.3071,-1.3154,-1.3355,-1.3433,-1.3623,-1.3535,-1.333,-1.3545,-1.3662,-1.3662,-1.3662,-1.4206,-1.4967,-1.4441,-1.4632,-1.5649,-1.5845,-1.6348,-1.7005,-1.738,-1.7957,-1.8669,-1.8706,-1.8028,-1.6964,-1.7149,-1.7177,-1.6638,-1.6513,-1.6513,-1.6538,-1.6789,-1.7002,-1.6861,-1.6986,-1.7024,-1.7049,-1.7365,-1.8267,-1.9334,-1.9171,-1.8781,-1.9007,-1.9158,-1.9384,-1.9722,-1.9798,-1.9773,-1.9798,-1.9798,-1.9798,-1.9698,-1.9158,-1.9058,-1.9497,-1.9522,-1.9409,-1.9623,-1.9447,-1.9246,-1.9284,-1.9497,-1.9409,-1.892,-1.9284,-1.9497,-1.9258,-1.8907,-1.8694,-1.892,-1.9183,-1.9384,-1.9321,-1.9246,-1.9108,-1.9133,-1.9434,-1.9522,-1.9597,-1.9535,-1.9359,-1.9585,-1.9572,-1.9635,-1.9761,-1.966,-1.9459,0.0,0.0,0.0,0.0,0.0,0.0,0.0,0.0,0.0,0.0,0.0,0.0,0.0,0.0,0.0,0.0,0.0,0.0,-0.0877,-0.251,-0.5391,-1.0157,-1.463,-1.4707,-1.4473,-1.4326,-1.3424,-1.2915,-1.2915,-1.2915,-1.2915,-1.2974,-1.3145,-1.3164,-1.2935,-1.2915,-1.2915,-1.2915,-1.2935,-1.2915,-1.2915,-1.2915,-1.3478,-1.4663,-1.5854,-1.6457,-1.6495,-1.6645,-1.6962,-1.7462,-1.7576,-1.7212,-1.6563,-1.6538,-1.6513,-1.6513,-1.6513,-1.6513,-1.6513,-1.6538,-1.6513,-1.6513,-1.6513,-1.6525,-1.6513,-1.6513,-1.7265,-1.8129,-1.7965,-1.7777,-1.8229,-1.8555,-1.8857,-1.9158,-1.9371,-1.9585,-1.9723,-1.9798,-1.9798,-1.9522,-1.8518,-1.8141,-1.8279,-1.8995,-1.8907,-1.9145,-1.8932,-1.8694,-1.8757,-1.897,-1.8618,-1.8254,-1.8155,-1.8317,-1.8405,-1.8066,-1.7626,-1.7965,-1.8417,-1.8643,-1.8732,-1.8719,-1.8643,-1.8618,-1.8807,-1.838,-1.8367,-1.8254,-1.8154,-1.8631,-1.8995,-1.9058,-1.8982,-1.9032,-1.8894,0.0,0.0,0.0,0.0,0.0,0.0,0.0,0.0,0.0,0.0,0.0,0.0,0.0,0.0,0.0,0.0,0.0,0.0,-0.2197,-0.4961,-0.6787,-0.9591,-1.4387,-1.3818,-1.3248,-1.3111,-1.2974,-1.2915,-1.2915,-1.2915,-1.2915,-1.2925,-1.2944,-1.2925,-1.2915,-1.2915,-1.2915,-1.2915,-1.2915,-1.2915,-1.2915,-1.2915,-1.3586,-1.4846,-1.5932,-1.6513,-1.6461,-1.6152,-1.6061,-1.6448,-1.6638,-1.6626,-1.6513,-1.6513,-1.6513,-1.6513,-1.6513,-1.6513,-1.6513,-1.6513,-1.6513,-1.6513,-1.6513,-1.6513,-1.6513,-1.6525,-1.6588,-1.6851,-1.6726,-1.6864,-1.7466,-1.7928,-1.8154,-1.8229,-1.8668,-1.9133,-1.9597,-1.9547,-1.9221,-1.9032,-1.7779,-1.6563,-1.6839,-1.7792,-1.8229,-1.8392,-1.8267,-1.8166,-1.8129,-1.8179,-1.8116,-1.7779,-1.7378,-1.734,-1.7513,-1.7438,-1.7061,-1.7237,-1.7629,-1.7867,-1.8055,-1.8078,-1.7953,-1.7965,-1.799,-1.7491,-1.7227,-1.7252,-1.7165,-1.7315,-1.7641,-1.7955,-1.8292,-1.8468,-1.8392,0.0,0.0,0.0,0.0,0.0,0.0,0.0,0.0,0.0,0.0,0.0,0.0,0.0,0.0,0.0,0.0,0.0,0.0,-0.2309,-0.5889,-0.6416,-0.9396,-1.3354,-1.3428,-1.2915,-1.2915,-1.2915,-1.2915,-1.2915,-1.2915,-1.2915,-1.2915,-1.2915,-1.2915,-1.2915,-1.2915,-1.2915,-1.2915,-1.2915,-1.2915,-1.2915,-1.2915,-1.3954,-1.5854,-1.6349,-1.6513,-1.6513,-1.6358,-1.6315,-1.6479,-1.6513,-1.6513,-1.6513,-1.6513,-1.6513,-1.6513,-1.6513,-1.6513,-1.6513,-1.6513,-1.6513,-1.6513,-1.6513,-1.6513,-1.6513,-1.6513,-1.6513,-1.6513,-1.6513,-1.6575,-1.6851,-1.7287,-1.7574,-1.7664,-1.8053,-1.843,-1.8442,-1.7854,-1.7375,-1.7275,-1.6826,-1.6588,-1.6613,-1.6864,-1.7463,-1.789,-1.784,-1.7601,-1.7551,-1.7325,-1.7227,-1.7027,-1.6738,-1.6638,-1.6613,-1.6613,-1.6575,-1.6626,-1.6864,-1.7124,-1.725,-1.7287,-1.7087,-1.6923,-1.72,-1.6914,-1.6776,-1.6738,-1.6538,-1.6513,-1.6751,-1.7277,-1.7904,-1.823,-1.7965,0.0,0.0,0.0,0.0,0.0,0.0,0.0,0.0,0.0,0.0,0.0,0.0,0.0,0.0,0.0,0.0,0.0,0.0,0.0,-0.623,-0.8379,-1.0918,-1.3027,-1.3047,-1.2915,-1.2915,-1.2915,-1.2915,-1.2915,-1.2915,-1.2915,-1.2915,-1.2915,-1.2915,-1.2915,-1.2915,-1.2915,-1.2915,-1.2915,-1.2915,-1.2915,-1.2915,-1.4235,-1.5976,-1.6513,-1.6513,-1.6513,-1.65,-1.6513,-1.6513,-1.6513,-1.6513,-1.6513,-1.6513,-1.6513,-1.6513,-1.6513,-1.6513,-1.6513,-1.6513,-1.6513,-1.6513,-1.6513,-1.6513,-1.6513,-1.6513,-1.6513,-1.6513,-1.6513,-1.6513,-1.655,-1.6835,-1.6986,-1.7049,-1.7313,-1.7501,-1.7488,-1.6974,-1.6575,-1.6513,-1.6513,-1.6513,-1.6513,-1.6513,-1.6826,-1.7225,-1.7187,-1.7061,-1.6974,-1.6651,-1.6513,-1.6513,-1.6513,-1.6513,-1.6786,-1.69,-1.6659,-1.6616,-1.6538,-1.6701,-1.6748,-1.6773,-1.6685,-1.6563,-1.6525,-1.6513,-1.6513,-1.6513,-1.6513,-1.6513,-1.6513,-1.6676,-1.7303,-1.7716,-1.7463,0.0,0.0,0.0,0.0,0.0,0.0,0.0,0.0,0.0,0.0,0.0,0.0,0.0,0.0,0.0,0.0,0.0,0.0,0.0,-0.5811,-0.952,-1.2807,-1.2856,-1.2983,-1.2915,-1.2915,-1.2915,-1.2915,-1.2915,-1.2915,-1.2915,-1.2915,-1.2915,-1.2915,-1.2915,-1.2915,-1.2915,-1.2915,-1.2915,-1.3272,-1.3597,-1.3776,-1.4721,-1.6098,-1.6513,-1.6513,-1.6513,-1.6513,-1.6513,-1.6513,-1.6513,-1.6513,-1.6513,-1.6513,-1.6513,-1.6513,-1.6513,-1.6513,-1.6513,-1.6513,-1.6513,-1.6513,-1.6513,-1.6513,-1.6513,-1.6513,-1.6513,-1.6513,-1.6513,-1.6513,-1.6513,-1.6538,-1.6575,-1.6626,-1.6588,-1.6538,-1.6513,-1.6513,-1.6513,-1.6513,-1.6513,-1.6513,-1.6513,-1.6513,-1.6538,-1.6839,-1.6751,-1.6738,-1.6713,-1.6588,-1.6513,-1.6513,-1.6513,-1.6513,-1.6921,-1.7333,-1.7013,-1.6774,-1.6586,-1.6575,-1.6575,-1.6588,-1.655,-1.6513,-1.6513,-1.6513,-1.6513,-1.6513,-1.6513,-1.6513,-1.6513,-1.6513,-1.6638,-1.6901,-1.6851,0.0,0.0,0.0,0.0,0.0,0.0,0.0,0.0,0.0,0.0,0.0,0.0,0.0,0.0,0.0,0.0,0.0,0.0,0.0,-0.2082,-0.9628,-1.2543,-1.2905,-1.2915,-1.2915,-1.2915,-1.2915,-1.2915,-1.2915,-1.2915,-1.2929,-1.2978,-1.2954,-1.2939,-1.2978,-1.2954,-1.2915,-1.2905,-1.2978,-1.4025,-1.5299,-1.55,-1.58,-1.65,-1.6475,-1.6488,-1.65,-1.6513,-1.6513,-1.6513,-1.6513,-1.6513,-1.6513,-1.6513,-1.6513,-1.6513,-1.6513,-1.6513,-1.6513,-1.6513,-1.6513,-1.6513,-1.6513,-1.6513,-1.6513,-1.6513,-1.6513,-1.6513,-1.6513,-1.6607,-1.6565,-1.6522,-1.6543,-1.6565,-1.6586,-1.6543,-1.6513,-1.6513,-1.6513,-1.6513,-1.6513,-1.6534,-1.6543,-1.6616,-1.6595,-1.6543,-1.6522,-1.6534,-1.6513,-1.6513,-1.6513,-1.6513,-1.6513,-1.6522,-1.6723,-1.7126,-1.7084,-1.6858,-1.6659,-1.665,-1.665,-1.6513,-1.6513,-1.6513,-1.6513,-1.6513,-1.6513,-1.6513,-1.6513,-1.6513,-1.65,-1.6513,-1.6513,-1.6513,-1.6513,0.0,0.0,0.0,0.0,0.0,0.0,0.0,0.0,0.0,0.0,0.0,0.0,0.0,0.0,0.0,0.0,0.0,0.0,0.0,0.0,-0.5254,-0.8855,-1.2758,-1.2915,-1.2915,-1.2895,-1.2915,-1.2915,-1.2915,-1.2934,-1.32,-1.361,-1.319,-1.332,-1.3501,-1.3224,-1.3262,-1.3894,-1.434,-1.5287,-1.6315,-1.6513,-1.6513,-1.6412,-1.6287,-1.6199,-1.6463,-1.6513,-1.6513,-1.6513,-1.6513,-1.6513,-1.6513,-1.6513,-1.6513,-1.6513,-1.6513,-1.6513,-1.6513,-1.6513,-1.6513,-1.6522,-1.65,-1.6513,-1.6513,-1.6513,-1.6513,-1.6637,-1.6888,-1.7167,-1.6888,-1.6595,-1.6616,-1.6845,-1.6938,-1.6866,-1.6607,-1.6513,-1.6513,-1.6513,-1.6513,-1.6837,-1.6993,-1.6972,-1.693,-1.6972,-1.69,-1.6858,-1.6513,-1.6513,-1.6513,-1.6513,-1.6513,-1.6522,-1.6595,-1.6816,-1.7055,-1.6888,-1.6731,-1.6816,-1.6942,-1.6723,-1.6513,-1.6513,-1.6513,-1.6513,-1.6513,-1.6513,-1.65,-1.6475,-1.6475,-1.6488,-1.6463,-1.64,-1.6425,0.0,0.0,0.0,0.0,0.0,0.0,0.0,0.0,0.0,0.0,0.0,0.0,0.0,0.0,0.0,0.0,0.0,0.0,0.0,0.0,0.0,0.0,-1.1095,-1.2915,-1.2631,-1.2602,-1.2798,-1.2886,-1.2856,-1.2679,-1.268,-1.3739,-1.3452,-1.3164,-1.3687,-1.3758,-1.3681,-1.4525,-1.5567,-1.6207,-1.6479,-1.6513,-1.6513,-1.6412,-1.5869,-1.5869,-1.6199,-1.6412,-1.6513,-1.6513,-1.6513,-1.6513,-1.6513,-1.6513,-1.6513,-1.6513,-1.6513,-1.6513,-1.6513,-1.6522,-1.6531,-1.6595,-1.6522,-1.6513,-1.6513,-1.6586,-1.6858,-1.7353,-1.7807,-1.8072,-1.7504,-1.716,-1.7032,-1.7146,-1.7364,-1.7199,-1.6909,-1.6744,-1.6808,-1.6513,-1.6522,-1.6752,-1.7291,-1.7544,-1.7463,-1.7381,-1.7278,-1.7126,-1.6786,-1.6509,-1.6531,-1.65,-1.6513,-1.6057,-1.6006,-1.6481,-1.6712,-1.6509,-1.6454,-1.6687,-1.6805,-1.6271,-1.5977,-1.6425,-1.6513,-1.645,-1.6463,-1.6513,-1.6488,-1.6437,-1.6162,-1.5906,-1.5994,-1.6233,-1.6199,0.0,0.0,0.0,0.0,0.0,0.0,0.0,0.0,0.0,0.0,0.0,0.0,0.0,0.0,0.0,0.0,0.0,0.0,0.0,0.0,0.0,0.0,-1.1203,-1.2827,-1.2181,-1.1457,-1.1937,-1.2661,-1.2357,-1.1596,-1.1583,-1.2159,-1.2742,-1.2898,-1.3023,-1.342,-1.4129,-1.4812,-1.5881,-1.6479,-1.6513,-1.6375,-1.6237,-1.6145,-1.5379,-1.5387,-1.5781,-1.6224,-1.6513,-1.6513,-1.6513,-1.6513,-1.6425,-1.6425,-1.6337,-1.6488,-1.6375,-1.6312,-1.6475,-1.6484,-1.6752,-1.6942,-1.6858,-1.6595,-1.6586,-1.6701,-1.7517,-1.8478,-1.8929,-1.8929,-1.8052,-1.7598,-1.7495,-1.727,-1.6971,-1.7008,-1.7477,-1.7619,-1.7278,-1.6659,-1.6573,-1.6659,-1.727,-1.7701,-1.7638,-1.7511,-1.741,-1.7265,-1.6985,-1.6706,-1.6553,-1.6527,-1.6513,-1.5869,-1.5306,-1.5921,-1.6286,-1.5916,-1.5859,-1.6107,-1.6036,-1.5466,-1.5403,-1.6171,-1.6338,-1.6162,-1.6237,-1.6187,-1.5823,-1.5296,-1.5203,-1.5193,-1.5424,-1.5593,-1.5429,0.0,0.0,0.0,0.0,0.0,0.0,0.0,0.0,0.0,0.0,0.0,0.0,0.0,0.0,0.0,0.0,0.0,0.0,0.0,0.0,0.0,-0.3992,-1.0987,-1.225,-1.1751,-1.0958,-1.1193,-1.1623,-1.1496,-1.0781,-1.0577,-1.1021,-1.1871,-1.2442,-1.2712,-1.2923,-1.386,-1.4607,-1.5794,-1.6437,-1.6362,-1.6019,-1.548,-1.482,-1.4726,-1.4783,-1.511,-1.477,-1.5108,-1.5618,-1.6195,-1.6437,-1.6187,-1.5585,-1.5347,-1.6086,-1.6015,-1.599,-1.6296,-1.6296,-1.6278,-1.6728,-1.6999,-1.7306,-1.7504,-1.7947,-1.8331,-1.9053,-1.8847,-1.8511,-1.7988,-1.752,-1.7079,-1.7018,-1.6793,-1.6895,-1.7264,-1.7744,-1.7337,-1.6811,-1.7517,-1.765,-1.7297,-1.76,-1.7683,-1.7637,-1.7504,-1.7309,-1.7091,-1.6857,-1.655,-1.6467,-1.6383,-1.5858,-1.5232,-1.5447,-1.5919,-1.5574,-1.5468,-1.5694,-1.579,-1.5457,-1.5729,-1.6332,-1.6244,-1.5756,-1.492,-1.4481,-1.4293,-1.4249,-1.4273,-1.4367,-1.4739,-1.4909,-1.4815,0.0,0.0,0.0,0.0,0.0,0.0,0.0,0.0,0.0,0.0,0.0,0.0,0.0,0.0,0.0,0.0,0.0,0.0,0.0,0.0,0.0,-0.3366,-0.7227,-1.087,-1.1555,-1.0547,-1.043,-1.0322,-1.0538,-1.0361,-1.0322,-1.0716,-1.1302,-1.2173,-1.2856,-1.2916,-1.3412,-1.3986,-1.5277,-1.5798,-1.5618,-1.5003,-1.4161,-1.3323,-1.369,-1.4173,-1.4601,-1.3973,-1.3905,-1.4551,-1.5216,-1.5735,-1.5522,-1.4168,-1.4074,-1.5379,-1.5298,-1.5638,-1.5741,-1.6327,-1.6408,-1.6911,-1.7308,-1.7567,-1.752,-1.7469,-1.7896,-1.822,-1.8346,-1.7768,-1.7622,-1.7022,-1.6697,-1.6667,-1.6754,-1.6698,-1.6703,-1.6898,-1.7065,-1.7273,-1.8357,-1.8125,-1.7231,-1.6934,-1.6884,-1.7026,-1.6911,-1.7011,-1.6805,-1.6736,-1.6516,-1.6402,-1.6212,-1.5802,-1.5367,-1.5076,-1.5411,-1.5447,-1.5432,-1.5643,-1.5768,-1.5796,-1.6069,-1.6107,-1.5501,-1.4889,-1.3839,-1.3245,-1.3529,-1.3652,-1.3466,-1.3672,-1.4254,-1.4498,-1.4477,0.0,0.0,0.0,0.0,0.0,0.0,0.0,0.0,0.0,0.0,0.0,0.0,0.0,0.0,0.0,0.0,0.0,0.0,0.0,0.0,0.0,0.0,-0.2544,-0.7994,-1.0371,-1.043,-1.0449,-1.0322,-1.0322,-1.0322,-1.038,-1.0665,-1.1527,-1.2277,-1.2058,-1.2987,-1.3639,-1.2698,-1.324,-1.3724,-1.3736,-1.3616,-1.3386,-1.3286,-1.3336,-1.3609,-1.406,-1.3546,-1.3428,-1.3466,-1.3604,-1.3649,-1.3523,-1.3436,-1.3278,-1.4024,-1.4777,-1.5594,-1.5208,-1.5833,-1.6674,-1.6886,-1.7015,-1.6628,-1.6782,-1.5474,-1.4712,-1.4072,-1.5959,-1.7368,-1.7301,-1.7324,-1.7161,-1.6756,-1.6394,-1.6195,-1.6105,-1.6371,-1.6476,-1.6419,-1.7087,-1.6894,-1.6312,-1.6169,-1.6074,-1.6222,-1.6404,-1.6555,-1.671,-1.6759,-1.64,-1.6231,-1.6095,-1.572,-1.5557,-1.5252,-1.527,-1.5356,-1.5473,-1.563,-1.5665,-1.5745,-1.5565,-1.5438,-1.4934,-1.4624,-1.4126,-1.3698,-1.3369,-1.3387,-1.3598,-1.3752,-1.3951,-1.4072,-1.4176,0.0,0.0,0.0,0.0,0.0,0.0,0.0,0.0,0.0,0.0,0.0,0.0,0.0,0.0,0.0,0.0,0.0,0.0,0.0,0.0,0.0,0.0,0.0,-0.6683,-1.0253,-1.0528,-1.1085,-1.1115,-1.0744,-1.0438,-1.0496,-1.1166,-1.1513,-1.187,-1.1671,-1.2677,-1.2895,-1.2782,-1.3044,-1.3223,-1.321,-1.321,-1.321,-1.321,-1.321,-1.3378,-1.3471,-1.3403,-1.321,-1.321,-1.321,-1.321,-1.321,-1.321,-1.3223,-1.3295,-1.3903,-1.4394,-1.4613,-1.5337,-1.6001,-1.6657,-1.6876,-1.7707,-1.7398,-1.531,-1.3531,-1.4007,-1.5057,-1.604,-1.6621,-1.6694,-1.6472,-1.6204,-1.6083,-1.598,-1.5861,-1.5935,-1.6047,-1.5891,-1.5815,-1.5897,-1.5957,-1.594,-1.6039,-1.6336,-1.6637,-1.6949,-1.7132,-1.7321,-1.6737,-1.599,-1.5864,-1.5667,-1.562,-1.5507,-1.5551,-1.5623,-1.5623,-1.5708,-1.5608,-1.5566,-1.5492,-1.5551,-1.5474,-1.5064,-1.4549,-1.4019,-1.3598,-1.3715,-1.3917,-1.4084,-1.423,-1.3947,-1.3969,0.0,0.0,0.0,0.0,0.0,0.0,0.0,0.0,0.0,0.0,0.0,0.0,0.0,0.0,0.0,0.0,0.0,0.0,0.0,0.0,0.0,0.0,0.0,-0.5499,-0.8356,-1.0303,-1.1193,-1.1601,-1.1425,-1.1169,-1.1497,-1.1811,-1.1697,-1.184,-1.224,-1.2544,-1.2674,-1.3114,-1.3159,-1.321,-1.321,-1.321,-1.321,-1.321,-1.321,-1.321,-1.321,-1.321,-1.321,-1.321,-1.321,-1.321,-1.321,-1.321,-1.321,-1.3228,-1.3487,-1.3642,-1.4136,-1.4701,-1.4975,-1.5768,-1.6747,-1.7867,-1.7783,-1.5424,-1.3802,-1.4422,-1.4886,-1.5556,-1.5947,-1.5965,-1.6009,-1.5934,-1.5845,-1.5814,-1.5829,-1.5876,-1.5906,-1.5846,-1.5814,-1.5814,-1.5847,-1.5831,-1.6024,-1.6428,-1.6832,-1.7205,-1.7264,-1.7278,-1.6753,-1.5876,-1.5817,-1.5712,-1.5712,-1.5712,-1.5785,-1.5814,-1.5814,-1.5785,-1.5697,-1.5697,-1.5712,-1.577,-1.5814,-1.5624,-1.5149,-1.447,-1.3901,-1.4406,-1.4768,-1.4627,-1.4549,-1.4181,-1.3785,0.0,0.0,0.0,0.0,0.0,0.0,0.0,0.0,0.0,0.0,0.0,0.0,0.0,0.0,0.0,0.0,0.0,0.0,0.0,0.0,0.0,0.0,0.0,0.0,-0.4647,-0.951,-1.0832,-1.1621,-1.2472,-1.236,-1.2246,-1.1938,-1.2084,-1.2318,-1.2597,-1.2791,-1.292,-1.321,-1.321,-1.321,-1.321,-1.321,-1.321,-1.321,-1.321,-1.321,-1.321,-1.321,-1.321,-1.321,-1.321,-1.321,-1.321,-1.321,-1.321,-1.321,-1.3391,-1.3531,-1.3849,-1.4533,-1.5272,-1.5848,-1.6491,-1.6957,-1.6242,-1.6129,-1.53,-1.4783,-1.518,-1.5388,-1.558,-1.5522,-1.577,-1.5814,-1.5814,-1.5814,-1.5814,-1.5814,-1.5845,-1.5814,-1.5814,-1.5814,-1.5814,-1.5814,-1.5814,-1.6159,-1.6174,-1.6518,-1.6398,-1.6368,-1.6234,-1.583,-1.5815,-1.5799,-1.5799,-1.5814,-1.5814,-1.5814,-1.5814,-1.5814,-1.5785,-1.5814,-1.5814,-1.5814,-1.5814,-1.5814,-1.5785,-1.5209,-1.4967,-1.5433,-1.5522,-1.4922,-1.447,-1.4081,-1.3698,0.0,0.0,0.0,0.0,0.0,0.0,0.0,0.0,0.0,0.0,0.0,0.0,0.0,0.0,0.0,0.0,0.0,0.0,0.0,0.0,0.0,0.0,0.0,0.0,-0.3577,-0.8727,-1.0194,-1.0467,-1.1236,-1.2603,-1.2995,-1.2768,-1.2579,-1.2703,-1.2896,-1.3077,-1.3176,-1.321,-1.321,-1.321,-1.321,-1.321,-1.321,-1.321,-1.321,-1.321,-1.321,-1.321,-1.321,-1.321,-1.321,-1.321,-1.321,-1.321,-1.321,-1.3301,-1.3615,-1.3901,-1.3868,-1.4378,-1.4654,-1.5099,-1.5444,-1.5414,-1.4672,-1.5149,-1.5566,-1.5522,-1.5551,-1.5624,-1.5668,-1.5712,-1.5814,-1.5814,-1.5814,-1.5814,-1.5814,-1.5814,-1.5814,-1.5814,-1.5814,-1.5814,-1.5814,-1.5814,-1.5814,-1.5858,-1.5829,-1.5799,-1.5739,-1.5799,-1.5814,-1.5814,-1.5814,-1.5814,-1.5814,-1.5814,-1.5814,-1.5814,-1.5814,-1.5814,-1.5814,-1.5814,-1.5814,-1.5814,-1.5814,-1.5814,-1.5814,-1.5814,-1.5814,-1.5784,-1.5329,-1.4658,-1.4278,-1.3897,-1.3524,0.0,0.0,0.0,0.0,0.0,0.0,0.0,0.0,0.0,0.0,0.0,0.0,0.0,0.0,0.0,0.0,0.0,0.0,0.0,0.0,0.0,0.0,0.0,0.0,-0.2242,-0.7035,-0.9937,-1.0505,-1.1623,-1.2638,-1.3025,-1.3042,-1.2925,-1.2978,-1.3077,-1.321,-1.321,-1.321,-1.321,-1.321,-1.321,-1.321,-1.321,-1.321,-1.321,-1.321,-1.321,-1.321,-1.321,-1.321,-1.321,-1.321,-1.321,-1.321,-1.321,-1.3493,-1.3921,-1.447,-1.4422,-1.4342,-1.4294,-1.474,-1.4697,-1.4343,-1.4149,-1.4922,-1.5639,-1.5755,-1.5785,-1.5814,-1.5814,-1.5814,-1.5814,-1.5814,-1.5814,-1.5814,-1.5814,-1.5814,-1.5814,-1.5814,-1.5814,-1.5799,-1.5784,-1.5784,-1.5754,-1.5769,-1.5799,-1.5649,-1.5379,-1.5529,-1.5814,-1.5814,-1.5814,-1.5814,-1.5814,-1.5799,-1.5799,-1.5814,-1.5814,-1.5814,-1.5814,-1.5784,-1.5799,-1.5814,-1.5814,-1.5814,-1.5799,-1.5769,-1.5784,-1.5814,-1.4857,-1.3644,-1.3724,-1.3323,-1.3174,0.0,0.0,0.0,0.0,0.0,0.0,0.0,0.0,0.0,0.0,0.0,0.0,0.0,0.0,0.0,0.0,0.0,0.0,0.0,0.0,0.0,0.0,0.0,0.0,0.0,0.0,-0.6523,-1.1094,-1.2567,-1.2756,-1.2978,-1.321,-1.3112,-1.3129,-1.321,-1.321,-1.321,-1.321,-1.321,-1.321,-1.321,-1.3198,-1.3185,-1.2939,-1.2939,-1.2902,-1.3023,-1.3052,-1.309,-1.3198,-1.321,-1.321,-1.321,-1.321,-1.321,-1.3267,-1.4019,-1.4454,-1.4517,-1.4501,-1.4611,-1.4627,-1.4611,-1.447,-1.4627,-1.5269,-1.5814,-1.5814,-1.5814,-1.5814,-1.5814,-1.5814,-1.5814,-1.5814,-1.5814,-1.5814,-1.5814,-1.5814,-1.5814,-1.5814,-1.5799,-1.5784,-1.5769,-1.5739,-1.5694,-1.5709,-1.5769,-1.5529,-1.5049,-1.5005,-1.523,-1.5469,-1.5424,-1.5035,-1.5034,-1.5619,-1.5784,-1.5799,-1.5739,-1.5664,-1.5649,-1.5619,-1.5664,-1.5769,-1.5814,-1.5814,-1.5754,-1.5694,-1.5027,-1.4186,-1.33,-1.247,-1.2652,-1.2903,-1.2857,0.0,0.0,0.0,0.0,0.0,0.0,0.0,0.0,0.0,0.0,0.0,0.0,0.0,0.0,0.0,0.0,0.0,0.0,0.0,0.0,0.0,0.0,0.0,0.0,0.0,0.0,-0.6552,-1.0505,-1.1132,-1.2,-1.2738,-1.3025,-1.3148,-1.321,-1.321,-1.321,-1.321,-1.321,-1.321,-1.321,-1.321,-1.316,-1.2872,-1.2262,-1.2203,-1.2316,-1.2722,-1.2805,-1.2939,-1.3165,-1.321,-1.321,-1.321,-1.321,-1.321,-1.3387,-1.4016,-1.4611,-1.4907,-1.5104,-1.5195,-1.4968,-1.4737,-1.4845,-1.5285,-1.5551,-1.577,-1.5814,-1.5814,-1.5814,-1.5814,-1.5814,-1.5814,-1.5814,-1.5814,-1.5814,-1.5814,-1.5814,-1.5814,-1.5814,-1.5799,-1.5155,-1.4901,-1.511,-1.517,-1.4886,-1.4824,-1.4704,-1.4287,-1.4199,-1.4318,-1.4721,-1.4751,-1.4257,-1.4197,-1.5184,-1.5559,-1.5454,-1.5394,-1.5305,-1.5335,-1.5275,-1.5544,-1.5649,-1.5739,-1.5799,-1.5649,-1.5143,-1.3365,-1.2217,-1.2093,-1.2071,-1.2332,-1.2695,-1.2922,0.0,0.0,0.0,0.0,0.0,0.0,0.0,0.0,0.0,0.0,0.0,0.0,0.0,0.0,0.0,0.0,0.0,0.0,0.0,0.0,0.0,0.0,0.0,0.0,0.0,0.0,-0.6281,-1.04,-1.0544,-1.1386,-1.2282,-1.2958,-1.301,-1.3035,-1.3098,-1.321,-1.321,-1.321,-1.321,-1.321,-1.321,-1.3073,-1.2689,-1.1867,-1.1482,-1.1473,-1.2277,-1.2647,-1.279,-1.3095,-1.3245,-1.3245,-1.325,-1.3228,-1.3228,-1.3455,-1.431,-1.4953,-1.5374,-1.5536,-1.5522,-1.5374,-1.5074,-1.524,-1.5668,-1.577,-1.5799,-1.5814,-1.5784,-1.5784,-1.5769,-1.5784,-1.5814,-1.5814,-1.5814,-1.5814,-1.5814,-1.5814,-1.5814,-1.5814,-1.5589,-1.4856,-1.4094,-1.4333,-1.4543,-1.4154,-1.3807,-1.3673,-1.3613,-1.36,-1.3438,-1.3615,-1.4047,-1.3807,-1.4122,-1.5184,-1.5364,-1.514,-1.499,-1.4856,-1.4663,-1.4573,-1.505,-1.5544,-1.5649,-1.5664,-1.5439,-1.4641,-1.3525,-1.2664,-1.2191,-1.2175,-1.2153,-1.24,-1.2751,0.0,0.0,0.0,0.0,0.0,0.0,0.0,0.0,0.0,0.0,0.0,0.0,0.0,0.0,0.0,0.0,0.0,0.0,0.0,0.0,0.0,0.0,0.0,0.0,0.0,0.0,-0.6223,-1.0322,-1.0409,-1.1267,-1.224,-1.279,-1.2588,-1.2626,-1.2801,-1.2885,-1.2776,-1.2563,-1.2434,-1.2397,-1.2371,-1.2613,-1.2052,-1.1276,-1.0735,-1.1141,-1.1873,-1.2496,-1.2868,-1.3165,-1.3352,-1.3357,-1.3323,-1.3245,-1.3228,-1.3782,-1.5029,-1.5463,-1.5682,-1.5754,-1.5739,-1.5623,-1.5697,-1.5784,-1.5784,-1.5784,-1.5634,-1.5604,-1.5559,-1.5649,-1.5694,-1.5769,-1.5814,-1.5814,-1.5814,-1.5814,-1.5814,-1.5814,-1.5814,-1.5724,-1.5514,-1.4841,-1.375,-1.3663,-1.3929,-1.3343,-1.3029,-1.3014,-1.2999,-1.3151,-1.2897,-1.2355,-1.2789,-1.331,-1.3895,-1.442,-1.4736,-1.4376,-1.4391,-1.4272,-1.4036,-1.4141,-1.4751,-1.5259,-1.5529,-1.5334,-1.4451,-1.4357,-1.4414,-1.3623,-1.2928,-1.2374,-1.2367,-1.2256,-1.2475,0.0,0.0,0.0,0.0,0.0,0.0,0.0,0.0,0.0,0.0,0.0,0.0,0.0,0.0,0.0,0.0,0.0,0.0,0.0,0.0,0.0,0.0,0.0,0.0,0.0,0.0,-0.5929,-0.9796,-1.054,-1.1266,-1.1927,-1.243,-1.2077,-1.204,-1.2077,-1.2049,-1.161,-1.1259,-1.1157,-1.1157,-1.1094,-1.1146,-1.0784,-1.0419,-1.0193,-1.0682,-1.1316,-1.1619,-1.2232,-1.3714,-1.4017,-1.4294,-1.5014,-1.4049,-1.3476,-1.4953,-1.5595,-1.5784,-1.5724,-1.5364,-1.5214,-1.5529,-1.5664,-1.5799,-1.5814,-1.5469,-1.5139,-1.4841,-1.4916,-1.4975,-1.5155,-1.529,-1.538,-1.544,-1.547,-1.5574,-1.5559,-1.553,-1.5485,-1.5005,-1.4839,-1.4197,-1.3151,-1.3244,-1.3376,-1.2684,-1.2321,-1.2366,-1.2426,-1.2594,-1.2553,-1.1965,-1.195,-1.2579,-1.2445,-1.2819,-1.3316,-1.363,-1.375,-1.3944,-1.4094,-1.4288,-1.4676,-1.4891,-1.506,-1.4148,-1.2864,-1.3258,-1.4312,-1.4416,-1.3819,-1.3135,-1.2554,-1.2383,-1.2357,0.0,0.0,0.0,0.0,0.0,0.0,0.0,0.0,0.0,0.0,0.0,0.0,0.0,0.0,0.0,0.0,0.0,0.0,0.0,0.0,0.0,0.0,0.0,0.0,0.0,0.0,0.0,-0.7264,-0.9754,-1.1193,-1.1839,-1.1989,-1.1553,-1.1462,-1.1437,-1.1213,-1.0608,-1.0231,-0.9993,-0.9893,-0.9893,-0.9893,-0.9893,-0.9893,-0.9893,-1.0272,-1.0854,-1.0973,-1.2166,-1.3846,-1.4245,-1.521,-1.5712,-1.4799,-1.4438,-1.5535,-1.5085,-1.511,-1.5007,-1.4677,-1.4633,-1.4721,-1.4916,-1.4586,-1.4227,-1.3777,-1.3466,-1.3256,-1.375,-1.4182,-1.4466,-1.4721,-1.4841,-1.4947,-1.5095,-1.5244,-1.5229,-1.5185,-1.4766,-1.4197,-1.3675,-1.3121,-1.2852,-1.3017,-1.2912,-1.2325,-1.204,-1.207,-1.2055,-1.2085,-1.2145,-1.1876,-1.1816,-1.1995,-1.1905,-1.2055,-1.2403,-1.3092,-1.3498,-1.372,-1.4019,-1.4214,-1.4363,-1.4425,-1.4496,-1.3843,-1.3523,-1.3612,-1.4272,-1.4083,-1.3767,-1.3217,-1.2549,-1.2314,-1.2392,0.0,0.0,0.0,0.0,0.0,0.0,0.0,0.0,0.0,0.0,0.0,0.0,0.0,0.0,0.0,0.0,0.0,0.0,0.0,0.0,0.0,0.0,0.0,0.0,0.0,0.0,0.0,-0.5084,-0.9847,-1.1288,-1.1211,-1.1477,-1.0933,-1.0808,-1.1012,-1.0522,-1.0094,-0.9993,-0.9893,-0.9893,-0.9893,-0.9893,-0.9893,-0.9893,-1.0007,-1.0289,-1.1018,-1.1573,-1.2051,-1.3089,-1.3966,-1.4974,-1.5653,-1.5028,-1.5101,-1.5129,-1.4436,-1.4094,-1.4094,-1.3929,-1.363,-1.3525,-1.3408,-1.3151,-1.2849,-1.2654,-1.2433,-1.2373,-1.2849,-1.3298,-1.3613,-1.4049,-1.4288,-1.4348,-1.4423,-1.4646,-1.4796,-1.4376,-1.3478,-1.3089,-1.2987,-1.2478,-1.2284,-1.2403,-1.2448,-1.195,-1.1846,-1.1876,-1.1876,-1.1816,-1.1816,-1.1816,-1.1816,-1.2025,-1.2864,-1.2849,-1.2149,-1.2452,-1.3109,-1.3466,-1.3735,-1.3885,-1.3976,-1.4215,-1.4476,-1.5051,-1.5062,-1.4218,-1.3054,-1.2553,-1.2415,-1.2706,-1.2553,-1.2388,-1.2316,0.0,0.0,0.0,0.0,0.0,0.0,0.0,0.0,0.0,0.0,0.0,0.0,0.0,0.0,0.0,0.0,0.0,0.0,0.0,0.0,0.0,0.0,0.0,0.0,0.0,0.0,0.0,-0.3264,-0.8134,-0.9898,-1.0546,-1.082,-1.0406,-1.0331,-1.0445,-0.9931,-0.9918,-0.9893,-0.9893,-0.9893,-0.9893,-0.9893,-0.9893,-0.9893,-0.9969,-0.9994,-1.047,-1.0674,-1.099,-1.1538,-1.1722,-1.3285,-1.5532,-1.3825,-1.4045,-1.4914,-1.3613,-1.3121,-1.3136,-1.3208,-1.3002,-1.2837,-1.2676,-1.2239,-1.1939,-1.1846,-1.1816,-1.1816,-1.198,-1.243,-1.2834,-1.3316,-1.3663,-1.3677,-1.3677,-1.3974,-1.4259,-1.3316,-1.228,-1.2205,-1.225,-1.21,-1.1876,-1.1816,-1.1816,-1.1816,-1.1816,-1.1831,-1.1831,-1.1816,-1.1816,-1.1816,-1.1816,-1.2205,-1.3328,-1.3568,-1.2837,-1.2601,-1.3139,-1.3376,-1.3583,-1.3957,-1.4333,-1.4365,-1.4625,-1.4733,-1.4049,-1.2375,-1.1388,-1.1469,-1.1582,-1.2123,-1.2733,-1.276,-1.2509,0.0,0.0,0.0,0.0,0.0,0.0,0.0,0.0,0.0,0.0,0.0,0.0,0.0,0.0,0.0,0.0,0.0,0.0,0.0,0.0,0.0,0.0,0.0,0.0,0.0,0.0,0.0,-0.2355,-0.5963,-0.9126,-1.0143,-1.0294,-1.0005,-0.9893,-0.9893,-0.9893,-0.9893,-0.9893,-0.9893,-0.9893,-0.9893,-0.9893,-0.9893,-0.9893,-0.9893,-0.9893,-1.0008,-1.0223,-1.057,-1.0956,-1.1343,-1.1969,-1.3324,-1.2673,-1.2703,-1.3148,-1.2732,-1.1999,-1.2358,-1.2493,-1.2448,-1.2317,-1.2239,-1.1876,-1.1876,-1.1816,-1.1816,-1.1816,-1.1816,-1.219,-1.2235,-1.2598,-1.2658,-1.2658,-1.2658,-1.2807,-1.2882,-1.2463,-1.1969,-1.198,-1.1995,-1.1965,-1.1816,-1.1816,-1.1816,-1.1816,-1.1816,-1.1816,-1.1816,-1.1816,-1.1816,-1.1816,-1.1816,-1.2969,-1.4599,-1.4376,-1.3466,-1.3361,-1.3304,-1.3914,-1.4406,-1.4526,-1.4706,-1.4618,-1.4201,-1.3453,-1.2477,-1.1234,-1.1468,-1.1993,-1.1837,-1.1701,-1.2337,-1.288,-1.2499,0.0,0.0,0.0,0.0,0.0,0.0,0.0,0.0,0.0,0.0,0.0,0.0,0.0,0.0,0.0,0.0,0.0,0.0,0.0,0.0,0.0,0.0,0.0,0.0,0.0,0.0,0.0,0.0,-0.1317,-0.6156,-0.9905,-0.9893,-0.9893,-0.9893,-0.9893,-0.9893,-0.9893,-0.9893,-0.9893,-0.9893,-0.9893,-0.9893,-0.9893,-0.9893,-0.9893,-0.9893,-0.9995,-1.021,-1.0558,-1.0714,-1.1057,-1.1626,-1.1837,-1.172,-1.1826,-1.1992,-1.2002,-1.1719,-1.187,-1.1878,-1.1866,-1.1824,-1.1805,-1.1816,-1.1816,-1.1816,-1.1816,-1.1816,-1.1816,-1.1831,-1.1876,-1.188,-1.1895,-1.191,-1.191,-1.191,-1.188,-1.1835,-1.182,-1.1816,-1.1816,-1.1816,-1.1816,-1.1816,-1.1816,-1.1816,-1.1816,-1.1816,-1.1816,-1.1816,-1.1816,-1.1816,-1.1816,-1.3343,-1.5364,-1.4706,-1.3555,-1.3795,-1.3825,-1.4616,-1.505,-1.4661,-1.4526,-1.4721,-1.4154,-1.3226,-1.2067,-1.0917,-1.1471,-1.2261,-1.2567,-1.2349,-1.1989,-1.2381,-1.2143,0.0,0.0,0.0,0.0,0.0,0.0,0.0,0.0,0.0,0.0,0.0,0.0,0.0,0.0,0.0,0.0,0.0,0.0,0.0,0.0,0.0,0.0,0.0,0.0,0.0,0.0,0.0,0.0,0.0,-0.6169,-0.988,-0.9893,-0.9893,-0.9893,-0.9893,-0.9893,-0.9893,-0.9893,-0.9893,-0.9893,-0.9893,-0.9893,-0.9893,-0.9893,-0.9893,-0.9893,-0.997,-1.0223,-1.021,-1.0198,-1.0334,-1.0926,-1.1182,-1.1066,-1.0985,-1.131,-1.1276,-1.1426,-1.1482,-1.1557,-1.1626,-1.1805,-1.1816,-1.1816,-1.1816,-1.1816,-1.1816,-1.1816,-1.1816,-1.1816,-1.1846,-1.1846,-1.1846,-1.1846,-1.1846,-1.1846,-1.1831,-1.1831,-1.1816,-1.1816,-1.1816,-1.1816,-1.1816,-1.1816,-1.1816,-1.1816,-1.1816,-1.1816,-1.1816,-1.1816,-1.1816,-1.1816,-1.1816,-1.3445,-1.5244,-1.4303,-1.3468,-1.3812,-1.4081,-1.4382,-1.4442,-1.4216,-1.4184,-1.4363,-1.3989,-1.3154,-1.1957,-1.1254,-1.1339,-1.214,-1.3114,-1.3248,-1.2565,-1.1963,-1.1786]}]]